<?xml version="1.0" encoding="UTF-8" standalone="no" ?>
<gpx xmlns="http://www.topografix.com/GPX/1/1" xmlns:xsi="http://www.w3.org/2001/XMLSchema-instance" xsi:schemaLocation="http://www.topografix.com/GPX/1/1 http://www.topografix.com/GPX/1/1/gpx.xsd" version="1.1" creator="VisuGPX - https://www.visugpx.com">
  <metadata>
    <name>Projet de Raid entre PIGNAN (34) et La Couvertoirade (12)</name>
    <desc><![CDATA[Raid Pignan - La Couvertoirade: Ceci est un projet de virée VTT entre le château de Pignan et le château de La Couvertoirade pour une traversée des garrigues méditerranéennes et du Causse du Larzac. Au total 73 kms et 1925m de D  estimés, essentiellement par des pistes et monotraces (majorité de piste).
Association PIGNAN VTT]]></desc>
  </metadata>
  <trk>
    <name><![CDATA[Projet PIGNAN - LA COUVERTOIRADE]]></name>
    <trkseg>
      <trkpt lat="43.58465" lon="3.75762">
        <ele>-1</ele>
        <time>1970-01-01T00:00:00Z</time>
      </trkpt>
      <trkpt lat="43.5787" lon="3.74449">
        <ele>-1</ele>
        <time>1970-01-01T00:00:00Z</time>
      </trkpt>
      <trkpt lat="43.57875" lon="3.74392">
        <ele>-1</ele>
        <time>1970-01-01T00:00:00Z</time>
      </trkpt>
      <trkpt lat="43.57901" lon="3.74355">
        <ele>-1</ele>
        <time>1970-01-01T00:00:00Z</time>
      </trkpt>
      <trkpt lat="43.5795" lon="3.74364">
        <ele>-1</ele>
        <time>1970-01-01T00:00:00Z</time>
      </trkpt>
      <trkpt lat="43.58013" lon="3.74367">
        <ele>-1</ele>
        <time>1970-01-01T00:00:00Z</time>
      </trkpt>
      <trkpt lat="43.58045" lon="3.74349">
        <ele>-1</ele>
        <time>1970-01-01T00:00:00Z</time>
      </trkpt>
      <trkpt lat="43.58042" lon="3.74292">
        <ele>-1</ele>
        <time>1970-01-01T00:00:00Z</time>
      </trkpt>
      <trkpt lat="43.5807" lon="3.74205">
        <ele>-1</ele>
        <time>1970-01-01T00:00:00Z</time>
      </trkpt>
      <trkpt lat="43.58102" lon="3.74212">
        <ele>-1</ele>
        <time>1970-01-01T00:00:00Z</time>
      </trkpt>
      <trkpt lat="43.58145" lon="3.74239">
        <ele>-1</ele>
        <time>1970-01-01T00:00:00Z</time>
      </trkpt>
      <trkpt lat="43.58165" lon="3.74248">
        <ele>-1</ele>
        <time>1970-01-01T00:00:00Z</time>
      </trkpt>
      <trkpt lat="43.58182" lon="3.74238">
        <ele>-1</ele>
        <time>1970-01-01T00:00:00Z</time>
      </trkpt>
      <trkpt lat="43.58195" lon="3.74243">
        <ele>-1</ele>
        <time>1970-01-01T00:00:00Z</time>
      </trkpt>
      <trkpt lat="43.58206" lon="3.74263">
        <ele>-1</ele>
        <time>1970-01-01T00:00:00Z</time>
      </trkpt>
      <trkpt lat="43.58274" lon="3.74192">
        <ele>-1</ele>
        <time>1970-01-01T00:00:00Z</time>
      </trkpt>
      <trkpt lat="43.58324" lon="3.74123">
        <ele>-1</ele>
        <time>1970-01-01T00:00:00Z</time>
      </trkpt>
      <trkpt lat="43.58367" lon="3.74059">
        <ele>-1</ele>
        <time>1970-01-01T00:00:00Z</time>
      </trkpt>
      <trkpt lat="43.58375" lon="3.7403">
        <ele>-1</ele>
        <time>1970-01-01T00:00:00Z</time>
      </trkpt>
      <trkpt lat="43.5841" lon="3.73971">
        <ele>-1</ele>
        <time>1970-01-01T00:00:00Z</time>
      </trkpt>
      <trkpt lat="43.58427" lon="3.73866">
        <ele>-1</ele>
        <time>1970-01-01T00:00:00Z</time>
      </trkpt>
      <trkpt lat="43.58434" lon="3.73789">
        <ele>-1</ele>
        <time>1970-01-01T00:00:00Z</time>
      </trkpt>
      <trkpt lat="43.58533" lon="3.73614">
        <ele>-1</ele>
        <time>1970-01-01T00:00:00Z</time>
      </trkpt>
      <trkpt lat="43.58543" lon="3.73582">
        <ele>-1</ele>
        <time>1970-01-01T00:00:00Z</time>
      </trkpt>
      <trkpt lat="43.58633" lon="3.73617">
        <ele>-1</ele>
        <time>1970-01-01T00:00:00Z</time>
      </trkpt>
      <trkpt lat="43.58652" lon="3.73603">
        <ele>-1</ele>
        <time>1970-01-01T00:00:00Z</time>
      </trkpt>
      <trkpt lat="43.5868" lon="3.73625">
        <ele>-1</ele>
        <time>1970-01-01T00:00:00Z</time>
      </trkpt>
      <trkpt lat="43.58702" lon="3.73691">
        <ele>-1</ele>
        <time>1970-01-01T00:00:00Z</time>
      </trkpt>
      <trkpt lat="43.58719" lon="3.73679">
        <ele>-1</ele>
        <time>1970-01-01T00:00:00Z</time>
      </trkpt>
      <trkpt lat="43.58738" lon="3.73673">
        <ele>-1</ele>
        <time>1970-01-01T00:00:00Z</time>
      </trkpt>
      <trkpt lat="43.58748" lon="3.73663">
        <ele>-1</ele>
        <time>1970-01-01T00:00:00Z</time>
      </trkpt>
      <trkpt lat="43.58768" lon="3.73638">
        <ele>-1</ele>
        <time>1970-01-01T00:00:00Z</time>
      </trkpt>
      <trkpt lat="43.58787" lon="3.73635">
        <ele>-1</ele>
        <time>1970-01-01T00:00:00Z</time>
      </trkpt>
      <trkpt lat="43.58828" lon="3.736">
        <ele>-1</ele>
        <time>1970-01-01T00:00:00Z</time>
      </trkpt>
      <trkpt lat="43.58837" lon="3.73588">
        <ele>-1</ele>
        <time>1970-01-01T00:00:00Z</time>
      </trkpt>
      <trkpt lat="43.58862" lon="3.73565">
        <ele>-1</ele>
        <time>1970-01-01T00:00:00Z</time>
      </trkpt>
      <trkpt lat="43.58875" lon="3.73561">
        <ele>-1</ele>
        <time>1970-01-01T00:00:00Z</time>
      </trkpt>
      <trkpt lat="43.58883" lon="3.7357">
        <ele>-1</ele>
        <time>1970-01-01T00:00:00Z</time>
      </trkpt>
      <trkpt lat="43.58895" lon="3.73557">
        <ele>-1</ele>
        <time>1970-01-01T00:00:00Z</time>
      </trkpt>
      <trkpt lat="43.58922" lon="3.73497">
        <ele>-1</ele>
        <time>1970-01-01T00:00:00Z</time>
      </trkpt>
      <trkpt lat="43.58954" lon="3.73457">
        <ele>-1</ele>
        <time>1970-01-01T00:00:00Z</time>
      </trkpt>
      <trkpt lat="43.58987" lon="3.73434">
        <ele>-1</ele>
        <time>1970-01-01T00:00:00Z</time>
      </trkpt>
      <trkpt lat="43.59036" lon="3.73432">
        <ele>-1</ele>
        <time>1970-01-01T00:00:00Z</time>
      </trkpt>
      <trkpt lat="43.59079" lon="3.73415">
        <ele>-1</ele>
        <time>1970-01-01T00:00:00Z</time>
      </trkpt>
      <trkpt lat="43.59172" lon="3.73356">
        <ele>-1</ele>
        <time>1970-01-01T00:00:00Z</time>
      </trkpt>
      <trkpt lat="43.59221" lon="3.73317">
        <ele>-1</ele>
        <time>1970-01-01T00:00:00Z</time>
      </trkpt>
      <trkpt lat="43.59254" lon="3.73246">
        <ele>-1</ele>
        <time>1970-01-01T00:00:00Z</time>
      </trkpt>
      <trkpt lat="43.59294" lon="3.7317">
        <ele>-1</ele>
        <time>1970-01-01T00:00:00Z</time>
      </trkpt>
      <trkpt lat="43.59295" lon="3.73168">
        <ele>-1</ele>
        <time>1970-01-01T00:00:00Z</time>
      </trkpt>
      <trkpt lat="43.59297" lon="3.73141">
        <ele>-1</ele>
        <time>1970-01-01T00:00:00Z</time>
      </trkpt>
      <trkpt lat="43.59312" lon="3.73132">
        <ele>-1</ele>
        <time>1970-01-01T00:00:00Z</time>
      </trkpt>
      <trkpt lat="43.59385" lon="3.73118">
        <ele>-1</ele>
        <time>1970-01-01T00:00:00Z</time>
      </trkpt>
      <trkpt lat="43.59539" lon="3.73034">
        <ele>-1</ele>
        <time>1970-01-01T00:00:00Z</time>
      </trkpt>
      <trkpt lat="43.59628" lon="3.73067">
        <ele>-1</ele>
        <time>1970-01-01T00:00:00Z</time>
      </trkpt>
      <trkpt lat="43.59683" lon="3.73028">
        <ele>-1</ele>
        <time>1970-01-01T00:00:00Z</time>
      </trkpt>
      <trkpt lat="43.59719" lon="3.73034">
        <ele>-1</ele>
        <time>1970-01-01T00:00:00Z</time>
      </trkpt>
      <trkpt lat="43.59779" lon="3.73065">
        <ele>-1</ele>
        <time>1970-01-01T00:00:00Z</time>
      </trkpt>
      <trkpt lat="43.59832" lon="3.73047">
        <ele>-1</ele>
        <time>1970-01-01T00:00:00Z</time>
      </trkpt>
      <trkpt lat="43.5985" lon="3.7302">
        <ele>-1</ele>
        <time>1970-01-01T00:00:00Z</time>
      </trkpt>
      <trkpt lat="43.59904" lon="3.72891">
        <ele>-1</ele>
        <time>1970-01-01T00:00:00Z</time>
      </trkpt>
      <trkpt lat="43.59929" lon="3.72846">
        <ele>-1</ele>
        <time>1970-01-01T00:00:00Z</time>
      </trkpt>
      <trkpt lat="43.59968" lon="3.72772">
        <ele>-1</ele>
        <time>1970-01-01T00:00:00Z</time>
      </trkpt>
      <trkpt lat="43.59988" lon="3.72745">
        <ele>-1</ele>
        <time>1970-01-01T00:00:00Z</time>
      </trkpt>
      <trkpt lat="43.5999" lon="3.72743">
        <ele>-1</ele>
        <time>1970-01-01T00:00:00Z</time>
      </trkpt>
      <trkpt lat="43.59999" lon="3.72716">
        <ele>-1</ele>
        <time>1970-01-01T00:00:00Z</time>
      </trkpt>
      <trkpt lat="43.60024" lon="3.72713">
        <ele>-1</ele>
        <time>1970-01-01T00:00:00Z</time>
      </trkpt>
      <trkpt lat="43.60057" lon="3.72765">
        <ele>-1</ele>
        <time>1970-01-01T00:00:00Z</time>
      </trkpt>
      <trkpt lat="43.60113" lon="3.72735">
        <ele>-1</ele>
        <time>1970-01-01T00:00:00Z</time>
      </trkpt>
      <trkpt lat="43.60165" lon="3.72663">
        <ele>-1</ele>
        <time>1970-01-01T00:00:00Z</time>
      </trkpt>
      <trkpt lat="43.60275" lon="3.7256">
        <ele>-1</ele>
        <time>1970-01-01T00:00:00Z</time>
      </trkpt>
      <trkpt lat="43.60307" lon="3.72545">
        <ele>-1</ele>
        <time>1970-01-01T00:00:00Z</time>
      </trkpt>
      <trkpt lat="43.60348" lon="3.72509">
        <ele>-1</ele>
        <time>1970-01-01T00:00:00Z</time>
      </trkpt>
      <trkpt lat="43.60452" lon="3.72444">
        <ele>-1</ele>
        <time>1970-01-01T00:00:00Z</time>
      </trkpt>
      <trkpt lat="43.60551" lon="3.72226">
        <ele>-1</ele>
        <time>1970-01-01T00:00:00Z</time>
      </trkpt>
      <trkpt lat="43.60569" lon="3.72161">
        <ele>-1</ele>
        <time>1970-01-01T00:00:00Z</time>
      </trkpt>
      <trkpt lat="43.60596" lon="3.72083">
        <ele>-1</ele>
        <time>1970-01-01T00:00:00Z</time>
      </trkpt>
      <trkpt lat="43.60599" lon="3.72086">
        <ele>-1</ele>
        <time>1970-01-01T00:00:00Z</time>
      </trkpt>
      <trkpt lat="43.60622" lon="3.72108">
        <ele>-1</ele>
        <time>1970-01-01T00:00:00Z</time>
      </trkpt>
      <trkpt lat="43.60648" lon="3.72121">
        <ele>-1</ele>
        <time>1970-01-01T00:00:00Z</time>
      </trkpt>
      <trkpt lat="43.6065" lon="3.72123">
        <ele>-1</ele>
        <time>1970-01-01T00:00:00Z</time>
      </trkpt>
      <trkpt lat="43.60669" lon="3.72177">
        <ele>-1</ele>
        <time>1970-01-01T00:00:00Z</time>
      </trkpt>
      <trkpt lat="43.6068" lon="3.72199">
        <ele>-1</ele>
        <time>1970-01-01T00:00:00Z</time>
      </trkpt>
      <trkpt lat="43.60691" lon="3.72235">
        <ele>-1</ele>
        <time>1970-01-01T00:00:00Z</time>
      </trkpt>
      <trkpt lat="43.60707" lon="3.72244">
        <ele>-1</ele>
        <time>1970-01-01T00:00:00Z</time>
      </trkpt>
      <trkpt lat="43.6072" lon="3.72233">
        <ele>-1</ele>
        <time>1970-01-01T00:00:00Z</time>
      </trkpt>
      <trkpt lat="43.6072" lon="3.72183">
        <ele>-1</ele>
        <time>1970-01-01T00:00:00Z</time>
      </trkpt>
      <trkpt lat="43.60717" lon="3.72113">
        <ele>-1</ele>
        <time>1970-01-01T00:00:00Z</time>
      </trkpt>
      <trkpt lat="43.60717" lon="3.7211">
        <ele>-1</ele>
        <time>1970-01-01T00:00:00Z</time>
      </trkpt>
      <trkpt lat="43.60724" lon="3.72054">
        <ele>-1</ele>
        <time>1970-01-01T00:00:00Z</time>
      </trkpt>
      <trkpt lat="43.60714" lon="3.72013">
        <ele>-1</ele>
        <time>1970-01-01T00:00:00Z</time>
      </trkpt>
      <trkpt lat="43.60683" lon="3.71966">
        <ele>-1</ele>
        <time>1970-01-01T00:00:00Z</time>
      </trkpt>
      <trkpt lat="43.60661" lon="3.71824">
        <ele>-1</ele>
        <time>1970-01-01T00:00:00Z</time>
      </trkpt>
      <trkpt lat="43.60672" lon="3.71805">
        <ele>-1</ele>
        <time>1970-01-01T00:00:00Z</time>
      </trkpt>
      <trkpt lat="43.60726" lon="3.71774">
        <ele>-1</ele>
        <time>1970-01-01T00:00:00Z</time>
      </trkpt>
      <trkpt lat="43.60753" lon="3.71717">
        <ele>-1</ele>
        <time>1970-01-01T00:00:00Z</time>
      </trkpt>
      <trkpt lat="43.60857" lon="3.717">
        <ele>-1</ele>
        <time>1970-01-01T00:00:00Z</time>
      </trkpt>
      <trkpt lat="43.60861" lon="3.7156">
        <ele>-1</ele>
        <time>1970-01-01T00:00:00Z</time>
      </trkpt>
      <trkpt lat="43.60855" lon="3.71508">
        <ele>-1</ele>
        <time>1970-01-01T00:00:00Z</time>
      </trkpt>
      <trkpt lat="43.60843" lon="3.71447">
        <ele>-1</ele>
        <time>1970-01-01T00:00:00Z</time>
      </trkpt>
      <trkpt lat="43.6085" lon="3.71317">
        <ele>-1</ele>
        <time>1970-01-01T00:00:00Z</time>
      </trkpt>
      <trkpt lat="43.60852" lon="3.7124">
        <ele>-1</ele>
        <time>1970-01-01T00:00:00Z</time>
      </trkpt>
      <trkpt lat="43.60843" lon="3.71207">
        <ele>-1</ele>
        <time>1970-01-01T00:00:00Z</time>
      </trkpt>
      <trkpt lat="43.60845" lon="3.71177">
        <ele>-1</ele>
        <time>1970-01-01T00:00:00Z</time>
      </trkpt>
      <trkpt lat="43.60845" lon="3.71176">
        <ele>-1</ele>
        <time>1970-01-01T00:00:00Z</time>
      </trkpt>
      <trkpt lat="43.60851" lon="3.71051">
        <ele>-1</ele>
        <time>1970-01-01T00:00:00Z</time>
      </trkpt>
      <trkpt lat="43.60852" lon="3.71049">
        <ele>-1</ele>
        <time>1970-01-01T00:00:00Z</time>
      </trkpt>
      <trkpt lat="43.60906" lon="3.70957">
        <ele>-1</ele>
        <time>1970-01-01T00:00:00Z</time>
      </trkpt>
      <trkpt lat="43.61003" lon="3.70929">
        <ele>-1</ele>
        <time>1970-01-01T00:00:00Z</time>
      </trkpt>
      <trkpt lat="43.61007" lon="3.7093">
        <ele>-1</ele>
        <time>1970-01-01T00:00:00Z</time>
      </trkpt>
      <trkpt lat="43.61135" lon="3.70964">
        <ele>-1</ele>
        <time>1970-01-01T00:00:00Z</time>
      </trkpt>
      <trkpt lat="43.61267" lon="3.70973">
        <ele>-1</ele>
        <time>1970-01-01T00:00:00Z</time>
      </trkpt>
      <trkpt lat="43.61294" lon="3.70983">
        <ele>-1</ele>
        <time>1970-01-01T00:00:00Z</time>
      </trkpt>
      <trkpt lat="43.61352" lon="3.70896">
        <ele>-1</ele>
        <time>1970-01-01T00:00:00Z</time>
      </trkpt>
      <trkpt lat="43.61353" lon="3.70895">
        <ele>-1</ele>
        <time>1970-01-01T00:00:00Z</time>
      </trkpt>
      <trkpt lat="43.61392" lon="3.7084">
        <ele>-1</ele>
        <time>1970-01-01T00:00:00Z</time>
      </trkpt>
      <trkpt lat="43.61608" lon="3.70555">
        <ele>-1</ele>
        <time>1970-01-01T00:00:00Z</time>
      </trkpt>
      <trkpt lat="43.61816" lon="3.70431">
        <ele>-1</ele>
        <time>1970-01-01T00:00:00Z</time>
      </trkpt>
      <trkpt lat="43.61899" lon="3.70265">
        <ele>-1</ele>
        <time>1970-01-01T00:00:00Z</time>
      </trkpt>
      <trkpt lat="43.61995" lon="3.70027">
        <ele>-1</ele>
        <time>1970-01-01T00:00:00Z</time>
      </trkpt>
      <trkpt lat="43.61991" lon="3.70011">
        <ele>-1</ele>
        <time>1970-01-01T00:00:00Z</time>
      </trkpt>
      <trkpt lat="43.62142" lon="3.69718">
        <ele>-1</ele>
        <time>1970-01-01T00:00:00Z</time>
      </trkpt>
      <trkpt lat="43.62256" lon="3.69649">
        <ele>-1</ele>
        <time>1970-01-01T00:00:00Z</time>
      </trkpt>
      <trkpt lat="43.62379" lon="3.69522">
        <ele>-1</ele>
        <time>1970-01-01T00:00:00Z</time>
      </trkpt>
      <trkpt lat="43.62467" lon="3.69358">
        <ele>-1</ele>
        <time>1970-01-01T00:00:00Z</time>
      </trkpt>
      <trkpt lat="43.62565" lon="3.69255">
        <ele>-1</ele>
        <time>1970-01-01T00:00:00Z</time>
      </trkpt>
      <trkpt lat="43.6259" lon="3.69245">
        <ele>-1</ele>
        <time>1970-01-01T00:00:00Z</time>
      </trkpt>
      <trkpt lat="43.62608" lon="3.69244">
        <ele>-1</ele>
        <time>1970-01-01T00:00:00Z</time>
      </trkpt>
      <trkpt lat="43.62617" lon="3.69211">
        <ele>-1</ele>
        <time>1970-01-01T00:00:00Z</time>
      </trkpt>
      <trkpt lat="43.62617" lon="3.6921">
        <ele>-1</ele>
        <time>1970-01-01T00:00:00Z</time>
      </trkpt>
      <trkpt lat="43.62747" lon="3.68989">
        <ele>-1</ele>
        <time>1970-01-01T00:00:00Z</time>
      </trkpt>
      <trkpt lat="43.62798" lon="3.68938">
        <ele>-1</ele>
        <time>1970-01-01T00:00:00Z</time>
      </trkpt>
      <trkpt lat="43.62813" lon="3.68932">
        <ele>-1</ele>
        <time>1970-01-01T00:00:00Z</time>
      </trkpt>
      <trkpt lat="43.62827" lon="3.68909">
        <ele>-1</ele>
        <time>1970-01-01T00:00:00Z</time>
      </trkpt>
      <trkpt lat="43.62869" lon="3.68995">
        <ele>-1</ele>
        <time>1970-01-01T00:00:00Z</time>
      </trkpt>
      <trkpt lat="43.62914" lon="3.68928">
        <ele>-1</ele>
        <time>1970-01-01T00:00:00Z</time>
      </trkpt>
      <trkpt lat="43.62916" lon="3.68904">
        <ele>-1</ele>
        <time>1970-01-01T00:00:00Z</time>
      </trkpt>
      <trkpt lat="43.62887" lon="3.68817">
        <ele>-1</ele>
        <time>1970-01-01T00:00:00Z</time>
      </trkpt>
      <trkpt lat="43.62888" lon="3.68799">
        <ele>-1</ele>
        <time>1970-01-01T00:00:00Z</time>
      </trkpt>
      <trkpt lat="43.62943" lon="3.68683">
        <ele>-1</ele>
        <time>1970-01-01T00:00:00Z</time>
      </trkpt>
      <trkpt lat="43.62971" lon="3.68632">
        <ele>-1</ele>
        <time>1970-01-01T00:00:00Z</time>
      </trkpt>
      <trkpt lat="43.6297" lon="3.68465">
        <ele>-1</ele>
        <time>1970-01-01T00:00:00Z</time>
      </trkpt>
      <trkpt lat="43.6294" lon="3.68296">
        <ele>-1</ele>
        <time>1970-01-01T00:00:00Z</time>
      </trkpt>
      <trkpt lat="43.6295" lon="3.68277">
        <ele>-1</ele>
        <time>1970-01-01T00:00:00Z</time>
      </trkpt>
      <trkpt lat="43.62966" lon="3.68282">
        <ele>-1</ele>
        <time>1970-01-01T00:00:00Z</time>
      </trkpt>
      <trkpt lat="43.63071" lon="3.68286">
        <ele>-1</ele>
        <time>1970-01-01T00:00:00Z</time>
      </trkpt>
      <trkpt lat="43.6313" lon="3.68233">
        <ele>-1</ele>
        <time>1970-01-01T00:00:00Z</time>
      </trkpt>
      <trkpt lat="43.6316" lon="3.68204">
        <ele>-1</ele>
        <time>1970-01-01T00:00:00Z</time>
      </trkpt>
      <trkpt lat="43.63205" lon="3.68163">
        <ele>-1</ele>
        <time>1970-01-01T00:00:00Z</time>
      </trkpt>
      <trkpt lat="43.63216" lon="3.68046">
        <ele>-1</ele>
        <time>1970-01-01T00:00:00Z</time>
      </trkpt>
      <trkpt lat="43.63195" lon="3.67858">
        <ele>-1</ele>
        <time>1970-01-01T00:00:00Z</time>
      </trkpt>
      <trkpt lat="43.63166" lon="3.6782">
        <ele>-1</ele>
        <time>1970-01-01T00:00:00Z</time>
      </trkpt>
      <trkpt lat="43.6315" lon="3.67634">
        <ele>-1</ele>
        <time>1970-01-01T00:00:00Z</time>
      </trkpt>
      <trkpt lat="43.63135" lon="3.67471">
        <ele>-1</ele>
        <time>1970-01-01T00:00:00Z</time>
      </trkpt>
      <trkpt lat="43.63106" lon="3.6743">
        <ele>-1</ele>
        <time>1970-01-01T00:00:00Z</time>
      </trkpt>
      <trkpt lat="43.63039" lon="3.6737">
        <ele>-1</ele>
        <time>1970-01-01T00:00:00Z</time>
      </trkpt>
      <trkpt lat="43.63067" lon="3.6727">
        <ele>-1</ele>
        <time>1970-01-01T00:00:00Z</time>
      </trkpt>
      <trkpt lat="43.63152" lon="3.67241">
        <ele>-1</ele>
        <time>1970-01-01T00:00:00Z</time>
      </trkpt>
      <trkpt lat="43.6318" lon="3.67243">
        <ele>-1</ele>
        <time>1970-01-01T00:00:00Z</time>
      </trkpt>
      <trkpt lat="43.63199" lon="3.67244">
        <ele>-1</ele>
        <time>1970-01-01T00:00:00Z</time>
      </trkpt>
      <trkpt lat="43.63263" lon="3.67197">
        <ele>-1</ele>
        <time>1970-01-01T00:00:00Z</time>
      </trkpt>
      <trkpt lat="43.63313" lon="3.67201">
        <ele>-1</ele>
        <time>1970-01-01T00:00:00Z</time>
      </trkpt>
      <trkpt lat="43.63378" lon="3.67161">
        <ele>-1</ele>
        <time>1970-01-01T00:00:00Z</time>
      </trkpt>
      <trkpt lat="43.63392" lon="3.67198">
        <ele>-1</ele>
        <time>1970-01-01T00:00:00Z</time>
      </trkpt>
      <trkpt lat="43.6349" lon="3.67228">
        <ele>-1</ele>
        <time>1970-01-01T00:00:00Z</time>
      </trkpt>
      <trkpt lat="43.6356" lon="3.67345">
        <ele>-1</ele>
        <time>1970-01-01T00:00:00Z</time>
      </trkpt>
      <trkpt lat="43.63595" lon="3.67351">
        <ele>-1</ele>
        <time>1970-01-01T00:00:00Z</time>
      </trkpt>
      <trkpt lat="43.63697" lon="3.67424">
        <ele>-1</ele>
        <time>1970-01-01T00:00:00Z</time>
      </trkpt>
      <trkpt lat="43.63754" lon="3.67546">
        <ele>-1</ele>
        <time>1970-01-01T00:00:00Z</time>
      </trkpt>
      <trkpt lat="43.63796" lon="3.67561">
        <ele>-1</ele>
        <time>1970-01-01T00:00:00Z</time>
      </trkpt>
      <trkpt lat="43.63823" lon="3.67606">
        <ele>-1</ele>
        <time>1970-01-01T00:00:00Z</time>
      </trkpt>
      <trkpt lat="43.63899" lon="3.67668">
        <ele>-1</ele>
        <time>1970-01-01T00:00:00Z</time>
      </trkpt>
      <trkpt lat="43.64017" lon="3.67622">
        <ele>-1</ele>
        <time>1970-01-01T00:00:00Z</time>
      </trkpt>
      <trkpt lat="43.6404" lon="3.67604">
        <ele>-1</ele>
        <time>1970-01-01T00:00:00Z</time>
      </trkpt>
      <trkpt lat="43.64147" lon="3.67613">
        <ele>-1</ele>
        <time>1970-01-01T00:00:00Z</time>
      </trkpt>
      <trkpt lat="43.64231" lon="3.67645">
        <ele>-1</ele>
        <time>1970-01-01T00:00:00Z</time>
      </trkpt>
      <trkpt lat="43.64288" lon="3.67649">
        <ele>-1</ele>
        <time>1970-01-01T00:00:00Z</time>
      </trkpt>
      <trkpt lat="43.64417" lon="3.6767">
        <ele>-1</ele>
        <time>1970-01-01T00:00:00Z</time>
      </trkpt>
      <trkpt lat="43.64418" lon="3.67569">
        <ele>-1</ele>
        <time>1970-01-01T00:00:00Z</time>
      </trkpt>
      <trkpt lat="43.64392" lon="3.67526">
        <ele>-1</ele>
        <time>1970-01-01T00:00:00Z</time>
      </trkpt>
      <trkpt lat="43.6439" lon="3.6747">
        <ele>-1</ele>
        <time>1970-01-01T00:00:00Z</time>
      </trkpt>
      <trkpt lat="43.644" lon="3.67396">
        <ele>-1</ele>
        <time>1970-01-01T00:00:00Z</time>
      </trkpt>
      <trkpt lat="43.64508" lon="3.67318">
        <ele>-1</ele>
        <time>1970-01-01T00:00:00Z</time>
      </trkpt>
      <trkpt lat="43.64533" lon="3.6727">
        <ele>-1</ele>
        <time>1970-01-01T00:00:00Z</time>
      </trkpt>
      <trkpt lat="43.64538" lon="3.67248">
        <ele>-1</ele>
        <time>1970-01-01T00:00:00Z</time>
      </trkpt>
      <trkpt lat="43.64546" lon="3.67206">
        <ele>-1</ele>
        <time>1970-01-01T00:00:00Z</time>
      </trkpt>
      <trkpt lat="43.64571" lon="3.67169">
        <ele>-1</ele>
        <time>1970-01-01T00:00:00Z</time>
      </trkpt>
      <trkpt lat="43.64612" lon="3.67074">
        <ele>-1</ele>
        <time>1970-01-01T00:00:00Z</time>
      </trkpt>
      <trkpt lat="43.64692" lon="3.66991">
        <ele>-1</ele>
        <time>1970-01-01T00:00:00Z</time>
      </trkpt>
      <trkpt lat="43.6472" lon="3.66941">
        <ele>-1</ele>
        <time>1970-01-01T00:00:00Z</time>
      </trkpt>
      <trkpt lat="43.64743" lon="3.66849">
        <ele>-1</ele>
        <time>1970-01-01T00:00:00Z</time>
      </trkpt>
      <trkpt lat="43.64819" lon="3.66772">
        <ele>-1</ele>
        <time>1970-01-01T00:00:00Z</time>
      </trkpt>
      <trkpt lat="43.64855" lon="3.66712">
        <ele>-1</ele>
        <time>1970-01-01T00:00:00Z</time>
      </trkpt>
      <trkpt lat="43.64857" lon="3.66686">
        <ele>-1</ele>
        <time>1970-01-01T00:00:00Z</time>
      </trkpt>
      <trkpt lat="43.64861" lon="3.66636">
        <ele>-1</ele>
        <time>1970-01-01T00:00:00Z</time>
      </trkpt>
      <trkpt lat="43.64854" lon="3.66605">
        <ele>-1</ele>
        <time>1970-01-01T00:00:00Z</time>
      </trkpt>
      <trkpt lat="43.64837" lon="3.66573">
        <ele>-1</ele>
        <time>1970-01-01T00:00:00Z</time>
      </trkpt>
      <trkpt lat="43.64809" lon="3.66527">
        <ele>-1</ele>
        <time>1970-01-01T00:00:00Z</time>
      </trkpt>
      <trkpt lat="43.64783" lon="3.6645">
        <ele>-1</ele>
        <time>1970-01-01T00:00:00Z</time>
      </trkpt>
      <trkpt lat="43.6477" lon="3.6642">
        <ele>-1</ele>
        <time>1970-01-01T00:00:00Z</time>
      </trkpt>
      <trkpt lat="43.64727" lon="3.663">
        <ele>-1</ele>
        <time>1970-01-01T00:00:00Z</time>
      </trkpt>
      <trkpt lat="43.6476" lon="3.66235">
        <ele>-1</ele>
        <time>1970-01-01T00:00:00Z</time>
      </trkpt>
      <trkpt lat="43.64768" lon="3.66185">
        <ele>-1</ele>
        <time>1970-01-01T00:00:00Z</time>
      </trkpt>
      <trkpt lat="43.64764" lon="3.66128">
        <ele>-1</ele>
        <time>1970-01-01T00:00:00Z</time>
      </trkpt>
      <trkpt lat="43.64777" lon="3.66101">
        <ele>-1</ele>
        <time>1970-01-01T00:00:00Z</time>
      </trkpt>
      <trkpt lat="43.64789" lon="3.66037">
        <ele>-1</ele>
        <time>1970-01-01T00:00:00Z</time>
      </trkpt>
      <trkpt lat="43.64798" lon="3.65976">
        <ele>-1</ele>
        <time>1970-01-01T00:00:00Z</time>
      </trkpt>
      <trkpt lat="43.64793" lon="3.65964">
        <ele>-1</ele>
        <time>1970-01-01T00:00:00Z</time>
      </trkpt>
      <trkpt lat="43.64778" lon="3.65842">
        <ele>-1</ele>
        <time>1970-01-01T00:00:00Z</time>
      </trkpt>
      <trkpt lat="43.64728" lon="3.65763">
        <ele>-1</ele>
        <time>1970-01-01T00:00:00Z</time>
      </trkpt>
      <trkpt lat="43.64716" lon="3.657">
        <ele>-1</ele>
        <time>1970-01-01T00:00:00Z</time>
      </trkpt>
      <trkpt lat="43.64757" lon="3.65691">
        <ele>-1</ele>
        <time>1970-01-01T00:00:00Z</time>
      </trkpt>
      <trkpt lat="43.64771" lon="3.65696">
        <ele>-1</ele>
        <time>1970-01-01T00:00:00Z</time>
      </trkpt>
      <trkpt lat="43.64837" lon="3.65698">
        <ele>-1</ele>
        <time>1970-01-01T00:00:00Z</time>
      </trkpt>
      <trkpt lat="43.64864" lon="3.65706">
        <ele>-1</ele>
        <time>1970-01-01T00:00:00Z</time>
      </trkpt>
      <trkpt lat="43.64883" lon="3.65697">
        <ele>-1</ele>
        <time>1970-01-01T00:00:00Z</time>
      </trkpt>
      <trkpt lat="43.64914" lon="3.65705">
        <ele>-1</ele>
        <time>1970-01-01T00:00:00Z</time>
      </trkpt>
      <trkpt lat="43.64933" lon="3.65699">
        <ele>-1</ele>
        <time>1970-01-01T00:00:00Z</time>
      </trkpt>
      <trkpt lat="43.64968" lon="3.6571">
        <ele>-1</ele>
        <time>1970-01-01T00:00:00Z</time>
      </trkpt>
      <trkpt lat="43.64978" lon="3.65707">
        <ele>-1</ele>
        <time>1970-01-01T00:00:00Z</time>
      </trkpt>
      <trkpt lat="43.64996" lon="3.65698">
        <ele>-1</ele>
        <time>1970-01-01T00:00:00Z</time>
      </trkpt>
      <trkpt lat="43.65046" lon="3.65716">
        <ele>-1</ele>
        <time>1970-01-01T00:00:00Z</time>
      </trkpt>
      <trkpt lat="43.65058" lon="3.65729">
        <ele>-1</ele>
        <time>1970-01-01T00:00:00Z</time>
      </trkpt>
      <trkpt lat="43.65069" lon="3.65725">
        <ele>-1</ele>
        <time>1970-01-01T00:00:00Z</time>
      </trkpt>
      <trkpt lat="43.65082" lon="3.65727">
        <ele>-1</ele>
        <time>1970-01-01T00:00:00Z</time>
      </trkpt>
      <trkpt lat="43.65126" lon="3.65714">
        <ele>-1</ele>
        <time>1970-01-01T00:00:00Z</time>
      </trkpt>
      <trkpt lat="43.65164" lon="3.65692">
        <ele>-1</ele>
        <time>1970-01-01T00:00:00Z</time>
      </trkpt>
      <trkpt lat="43.65224" lon="3.6566">
        <ele>-1</ele>
        <time>1970-01-01T00:00:00Z</time>
      </trkpt>
      <trkpt lat="43.65263" lon="3.65663">
        <ele>-1</ele>
        <time>1970-01-01T00:00:00Z</time>
      </trkpt>
      <trkpt lat="43.65317" lon="3.65625">
        <ele>-1</ele>
        <time>1970-01-01T00:00:00Z</time>
      </trkpt>
      <trkpt lat="43.65325" lon="3.65614">
        <ele>-1</ele>
        <time>1970-01-01T00:00:00Z</time>
      </trkpt>
      <trkpt lat="43.6534" lon="3.65597">
        <ele>-1</ele>
        <time>1970-01-01T00:00:00Z</time>
      </trkpt>
      <trkpt lat="43.65342" lon="3.65596">
        <ele>-1</ele>
        <time>1970-01-01T00:00:00Z</time>
      </trkpt>
      <trkpt lat="43.65355" lon="3.65584">
        <ele>-1</ele>
        <time>1970-01-01T00:00:00Z</time>
      </trkpt>
      <trkpt lat="43.65368" lon="3.65566">
        <ele>-1</ele>
        <time>1970-01-01T00:00:00Z</time>
      </trkpt>
      <trkpt lat="43.65386" lon="3.65555">
        <ele>-1</ele>
        <time>1970-01-01T00:00:00Z</time>
      </trkpt>
      <trkpt lat="43.65401" lon="3.65555">
        <ele>-1</ele>
        <time>1970-01-01T00:00:00Z</time>
      </trkpt>
      <trkpt lat="43.65416" lon="3.65538">
        <ele>-1</ele>
        <time>1970-01-01T00:00:00Z</time>
      </trkpt>
      <trkpt lat="43.65424" lon="3.65535">
        <ele>-1</ele>
        <time>1970-01-01T00:00:00Z</time>
      </trkpt>
      <trkpt lat="43.65453" lon="3.65522">
        <ele>-1</ele>
        <time>1970-01-01T00:00:00Z</time>
      </trkpt>
      <trkpt lat="43.65475" lon="3.6551">
        <ele>-1</ele>
        <time>1970-01-01T00:00:00Z</time>
      </trkpt>
      <trkpt lat="43.65533" lon="3.6553">
        <ele>-1</ele>
        <time>1970-01-01T00:00:00Z</time>
      </trkpt>
      <trkpt lat="43.65543" lon="3.6553">
        <ele>-1</ele>
        <time>1970-01-01T00:00:00Z</time>
      </trkpt>
      <trkpt lat="43.65563" lon="3.6552">
        <ele>-1</ele>
        <time>1970-01-01T00:00:00Z</time>
      </trkpt>
      <trkpt lat="43.65547" lon="3.65295">
        <ele>-1</ele>
        <time>1970-01-01T00:00:00Z</time>
      </trkpt>
      <trkpt lat="43.65557" lon="3.65222">
        <ele>-1</ele>
        <time>1970-01-01T00:00:00Z</time>
      </trkpt>
      <trkpt lat="43.65565" lon="3.65182">
        <ele>-1</ele>
        <time>1970-01-01T00:00:00Z</time>
      </trkpt>
      <trkpt lat="43.6559" lon="3.65182">
        <ele>-1</ele>
        <time>1970-01-01T00:00:00Z</time>
      </trkpt>
      <trkpt lat="43.65592" lon="3.65161">
        <ele>-1</ele>
        <time>1970-01-01T00:00:00Z</time>
      </trkpt>
      <trkpt lat="43.65547" lon="3.6513">
        <ele>-1</ele>
        <time>1970-01-01T00:00:00Z</time>
      </trkpt>
      <trkpt lat="43.65538" lon="3.65082">
        <ele>-1</ele>
        <time>1970-01-01T00:00:00Z</time>
      </trkpt>
      <trkpt lat="43.6554" lon="3.65052">
        <ele>-1</ele>
        <time>1970-01-01T00:00:00Z</time>
      </trkpt>
      <trkpt lat="43.65539" lon="3.65025">
        <ele>-1</ele>
        <time>1970-01-01T00:00:00Z</time>
      </trkpt>
      <trkpt lat="43.65572" lon="3.65003">
        <ele>-1</ele>
        <time>1970-01-01T00:00:00Z</time>
      </trkpt>
      <trkpt lat="43.65621" lon="3.65015">
        <ele>-1</ele>
        <time>1970-01-01T00:00:00Z</time>
      </trkpt>
      <trkpt lat="43.65681" lon="3.64949">
        <ele>-1</ele>
        <time>1970-01-01T00:00:00Z</time>
      </trkpt>
      <trkpt lat="43.65736" lon="3.6479">
        <ele>-1</ele>
        <time>1970-01-01T00:00:00Z</time>
      </trkpt>
      <trkpt lat="43.65711" lon="3.64762">
        <ele>-1</ele>
        <time>1970-01-01T00:00:00Z</time>
      </trkpt>
      <trkpt lat="43.65731" lon="3.64699">
        <ele>-1</ele>
        <time>1970-01-01T00:00:00Z</time>
      </trkpt>
      <trkpt lat="43.65782" lon="3.64687">
        <ele>-1</ele>
        <time>1970-01-01T00:00:00Z</time>
      </trkpt>
      <trkpt lat="43.65797" lon="3.64659">
        <ele>-1</ele>
        <time>1970-01-01T00:00:00Z</time>
      </trkpt>
      <trkpt lat="43.65904" lon="3.64614">
        <ele>-1</ele>
        <time>1970-01-01T00:00:00Z</time>
      </trkpt>
      <trkpt lat="43.6592" lon="3.646">
        <ele>-1</ele>
        <time>1970-01-01T00:00:00Z</time>
      </trkpt>
      <trkpt lat="43.66024" lon="3.64533">
        <ele>-1</ele>
        <time>1970-01-01T00:00:00Z</time>
      </trkpt>
      <trkpt lat="43.66134" lon="3.64455">
        <ele>-1</ele>
        <time>1970-01-01T00:00:00Z</time>
      </trkpt>
      <trkpt lat="43.66181" lon="3.6441">
        <ele>-1</ele>
        <time>1970-01-01T00:00:00Z</time>
      </trkpt>
      <trkpt lat="43.66201" lon="3.64403">
        <ele>-1</ele>
        <time>1970-01-01T00:00:00Z</time>
      </trkpt>
      <trkpt lat="43.6624" lon="3.6437">
        <ele>-1</ele>
        <time>1970-01-01T00:00:00Z</time>
      </trkpt>
      <trkpt lat="43.66313" lon="3.64271">
        <ele>-1</ele>
        <time>1970-01-01T00:00:00Z</time>
      </trkpt>
      <trkpt lat="43.66592" lon="3.63886">
        <ele>-1</ele>
        <time>1970-01-01T00:00:00Z</time>
      </trkpt>
      <trkpt lat="43.66682" lon="3.63774">
        <ele>-1</ele>
        <time>1970-01-01T00:00:00Z</time>
      </trkpt>
      <trkpt lat="43.66735" lon="3.63724">
        <ele>-1</ele>
        <time>1970-01-01T00:00:00Z</time>
      </trkpt>
      <trkpt lat="43.66804" lon="3.63669">
        <ele>-1</ele>
        <time>1970-01-01T00:00:00Z</time>
      </trkpt>
      <trkpt lat="43.66901" lon="3.63619">
        <ele>-1</ele>
        <time>1970-01-01T00:00:00Z</time>
      </trkpt>
      <trkpt lat="43.67016" lon="3.63575">
        <ele>-1</ele>
        <time>1970-01-01T00:00:00Z</time>
      </trkpt>
      <trkpt lat="43.67128" lon="3.63568">
        <ele>-1</ele>
        <time>1970-01-01T00:00:00Z</time>
      </trkpt>
      <trkpt lat="43.67253" lon="3.63578">
        <ele>-1</ele>
        <time>1970-01-01T00:00:00Z</time>
      </trkpt>
      <trkpt lat="43.67371" lon="3.63598">
        <ele>-1</ele>
        <time>1970-01-01T00:00:00Z</time>
      </trkpt>
      <trkpt lat="43.67479" lon="3.63584">
        <ele>-1</ele>
        <time>1970-01-01T00:00:00Z</time>
      </trkpt>
      <trkpt lat="43.67578" lon="3.63536">
        <ele>-1</ele>
        <time>1970-01-01T00:00:00Z</time>
      </trkpt>
      <trkpt lat="43.67704" lon="3.63423">
        <ele>-1</ele>
        <time>1970-01-01T00:00:00Z</time>
      </trkpt>
      <trkpt lat="43.6779" lon="3.63322">
        <ele>-1</ele>
        <time>1970-01-01T00:00:00Z</time>
      </trkpt>
      <trkpt lat="43.6784" lon="3.63228">
        <ele>-1</ele>
        <time>1970-01-01T00:00:00Z</time>
      </trkpt>
      <trkpt lat="43.67907" lon="3.63065">
        <ele>-1</ele>
        <time>1970-01-01T00:00:00Z</time>
      </trkpt>
      <trkpt lat="43.67907" lon="3.63017">
        <ele>-1</ele>
        <time>1970-01-01T00:00:00Z</time>
      </trkpt>
      <trkpt lat="43.67944" lon="3.62988">
        <ele>-1</ele>
        <time>1970-01-01T00:00:00Z</time>
      </trkpt>
      <trkpt lat="43.68056" lon="3.62732">
        <ele>-1</ele>
        <time>1970-01-01T00:00:00Z</time>
      </trkpt>
      <trkpt lat="43.68173" lon="3.62475">
        <ele>-1</ele>
        <time>1970-01-01T00:00:00Z</time>
      </trkpt>
      <trkpt lat="43.68202" lon="3.62392">
        <ele>-1</ele>
        <time>1970-01-01T00:00:00Z</time>
      </trkpt>
      <trkpt lat="43.6828" lon="3.61935">
        <ele>-1</ele>
        <time>1970-01-01T00:00:00Z</time>
      </trkpt>
      <trkpt lat="43.68333" lon="3.61662">
        <ele>-1</ele>
        <time>1970-01-01T00:00:00Z</time>
      </trkpt>
      <trkpt lat="43.68389" lon="3.6155">
        <ele>-1</ele>
        <time>1970-01-01T00:00:00Z</time>
      </trkpt>
      <trkpt lat="43.68481" lon="3.61468">
        <ele>-1</ele>
        <time>1970-01-01T00:00:00Z</time>
      </trkpt>
      <trkpt lat="43.68604" lon="3.61436">
        <ele>-1</ele>
        <time>1970-01-01T00:00:00Z</time>
      </trkpt>
      <trkpt lat="43.68793" lon="3.61407">
        <ele>-1</ele>
        <time>1970-01-01T00:00:00Z</time>
      </trkpt>
      <trkpt lat="43.68864" lon="3.61369">
        <ele>-1</ele>
        <time>1970-01-01T00:00:00Z</time>
      </trkpt>
      <trkpt lat="43.68914" lon="3.61305">
        <ele>-1</ele>
        <time>1970-01-01T00:00:00Z</time>
      </trkpt>
      <trkpt lat="43.68952" lon="3.6122">
        <ele>-1</ele>
        <time>1970-01-01T00:00:00Z</time>
      </trkpt>
      <trkpt lat="43.68973" lon="3.61126">
        <ele>-1</ele>
        <time>1970-01-01T00:00:00Z</time>
      </trkpt>
      <trkpt lat="43.68957" lon="3.60965">
        <ele>-1</ele>
        <time>1970-01-01T00:00:00Z</time>
      </trkpt>
      <trkpt lat="43.68948" lon="3.6077">
        <ele>-1</ele>
        <time>1970-01-01T00:00:00Z</time>
      </trkpt>
      <trkpt lat="43.68965" lon="3.60667">
        <ele>-1</ele>
        <time>1970-01-01T00:00:00Z</time>
      </trkpt>
      <trkpt lat="43.69033" lon="3.60515">
        <ele>-1</ele>
        <time>1970-01-01T00:00:00Z</time>
      </trkpt>
      <trkpt lat="43.6905" lon="3.60431">
        <ele>-1</ele>
        <time>1970-01-01T00:00:00Z</time>
      </trkpt>
      <trkpt lat="43.6904" lon="3.60231">
        <ele>-1</ele>
        <time>1970-01-01T00:00:00Z</time>
      </trkpt>
      <trkpt lat="43.6898" lon="3.601">
        <ele>-1</ele>
        <time>1970-01-01T00:00:00Z</time>
      </trkpt>
      <trkpt lat="43.68945" lon="3.60078">
        <ele>-1</ele>
        <time>1970-01-01T00:00:00Z</time>
      </trkpt>
      <trkpt lat="43.68818" lon="3.60016">
        <ele>-1</ele>
        <time>1970-01-01T00:00:00Z</time>
      </trkpt>
      <trkpt lat="43.68788" lon="3.60004">
        <ele>-1</ele>
        <time>1970-01-01T00:00:00Z</time>
      </trkpt>
      <trkpt lat="43.68786" lon="3.59988">
        <ele>-1</ele>
        <time>1970-01-01T00:00:00Z</time>
      </trkpt>
      <trkpt lat="43.68793" lon="3.59978">
        <ele>-1</ele>
        <time>1970-01-01T00:00:00Z</time>
      </trkpt>
      <trkpt lat="43.68797" lon="3.59956">
        <ele>-1</ele>
        <time>1970-01-01T00:00:00Z</time>
      </trkpt>
      <trkpt lat="43.68792" lon="3.59946">
        <ele>-1</ele>
        <time>1970-01-01T00:00:00Z</time>
      </trkpt>
      <trkpt lat="43.68788" lon="3.59939">
        <ele>-1</ele>
        <time>1970-01-01T00:00:00Z</time>
      </trkpt>
      <trkpt lat="43.68776" lon="3.59928">
        <ele>-1</ele>
        <time>1970-01-01T00:00:00Z</time>
      </trkpt>
      <trkpt lat="43.68765" lon="3.59922">
        <ele>-1</ele>
        <time>1970-01-01T00:00:00Z</time>
      </trkpt>
      <trkpt lat="43.68763" lon="3.59886">
        <ele>-1</ele>
        <time>1970-01-01T00:00:00Z</time>
      </trkpt>
      <trkpt lat="43.68739" lon="3.59842">
        <ele>-1</ele>
        <time>1970-01-01T00:00:00Z</time>
      </trkpt>
      <trkpt lat="43.68737" lon="3.5982">
        <ele>-1</ele>
        <time>1970-01-01T00:00:00Z</time>
      </trkpt>
      <trkpt lat="43.68749" lon="3.59815">
        <ele>-1</ele>
        <time>1970-01-01T00:00:00Z</time>
      </trkpt>
      <trkpt lat="43.68741" lon="3.59797">
        <ele>-1</ele>
        <time>1970-01-01T00:00:00Z</time>
      </trkpt>
      <trkpt lat="43.68731" lon="3.59796">
        <ele>-1</ele>
        <time>1970-01-01T00:00:00Z</time>
      </trkpt>
      <trkpt lat="43.68712" lon="3.59792">
        <ele>-1</ele>
        <time>1970-01-01T00:00:00Z</time>
      </trkpt>
      <trkpt lat="43.68675" lon="3.59778">
        <ele>-1</ele>
        <time>1970-01-01T00:00:00Z</time>
      </trkpt>
      <trkpt lat="43.6866" lon="3.59775">
        <ele>-1</ele>
        <time>1970-01-01T00:00:00Z</time>
      </trkpt>
      <trkpt lat="43.68648" lon="3.59764">
        <ele>-1</ele>
        <time>1970-01-01T00:00:00Z</time>
      </trkpt>
      <trkpt lat="43.68638" lon="3.59761">
        <ele>-1</ele>
        <time>1970-01-01T00:00:00Z</time>
      </trkpt>
      <trkpt lat="43.68638" lon="3.59761">
        <ele>-1</ele>
        <time>1970-01-01T00:00:00Z</time>
      </trkpt>
      <trkpt lat="43.68626" lon="3.5976">
        <ele>-1</ele>
        <time>1970-01-01T00:00:00Z</time>
      </trkpt>
      <trkpt lat="43.68592" lon="3.59738">
        <ele>-1</ele>
        <time>1970-01-01T00:00:00Z</time>
      </trkpt>
      <trkpt lat="43.68548" lon="3.59634">
        <ele>-1</ele>
        <time>1970-01-01T00:00:00Z</time>
      </trkpt>
      <trkpt lat="43.68519" lon="3.59538">
        <ele>-1</ele>
        <time>1970-01-01T00:00:00Z</time>
      </trkpt>
      <trkpt lat="43.68495" lon="3.59505">
        <ele>-1</ele>
        <time>1970-01-01T00:00:00Z</time>
      </trkpt>
      <trkpt lat="43.6846" lon="3.59416">
        <ele>-1</ele>
        <time>1970-01-01T00:00:00Z</time>
      </trkpt>
      <trkpt lat="43.68485" lon="3.59375">
        <ele>-1</ele>
        <time>1970-01-01T00:00:00Z</time>
      </trkpt>
      <trkpt lat="43.68495" lon="3.59354">
        <ele>-1</ele>
        <time>1970-01-01T00:00:00Z</time>
      </trkpt>
      <trkpt lat="43.68476" lon="3.59291">
        <ele>-1</ele>
        <time>1970-01-01T00:00:00Z</time>
      </trkpt>
      <trkpt lat="43.68459" lon="3.58988">
        <ele>-1</ele>
        <time>1970-01-01T00:00:00Z</time>
      </trkpt>
      <trkpt lat="43.68514" lon="3.58868">
        <ele>-1</ele>
        <time>1970-01-01T00:00:00Z</time>
      </trkpt>
      <trkpt lat="43.68551" lon="3.58706">
        <ele>-1</ele>
        <time>1970-01-01T00:00:00Z</time>
      </trkpt>
      <trkpt lat="43.6857" lon="3.58622">
        <ele>-1</ele>
        <time>1970-01-01T00:00:00Z</time>
      </trkpt>
      <trkpt lat="43.68907" lon="3.58426">
        <ele>-1</ele>
        <time>1970-01-01T00:00:00Z</time>
      </trkpt>
      <trkpt lat="43.69023" lon="3.58363">
        <ele>-1</ele>
        <time>1970-01-01T00:00:00Z</time>
      </trkpt>
      <trkpt lat="43.69099" lon="3.58297">
        <ele>-1</ele>
        <time>1970-01-01T00:00:00Z</time>
      </trkpt>
      <trkpt lat="43.69214" lon="3.5823">
        <ele>-1</ele>
        <time>1970-01-01T00:00:00Z</time>
      </trkpt>
      <trkpt lat="43.69322" lon="3.58095">
        <ele>-1</ele>
        <time>1970-01-01T00:00:00Z</time>
      </trkpt>
      <trkpt lat="43.69357" lon="3.58017">
        <ele>-1</ele>
        <time>1970-01-01T00:00:00Z</time>
      </trkpt>
      <trkpt lat="43.69486" lon="3.57905">
        <ele>-1</ele>
        <time>1970-01-01T00:00:00Z</time>
      </trkpt>
      <trkpt lat="43.69403" lon="3.57735">
        <ele>-1</ele>
        <time>1970-01-01T00:00:00Z</time>
      </trkpt>
      <trkpt lat="43.69393" lon="3.57554">
        <ele>-1</ele>
        <time>1970-01-01T00:00:00Z</time>
      </trkpt>
      <trkpt lat="43.69404" lon="3.57471">
        <ele>-1</ele>
        <time>1970-01-01T00:00:00Z</time>
      </trkpt>
      <trkpt lat="43.69432" lon="3.57375">
        <ele>-1</ele>
        <time>1970-01-01T00:00:00Z</time>
      </trkpt>
      <trkpt lat="43.69416" lon="3.57287">
        <ele>-1</ele>
        <time>1970-01-01T00:00:00Z</time>
      </trkpt>
      <trkpt lat="43.69417" lon="3.57241">
        <ele>-1</ele>
        <time>1970-01-01T00:00:00Z</time>
      </trkpt>
      <trkpt lat="43.69453" lon="3.57119">
        <ele>-1</ele>
        <time>1970-01-01T00:00:00Z</time>
      </trkpt>
      <trkpt lat="43.69477" lon="3.57024">
        <ele>-1</ele>
        <time>1970-01-01T00:00:00Z</time>
      </trkpt>
      <trkpt lat="43.69474" lon="3.56989">
        <ele>-1</ele>
        <time>1970-01-01T00:00:00Z</time>
      </trkpt>
      <trkpt lat="43.69506" lon="3.56813">
        <ele>-1</ele>
        <time>1970-01-01T00:00:00Z</time>
      </trkpt>
      <trkpt lat="43.69459" lon="3.56668">
        <ele>-1</ele>
        <time>1970-01-01T00:00:00Z</time>
      </trkpt>
      <trkpt lat="43.69473" lon="3.56544">
        <ele>-1</ele>
        <time>1970-01-01T00:00:00Z</time>
      </trkpt>
      <trkpt lat="43.69475" lon="3.565">
        <ele>-1</ele>
        <time>1970-01-01T00:00:00Z</time>
      </trkpt>
      <trkpt lat="43.69507" lon="3.56425">
        <ele>-1</ele>
        <time>1970-01-01T00:00:00Z</time>
      </trkpt>
      <trkpt lat="43.69541" lon="3.56359">
        <ele>-1</ele>
        <time>1970-01-01T00:00:00Z</time>
      </trkpt>
      <trkpt lat="43.6957" lon="3.56342">
        <ele>-1</ele>
        <time>1970-01-01T00:00:00Z</time>
      </trkpt>
      <trkpt lat="43.69624" lon="3.56261">
        <ele>-1</ele>
        <time>1970-01-01T00:00:00Z</time>
      </trkpt>
      <trkpt lat="43.69668" lon="3.56194">
        <ele>-1</ele>
        <time>1970-01-01T00:00:00Z</time>
      </trkpt>
      <trkpt lat="43.69743" lon="3.56135">
        <ele>-1</ele>
        <time>1970-01-01T00:00:00Z</time>
      </trkpt>
      <trkpt lat="43.69771" lon="3.56097">
        <ele>-1</ele>
        <time>1970-01-01T00:00:00Z</time>
      </trkpt>
      <trkpt lat="43.69847" lon="3.56027">
        <ele>-1</ele>
        <time>1970-01-01T00:00:00Z</time>
      </trkpt>
      <trkpt lat="43.69857" lon="3.56007">
        <ele>-1</ele>
        <time>1970-01-01T00:00:00Z</time>
      </trkpt>
      <trkpt lat="43.69891" lon="3.55985">
        <ele>-1</ele>
        <time>1970-01-01T00:00:00Z</time>
      </trkpt>
      <trkpt lat="43.69905" lon="3.55974">
        <ele>-1</ele>
        <time>1970-01-01T00:00:00Z</time>
      </trkpt>
      <trkpt lat="43.69907" lon="3.55974">
        <ele>-1</ele>
        <time>1970-01-01T00:00:00Z</time>
      </trkpt>
      <trkpt lat="43.69935" lon="3.55969">
        <ele>-1</ele>
        <time>1970-01-01T00:00:00Z</time>
      </trkpt>
      <trkpt lat="43.69949" lon="3.55959">
        <ele>-1</ele>
        <time>1970-01-01T00:00:00Z</time>
      </trkpt>
      <trkpt lat="43.69959" lon="3.55949">
        <ele>-1</ele>
        <time>1970-01-01T00:00:00Z</time>
      </trkpt>
      <trkpt lat="43.69993" lon="3.55929">
        <ele>-1</ele>
        <time>1970-01-01T00:00:00Z</time>
      </trkpt>
      <trkpt lat="43.70022" lon="3.55908">
        <ele>-1</ele>
        <time>1970-01-01T00:00:00Z</time>
      </trkpt>
      <trkpt lat="43.70052" lon="3.55898">
        <ele>-1</ele>
        <time>1970-01-01T00:00:00Z</time>
      </trkpt>
      <trkpt lat="43.70086" lon="3.55881">
        <ele>-1</ele>
        <time>1970-01-01T00:00:00Z</time>
      </trkpt>
      <trkpt lat="43.70138" lon="3.55882">
        <ele>-1</ele>
        <time>1970-01-01T00:00:00Z</time>
      </trkpt>
      <trkpt lat="43.70162" lon="3.55885">
        <ele>-1</ele>
        <time>1970-01-01T00:00:00Z</time>
      </trkpt>
      <trkpt lat="43.70212" lon="3.55909">
        <ele>-1</ele>
        <time>1970-01-01T00:00:00Z</time>
      </trkpt>
      <trkpt lat="43.70242" lon="3.55916">
        <ele>-1</ele>
        <time>1970-01-01T00:00:00Z</time>
      </trkpt>
      <trkpt lat="43.70272" lon="3.55919">
        <ele>-1</ele>
        <time>1970-01-01T00:00:00Z</time>
      </trkpt>
      <trkpt lat="43.70274" lon="3.5592">
        <ele>-1</ele>
        <time>1970-01-01T00:00:00Z</time>
      </trkpt>
      <trkpt lat="43.70305" lon="3.55955">
        <ele>-1</ele>
        <time>1970-01-01T00:00:00Z</time>
      </trkpt>
      <trkpt lat="43.70376" lon="3.55991">
        <ele>-1</ele>
        <time>1970-01-01T00:00:00Z</time>
      </trkpt>
      <trkpt lat="43.7043" lon="3.5601">
        <ele>-1</ele>
        <time>1970-01-01T00:00:00Z</time>
      </trkpt>
      <trkpt lat="43.70474" lon="3.5603">
        <ele>-1</ele>
        <time>1970-01-01T00:00:00Z</time>
      </trkpt>
      <trkpt lat="43.70517" lon="3.56022">
        <ele>-1</ele>
        <time>1970-01-01T00:00:00Z</time>
      </trkpt>
      <trkpt lat="43.70558" lon="3.56009">
        <ele>-1</ele>
        <time>1970-01-01T00:00:00Z</time>
      </trkpt>
      <trkpt lat="43.70581" lon="3.56005">
        <ele>-1</ele>
        <time>1970-01-01T00:00:00Z</time>
      </trkpt>
      <trkpt lat="43.706" lon="3.56026">
        <ele>-1</ele>
        <time>1970-01-01T00:00:00Z</time>
      </trkpt>
      <trkpt lat="43.70611" lon="3.56056">
        <ele>-1</ele>
        <time>1970-01-01T00:00:00Z</time>
      </trkpt>
      <trkpt lat="43.70669" lon="3.55974">
        <ele>-1</ele>
        <time>1970-01-01T00:00:00Z</time>
      </trkpt>
      <trkpt lat="43.70709" lon="3.55915">
        <ele>-1</ele>
        <time>1970-01-01T00:00:00Z</time>
      </trkpt>
      <trkpt lat="43.70721" lon="3.55883">
        <ele>-1</ele>
        <time>1970-01-01T00:00:00Z</time>
      </trkpt>
      <trkpt lat="43.70726" lon="3.55862">
        <ele>-1</ele>
        <time>1970-01-01T00:00:00Z</time>
      </trkpt>
      <trkpt lat="43.70759" lon="3.55806">
        <ele>-1</ele>
        <time>1970-01-01T00:00:00Z</time>
      </trkpt>
      <trkpt lat="43.70771" lon="3.55778">
        <ele>-1</ele>
        <time>1970-01-01T00:00:00Z</time>
      </trkpt>
      <trkpt lat="43.7076" lon="3.5572">
        <ele>-1</ele>
        <time>1970-01-01T00:00:00Z</time>
      </trkpt>
      <trkpt lat="43.70748" lon="3.55695">
        <ele>-1</ele>
        <time>1970-01-01T00:00:00Z</time>
      </trkpt>
      <trkpt lat="43.70724" lon="3.55631">
        <ele>-1</ele>
        <time>1970-01-01T00:00:00Z</time>
      </trkpt>
      <trkpt lat="43.70687" lon="3.55591">
        <ele>-1</ele>
        <time>1970-01-01T00:00:00Z</time>
      </trkpt>
      <trkpt lat="43.7062" lon="3.55539">
        <ele>-1</ele>
        <time>1970-01-01T00:00:00Z</time>
      </trkpt>
      <trkpt lat="43.70557" lon="3.55539">
        <ele>-1</ele>
        <time>1970-01-01T00:00:00Z</time>
      </trkpt>
      <trkpt lat="43.7051" lon="3.55509">
        <ele>-1</ele>
        <time>1970-01-01T00:00:00Z</time>
      </trkpt>
      <trkpt lat="43.70453" lon="3.55458">
        <ele>-1</ele>
        <time>1970-01-01T00:00:00Z</time>
      </trkpt>
      <trkpt lat="43.70241" lon="3.55268">
        <ele>-1</ele>
        <time>1970-01-01T00:00:00Z</time>
      </trkpt>
      <trkpt lat="43.7023" lon="3.55249">
        <ele>-1</ele>
        <time>1970-01-01T00:00:00Z</time>
      </trkpt>
      <trkpt lat="43.70188" lon="3.55117">
        <ele>-1</ele>
        <time>1970-01-01T00:00:00Z</time>
      </trkpt>
      <trkpt lat="43.70149" lon="3.5502">
        <ele>-1</ele>
        <time>1970-01-01T00:00:00Z</time>
      </trkpt>
      <trkpt lat="43.70136" lon="3.54915">
        <ele>-1</ele>
        <time>1970-01-01T00:00:00Z</time>
      </trkpt>
      <trkpt lat="43.70148" lon="3.54877">
        <ele>-1</ele>
        <time>1970-01-01T00:00:00Z</time>
      </trkpt>
      <trkpt lat="43.7017" lon="3.54779">
        <ele>-1</ele>
        <time>1970-01-01T00:00:00Z</time>
      </trkpt>
      <trkpt lat="43.70164" lon="3.54646">
        <ele>-1</ele>
        <time>1970-01-01T00:00:00Z</time>
      </trkpt>
      <trkpt lat="43.70149" lon="3.5453">
        <ele>-1</ele>
        <time>1970-01-01T00:00:00Z</time>
      </trkpt>
      <trkpt lat="43.70168" lon="3.54459">
        <ele>-1</ele>
        <time>1970-01-01T00:00:00Z</time>
      </trkpt>
      <trkpt lat="43.7017" lon="3.54391">
        <ele>-1</ele>
        <time>1970-01-01T00:00:00Z</time>
      </trkpt>
      <trkpt lat="43.70157" lon="3.54321">
        <ele>-1</ele>
        <time>1970-01-01T00:00:00Z</time>
      </trkpt>
      <trkpt lat="43.70162" lon="3.54268">
        <ele>-1</ele>
        <time>1970-01-01T00:00:00Z</time>
      </trkpt>
      <trkpt lat="43.70158" lon="3.5417">
        <ele>-1</ele>
        <time>1970-01-01T00:00:00Z</time>
      </trkpt>
      <trkpt lat="43.70208" lon="3.54167">
        <ele>-1</ele>
        <time>1970-01-01T00:00:00Z</time>
      </trkpt>
      <trkpt lat="43.70225" lon="3.54156">
        <ele>-1</ele>
        <time>1970-01-01T00:00:00Z</time>
      </trkpt>
      <trkpt lat="43.70269" lon="3.54093">
        <ele>-1</ele>
        <time>1970-01-01T00:00:00Z</time>
      </trkpt>
      <trkpt lat="43.70287" lon="3.54045">
        <ele>-1</ele>
        <time>1970-01-01T00:00:00Z</time>
      </trkpt>
      <trkpt lat="43.70304" lon="3.54006">
        <ele>-1</ele>
        <time>1970-01-01T00:00:00Z</time>
      </trkpt>
      <trkpt lat="43.70313" lon="3.53881">
        <ele>-1</ele>
        <time>1970-01-01T00:00:00Z</time>
      </trkpt>
      <trkpt lat="43.70316" lon="3.5386">
        <ele>-1</ele>
        <time>1970-01-01T00:00:00Z</time>
      </trkpt>
      <trkpt lat="43.70337" lon="3.53823">
        <ele>-1</ele>
        <time>1970-01-01T00:00:00Z</time>
      </trkpt>
      <trkpt lat="43.70334" lon="3.53796">
        <ele>-1</ele>
        <time>1970-01-01T00:00:00Z</time>
      </trkpt>
      <trkpt lat="43.70297" lon="3.53743">
        <ele>-1</ele>
        <time>1970-01-01T00:00:00Z</time>
      </trkpt>
      <trkpt lat="43.70286" lon="3.537">
        <ele>-1</ele>
        <time>1970-01-01T00:00:00Z</time>
      </trkpt>
      <trkpt lat="43.70278" lon="3.53634">
        <ele>-1</ele>
        <time>1970-01-01T00:00:00Z</time>
      </trkpt>
      <trkpt lat="43.7027" lon="3.53587">
        <ele>-1</ele>
        <time>1970-01-01T00:00:00Z</time>
      </trkpt>
      <trkpt lat="43.70265" lon="3.53573">
        <ele>-1</ele>
        <time>1970-01-01T00:00:00Z</time>
      </trkpt>
      <trkpt lat="43.70263" lon="3.53545">
        <ele>-1</ele>
        <time>1970-01-01T00:00:00Z</time>
      </trkpt>
      <trkpt lat="43.70245" lon="3.53465">
        <ele>-1</ele>
        <time>1970-01-01T00:00:00Z</time>
      </trkpt>
      <trkpt lat="43.70244" lon="3.53464">
        <ele>-1</ele>
        <time>1970-01-01T00:00:00Z</time>
      </trkpt>
      <trkpt lat="43.70247" lon="3.53428">
        <ele>-1</ele>
        <time>1970-01-01T00:00:00Z</time>
      </trkpt>
      <trkpt lat="43.70256" lon="3.53428">
        <ele>-1</ele>
        <time>1970-01-01T00:00:00Z</time>
      </trkpt>
      <trkpt lat="43.70257" lon="3.53442">
        <ele>-1</ele>
        <time>1970-01-01T00:00:00Z</time>
      </trkpt>
      <trkpt lat="43.70254" lon="3.53457">
        <ele>-1</ele>
        <time>1970-01-01T00:00:00Z</time>
      </trkpt>
      <trkpt lat="43.70259" lon="3.53479">
        <ele>-1</ele>
        <time>1970-01-01T00:00:00Z</time>
      </trkpt>
      <trkpt lat="43.70281" lon="3.53524">
        <ele>-1</ele>
        <time>1970-01-01T00:00:00Z</time>
      </trkpt>
      <trkpt lat="43.70297" lon="3.53556">
        <ele>-1</ele>
        <time>1970-01-01T00:00:00Z</time>
      </trkpt>
      <trkpt lat="43.70308" lon="3.53611">
        <ele>-1</ele>
        <time>1970-01-01T00:00:00Z</time>
      </trkpt>
      <trkpt lat="43.70327" lon="3.53659">
        <ele>-1</ele>
        <time>1970-01-01T00:00:00Z</time>
      </trkpt>
      <trkpt lat="43.70362" lon="3.53692">
        <ele>-1</ele>
        <time>1970-01-01T00:00:00Z</time>
      </trkpt>
      <trkpt lat="43.70379" lon="3.53702">
        <ele>-1</ele>
        <time>1970-01-01T00:00:00Z</time>
      </trkpt>
      <trkpt lat="43.70396" lon="3.53703">
        <ele>-1</ele>
        <time>1970-01-01T00:00:00Z</time>
      </trkpt>
      <trkpt lat="43.70397" lon="3.53704">
        <ele>-1</ele>
        <time>1970-01-01T00:00:00Z</time>
      </trkpt>
      <trkpt lat="43.70405" lon="3.53717">
        <ele>-1</ele>
        <time>1970-01-01T00:00:00Z</time>
      </trkpt>
      <trkpt lat="43.70419" lon="3.53738">
        <ele>-1</ele>
        <time>1970-01-01T00:00:00Z</time>
      </trkpt>
      <trkpt lat="43.70449" lon="3.53751">
        <ele>-1</ele>
        <time>1970-01-01T00:00:00Z</time>
      </trkpt>
      <trkpt lat="43.70473" lon="3.53756">
        <ele>-1</ele>
        <time>1970-01-01T00:00:00Z</time>
      </trkpt>
      <trkpt lat="43.70478" lon="3.53768">
        <ele>-1</ele>
        <time>1970-01-01T00:00:00Z</time>
      </trkpt>
      <trkpt lat="43.70478" lon="3.53796">
        <ele>-1</ele>
        <time>1970-01-01T00:00:00Z</time>
      </trkpt>
      <trkpt lat="43.70471" lon="3.53859">
        <ele>-1</ele>
        <time>1970-01-01T00:00:00Z</time>
      </trkpt>
      <trkpt lat="43.70475" lon="3.53891">
        <ele>-1</ele>
        <time>1970-01-01T00:00:00Z</time>
      </trkpt>
      <trkpt lat="43.7051" lon="3.53995">
        <ele>-1</ele>
        <time>1970-01-01T00:00:00Z</time>
      </trkpt>
      <trkpt lat="43.70533" lon="3.54033">
        <ele>-1</ele>
        <time>1970-01-01T00:00:00Z</time>
      </trkpt>
      <trkpt lat="43.70566" lon="3.54128">
        <ele>-1</ele>
        <time>1970-01-01T00:00:00Z</time>
      </trkpt>
      <trkpt lat="43.70595" lon="3.54163">
        <ele>-1</ele>
        <time>1970-01-01T00:00:00Z</time>
      </trkpt>
      <trkpt lat="43.70636" lon="3.54184">
        <ele>-1</ele>
        <time>1970-01-01T00:00:00Z</time>
      </trkpt>
      <trkpt lat="43.70681" lon="3.54177">
        <ele>-1</ele>
        <time>1970-01-01T00:00:00Z</time>
      </trkpt>
      <trkpt lat="43.70744" lon="3.5416">
        <ele>-1</ele>
        <time>1970-01-01T00:00:00Z</time>
      </trkpt>
      <trkpt lat="43.7077" lon="3.54146">
        <ele>-1</ele>
        <time>1970-01-01T00:00:00Z</time>
      </trkpt>
      <trkpt lat="43.70761" lon="3.54142">
        <ele>-1</ele>
        <time>1970-01-01T00:00:00Z</time>
      </trkpt>
      <trkpt lat="43.70743" lon="3.54142">
        <ele>-1</ele>
        <time>1970-01-01T00:00:00Z</time>
      </trkpt>
      <trkpt lat="43.70676" lon="3.54107">
        <ele>-1</ele>
        <time>1970-01-01T00:00:00Z</time>
      </trkpt>
      <trkpt lat="43.70666" lon="3.54087">
        <ele>-1</ele>
        <time>1970-01-01T00:00:00Z</time>
      </trkpt>
      <trkpt lat="43.70634" lon="3.53918">
        <ele>-1</ele>
        <time>1970-01-01T00:00:00Z</time>
      </trkpt>
      <trkpt lat="43.70631" lon="3.53869">
        <ele>-1</ele>
        <time>1970-01-01T00:00:00Z</time>
      </trkpt>
      <trkpt lat="43.70655" lon="3.53772">
        <ele>-1</ele>
        <time>1970-01-01T00:00:00Z</time>
      </trkpt>
      <trkpt lat="43.70678" lon="3.53717">
        <ele>-1</ele>
        <time>1970-01-01T00:00:00Z</time>
      </trkpt>
      <trkpt lat="43.70701" lon="3.53669">
        <ele>-1</ele>
        <time>1970-01-01T00:00:00Z</time>
      </trkpt>
      <trkpt lat="43.70727" lon="3.53642">
        <ele>-1</ele>
        <time>1970-01-01T00:00:00Z</time>
      </trkpt>
      <trkpt lat="43.70755" lon="3.53646">
        <ele>-1</ele>
        <time>1970-01-01T00:00:00Z</time>
      </trkpt>
      <trkpt lat="43.70786" lon="3.53658">
        <ele>-1</ele>
        <time>1970-01-01T00:00:00Z</time>
      </trkpt>
      <trkpt lat="43.70787" lon="3.53664">
        <ele>-1</ele>
        <time>1970-01-01T00:00:00Z</time>
      </trkpt>
      <trkpt lat="43.70769" lon="3.53672">
        <ele>-1</ele>
        <time>1970-01-01T00:00:00Z</time>
      </trkpt>
      <trkpt lat="43.70753" lon="3.53694">
        <ele>-1</ele>
        <time>1970-01-01T00:00:00Z</time>
      </trkpt>
      <trkpt lat="43.70752" lon="3.5373">
        <ele>-1</ele>
        <time>1970-01-01T00:00:00Z</time>
      </trkpt>
      <trkpt lat="43.70768" lon="3.53796">
        <ele>-1</ele>
        <time>1970-01-01T00:00:00Z</time>
      </trkpt>
      <trkpt lat="43.70783" lon="3.53827">
        <ele>-1</ele>
        <time>1970-01-01T00:00:00Z</time>
      </trkpt>
      <trkpt lat="43.70797" lon="3.53832">
        <ele>-1</ele>
        <time>1970-01-01T00:00:00Z</time>
      </trkpt>
      <trkpt lat="43.71515" lon="3.53728">
        <ele>-1</ele>
        <time>1970-01-01T00:00:00Z</time>
      </trkpt>
      <trkpt lat="43.71701" lon="3.53756">
        <ele>-1</ele>
        <time>1970-01-01T00:00:00Z</time>
      </trkpt>
      <trkpt lat="43.72089" lon="3.53661">
        <ele>-1</ele>
        <time>1970-01-01T00:00:00Z</time>
      </trkpt>
      <trkpt lat="43.72089" lon="3.53624">
        <ele>-1</ele>
        <time>1970-01-01T00:00:00Z</time>
      </trkpt>
      <trkpt lat="43.72097" lon="3.53603">
        <ele>-1</ele>
        <time>1970-01-01T00:00:00Z</time>
      </trkpt>
      <trkpt lat="43.72098" lon="3.53603">
        <ele>-1</ele>
        <time>1970-01-01T00:00:00Z</time>
      </trkpt>
      <trkpt lat="43.72157" lon="3.53539">
        <ele>-1</ele>
        <time>1970-01-01T00:00:00Z</time>
      </trkpt>
      <trkpt lat="43.72172" lon="3.53534">
        <ele>-1</ele>
        <time>1970-01-01T00:00:00Z</time>
      </trkpt>
      <trkpt lat="43.72231" lon="3.53462">
        <ele>-1</ele>
        <time>1970-01-01T00:00:00Z</time>
      </trkpt>
      <trkpt lat="43.72243" lon="3.53432">
        <ele>-1</ele>
        <time>1970-01-01T00:00:00Z</time>
      </trkpt>
      <trkpt lat="43.72228" lon="3.53344">
        <ele>-1</ele>
        <time>1970-01-01T00:00:00Z</time>
      </trkpt>
      <trkpt lat="43.72227" lon="3.53317">
        <ele>-1</ele>
        <time>1970-01-01T00:00:00Z</time>
      </trkpt>
      <trkpt lat="43.72231" lon="3.5328">
        <ele>-1</ele>
        <time>1970-01-01T00:00:00Z</time>
      </trkpt>
      <trkpt lat="43.72219" lon="3.53243">
        <ele>-1</ele>
        <time>1970-01-01T00:00:00Z</time>
      </trkpt>
      <trkpt lat="43.72221" lon="3.53227">
        <ele>-1</ele>
        <time>1970-01-01T00:00:00Z</time>
      </trkpt>
      <trkpt lat="43.7223" lon="3.5323">
        <ele>-1</ele>
        <time>1970-01-01T00:00:00Z</time>
      </trkpt>
      <trkpt lat="43.72242" lon="3.53249">
        <ele>-1</ele>
        <time>1970-01-01T00:00:00Z</time>
      </trkpt>
      <trkpt lat="43.72257" lon="3.53254">
        <ele>-1</ele>
        <time>1970-01-01T00:00:00Z</time>
      </trkpt>
      <trkpt lat="43.72296" lon="3.53318">
        <ele>-1</ele>
        <time>1970-01-01T00:00:00Z</time>
      </trkpt>
      <trkpt lat="43.72309" lon="3.53324">
        <ele>-1</ele>
        <time>1970-01-01T00:00:00Z</time>
      </trkpt>
      <trkpt lat="43.72333" lon="3.53325">
        <ele>-1</ele>
        <time>1970-01-01T00:00:00Z</time>
      </trkpt>
      <trkpt lat="43.72345" lon="3.53315">
        <ele>-1</ele>
        <time>1970-01-01T00:00:00Z</time>
      </trkpt>
      <trkpt lat="43.72376" lon="3.53313">
        <ele>-1</ele>
        <time>1970-01-01T00:00:00Z</time>
      </trkpt>
      <trkpt lat="43.72385" lon="3.53308">
        <ele>-1</ele>
        <time>1970-01-01T00:00:00Z</time>
      </trkpt>
      <trkpt lat="43.72386" lon="3.533">
        <ele>-1</ele>
        <time>1970-01-01T00:00:00Z</time>
      </trkpt>
      <trkpt lat="43.7237" lon="3.53292">
        <ele>-1</ele>
        <time>1970-01-01T00:00:00Z</time>
      </trkpt>
      <trkpt lat="43.7235" lon="3.53268">
        <ele>-1</ele>
        <time>1970-01-01T00:00:00Z</time>
      </trkpt>
      <trkpt lat="43.7235" lon="3.53266">
        <ele>-1</ele>
        <time>1970-01-01T00:00:00Z</time>
      </trkpt>
      <trkpt lat="43.7234" lon="3.53247">
        <ele>-1</ele>
        <time>1970-01-01T00:00:00Z</time>
      </trkpt>
      <trkpt lat="43.72325" lon="3.53124">
        <ele>-1</ele>
        <time>1970-01-01T00:00:00Z</time>
      </trkpt>
      <trkpt lat="43.72337" lon="3.53072">
        <ele>-1</ele>
        <time>1970-01-01T00:00:00Z</time>
      </trkpt>
      <trkpt lat="43.72338" lon="3.53045">
        <ele>-1</ele>
        <time>1970-01-01T00:00:00Z</time>
      </trkpt>
      <trkpt lat="43.72385" lon="3.5296">
        <ele>-1</ele>
        <time>1970-01-01T00:00:00Z</time>
      </trkpt>
      <trkpt lat="43.7239" lon="3.5293">
        <ele>-1</ele>
        <time>1970-01-01T00:00:00Z</time>
      </trkpt>
      <trkpt lat="43.72398" lon="3.52922">
        <ele>-1</ele>
        <time>1970-01-01T00:00:00Z</time>
      </trkpt>
      <trkpt lat="43.72408" lon="3.52927">
        <ele>-1</ele>
        <time>1970-01-01T00:00:00Z</time>
      </trkpt>
      <trkpt lat="43.72403" lon="3.52951">
        <ele>-1</ele>
        <time>1970-01-01T00:00:00Z</time>
      </trkpt>
      <trkpt lat="43.7239" lon="3.52976">
        <ele>-1</ele>
        <time>1970-01-01T00:00:00Z</time>
      </trkpt>
      <trkpt lat="43.72386" lon="3.53034">
        <ele>-1</ele>
        <time>1970-01-01T00:00:00Z</time>
      </trkpt>
      <trkpt lat="43.7239" lon="3.53056">
        <ele>-1</ele>
        <time>1970-01-01T00:00:00Z</time>
      </trkpt>
      <trkpt lat="43.72405" lon="3.53075">
        <ele>-1</ele>
        <time>1970-01-01T00:00:00Z</time>
      </trkpt>
      <trkpt lat="43.72441" lon="3.5309">
        <ele>-1</ele>
        <time>1970-01-01T00:00:00Z</time>
      </trkpt>
      <trkpt lat="43.72449" lon="3.53084">
        <ele>-1</ele>
        <time>1970-01-01T00:00:00Z</time>
      </trkpt>
      <trkpt lat="43.72447" lon="3.53076">
        <ele>-1</ele>
        <time>1970-01-01T00:00:00Z</time>
      </trkpt>
      <trkpt lat="43.72437" lon="3.53059">
        <ele>-1</ele>
        <time>1970-01-01T00:00:00Z</time>
      </trkpt>
      <trkpt lat="43.72434" lon="3.53046">
        <ele>-1</ele>
        <time>1970-01-01T00:00:00Z</time>
      </trkpt>
      <trkpt lat="43.72439" lon="3.53016">
        <ele>-1</ele>
        <time>1970-01-01T00:00:00Z</time>
      </trkpt>
      <trkpt lat="43.72463" lon="3.52979">
        <ele>-1</ele>
        <time>1970-01-01T00:00:00Z</time>
      </trkpt>
      <trkpt lat="43.72472" lon="3.52943">
        <ele>-1</ele>
        <time>1970-01-01T00:00:00Z</time>
      </trkpt>
      <trkpt lat="43.72477" lon="3.52943">
        <ele>-1</ele>
        <time>1970-01-01T00:00:00Z</time>
      </trkpt>
      <trkpt lat="43.72479" lon="3.52955">
        <ele>-1</ele>
        <time>1970-01-01T00:00:00Z</time>
      </trkpt>
      <trkpt lat="43.7249" lon="3.52999">
        <ele>-1</ele>
        <time>1970-01-01T00:00:00Z</time>
      </trkpt>
      <trkpt lat="43.72496" lon="3.52991">
        <ele>-1</ele>
        <time>1970-01-01T00:00:00Z</time>
      </trkpt>
      <trkpt lat="43.72497" lon="3.52962">
        <ele>-1</ele>
        <time>1970-01-01T00:00:00Z</time>
      </trkpt>
      <trkpt lat="43.7251" lon="3.52894">
        <ele>-1</ele>
        <time>1970-01-01T00:00:00Z</time>
      </trkpt>
      <trkpt lat="43.72515" lon="3.52833">
        <ele>-1</ele>
        <time>1970-01-01T00:00:00Z</time>
      </trkpt>
      <trkpt lat="43.72518" lon="3.5281">
        <ele>-1</ele>
        <time>1970-01-01T00:00:00Z</time>
      </trkpt>
      <trkpt lat="43.72534" lon="3.52771">
        <ele>-1</ele>
        <time>1970-01-01T00:00:00Z</time>
      </trkpt>
      <trkpt lat="43.72531" lon="3.52758">
        <ele>-1</ele>
        <time>1970-01-01T00:00:00Z</time>
      </trkpt>
      <trkpt lat="43.72523" lon="3.5274">
        <ele>-1</ele>
        <time>1970-01-01T00:00:00Z</time>
      </trkpt>
      <trkpt lat="43.72522" lon="3.52715">
        <ele>-1</ele>
        <time>1970-01-01T00:00:00Z</time>
      </trkpt>
      <trkpt lat="43.72539" lon="3.52655">
        <ele>-1</ele>
        <time>1970-01-01T00:00:00Z</time>
      </trkpt>
      <trkpt lat="43.72564" lon="3.5262">
        <ele>-1</ele>
        <time>1970-01-01T00:00:00Z</time>
      </trkpt>
      <trkpt lat="43.72587" lon="3.52602">
        <ele>-1</ele>
        <time>1970-01-01T00:00:00Z</time>
      </trkpt>
      <trkpt lat="43.72612" lon="3.52565">
        <ele>-1</ele>
        <time>1970-01-01T00:00:00Z</time>
      </trkpt>
      <trkpt lat="43.72633" lon="3.52544">
        <ele>-1</ele>
        <time>1970-01-01T00:00:00Z</time>
      </trkpt>
      <trkpt lat="43.72683" lon="3.5244">
        <ele>-1</ele>
        <time>1970-01-01T00:00:00Z</time>
      </trkpt>
      <trkpt lat="43.72707" lon="3.52422">
        <ele>-1</ele>
        <time>1970-01-01T00:00:00Z</time>
      </trkpt>
      <trkpt lat="43.72751" lon="3.52395">
        <ele>-1</ele>
        <time>1970-01-01T00:00:00Z</time>
      </trkpt>
      <trkpt lat="43.72788" lon="3.52342">
        <ele>-1</ele>
        <time>1970-01-01T00:00:00Z</time>
      </trkpt>
      <trkpt lat="43.72823" lon="3.52284">
        <ele>-1</ele>
        <time>1970-01-01T00:00:00Z</time>
      </trkpt>
      <trkpt lat="43.72866" lon="3.52245">
        <ele>-1</ele>
        <time>1970-01-01T00:00:00Z</time>
      </trkpt>
      <trkpt lat="43.72888" lon="3.52225">
        <ele>-1</ele>
        <time>1970-01-01T00:00:00Z</time>
      </trkpt>
      <trkpt lat="43.72912" lon="3.52227">
        <ele>-1</ele>
        <time>1970-01-01T00:00:00Z</time>
      </trkpt>
      <trkpt lat="43.72912" lon="3.52238">
        <ele>-1</ele>
        <time>1970-01-01T00:00:00Z</time>
      </trkpt>
      <trkpt lat="43.72896" lon="3.52264">
        <ele>-1</ele>
        <time>1970-01-01T00:00:00Z</time>
      </trkpt>
      <trkpt lat="43.72885" lon="3.52312">
        <ele>-1</ele>
        <time>1970-01-01T00:00:00Z</time>
      </trkpt>
      <trkpt lat="43.72876" lon="3.52338">
        <ele>-1</ele>
        <time>1970-01-01T00:00:00Z</time>
      </trkpt>
      <trkpt lat="43.72881" lon="3.5237">
        <ele>-1</ele>
        <time>1970-01-01T00:00:00Z</time>
      </trkpt>
      <trkpt lat="43.72893" lon="3.52373">
        <ele>-1</ele>
        <time>1970-01-01T00:00:00Z</time>
      </trkpt>
      <trkpt lat="43.72925" lon="3.52366">
        <ele>-1</ele>
        <time>1970-01-01T00:00:00Z</time>
      </trkpt>
      <trkpt lat="43.72943" lon="3.52376">
        <ele>-1</ele>
        <time>1970-01-01T00:00:00Z</time>
      </trkpt>
      <trkpt lat="43.72963" lon="3.5238">
        <ele>-1</ele>
        <time>1970-01-01T00:00:00Z</time>
      </trkpt>
      <trkpt lat="43.72977" lon="3.52392">
        <ele>-1</ele>
        <time>1970-01-01T00:00:00Z</time>
      </trkpt>
      <trkpt lat="43.72969" lon="3.52406">
        <ele>-1</ele>
        <time>1970-01-01T00:00:00Z</time>
      </trkpt>
      <trkpt lat="43.72948" lon="3.52431">
        <ele>-1</ele>
        <time>1970-01-01T00:00:00Z</time>
      </trkpt>
      <trkpt lat="43.72939" lon="3.52461">
        <ele>-1</ele>
        <time>1970-01-01T00:00:00Z</time>
      </trkpt>
      <trkpt lat="43.72933" lon="3.52552">
        <ele>-1</ele>
        <time>1970-01-01T00:00:00Z</time>
      </trkpt>
      <trkpt lat="43.72942" lon="3.5258">
        <ele>-1</ele>
        <time>1970-01-01T00:00:00Z</time>
      </trkpt>
      <trkpt lat="43.72972" lon="3.52582">
        <ele>-1</ele>
        <time>1970-01-01T00:00:00Z</time>
      </trkpt>
      <trkpt lat="43.73011" lon="3.52575">
        <ele>-1</ele>
        <time>1970-01-01T00:00:00Z</time>
      </trkpt>
      <trkpt lat="43.73012" lon="3.52575">
        <ele>-1</ele>
        <time>1970-01-01T00:00:00Z</time>
      </trkpt>
      <trkpt lat="43.73044" lon="3.52579">
        <ele>-1</ele>
        <time>1970-01-01T00:00:00Z</time>
      </trkpt>
      <trkpt lat="43.73074" lon="3.52588">
        <ele>-1</ele>
        <time>1970-01-01T00:00:00Z</time>
      </trkpt>
      <trkpt lat="43.73109" lon="3.52641">
        <ele>-1</ele>
        <time>1970-01-01T00:00:00Z</time>
      </trkpt>
      <trkpt lat="43.73164" lon="3.52671">
        <ele>-1</ele>
        <time>1970-01-01T00:00:00Z</time>
      </trkpt>
      <trkpt lat="43.73167" lon="3.52673">
        <ele>-1</ele>
        <time>1970-01-01T00:00:00Z</time>
      </trkpt>
      <trkpt lat="43.7325" lon="3.52724">
        <ele>-1</ele>
        <time>1970-01-01T00:00:00Z</time>
      </trkpt>
      <trkpt lat="43.73312" lon="3.52528">
        <ele>-1</ele>
        <time>1970-01-01T00:00:00Z</time>
      </trkpt>
      <trkpt lat="43.73378" lon="3.5243">
        <ele>-1</ele>
        <time>1970-01-01T00:00:00Z</time>
      </trkpt>
      <trkpt lat="43.73418" lon="3.52387">
        <ele>-1</ele>
        <time>1970-01-01T00:00:00Z</time>
      </trkpt>
      <trkpt lat="43.73463" lon="3.52321">
        <ele>-1</ele>
        <time>1970-01-01T00:00:00Z</time>
      </trkpt>
      <trkpt lat="43.73491" lon="3.52273">
        <ele>-1</ele>
        <time>1970-01-01T00:00:00Z</time>
      </trkpt>
      <trkpt lat="43.73506" lon="3.52217">
        <ele>-1</ele>
        <time>1970-01-01T00:00:00Z</time>
      </trkpt>
      <trkpt lat="43.7352" lon="3.522">
        <ele>-1</ele>
        <time>1970-01-01T00:00:00Z</time>
      </trkpt>
      <trkpt lat="43.73544" lon="3.52189">
        <ele>-1</ele>
        <time>1970-01-01T00:00:00Z</time>
      </trkpt>
      <trkpt lat="43.73549" lon="3.52176">
        <ele>-1</ele>
        <time>1970-01-01T00:00:00Z</time>
      </trkpt>
      <trkpt lat="43.73528" lon="3.52135">
        <ele>-1</ele>
        <time>1970-01-01T00:00:00Z</time>
      </trkpt>
      <trkpt lat="43.73516" lon="3.52116">
        <ele>-1</ele>
        <time>1970-01-01T00:00:00Z</time>
      </trkpt>
      <trkpt lat="43.7351" lon="3.52059">
        <ele>-1</ele>
        <time>1970-01-01T00:00:00Z</time>
      </trkpt>
      <trkpt lat="43.7352" lon="3.52038">
        <ele>-1</ele>
        <time>1970-01-01T00:00:00Z</time>
      </trkpt>
      <trkpt lat="43.73527" lon="3.52033">
        <ele>-1</ele>
        <time>1970-01-01T00:00:00Z</time>
      </trkpt>
      <trkpt lat="43.73547" lon="3.51898">
        <ele>-1</ele>
        <time>1970-01-01T00:00:00Z</time>
      </trkpt>
      <trkpt lat="43.73555" lon="3.5188">
        <ele>-1</ele>
        <time>1970-01-01T00:00:00Z</time>
      </trkpt>
      <trkpt lat="43.73562" lon="3.51812">
        <ele>-1</ele>
        <time>1970-01-01T00:00:00Z</time>
      </trkpt>
      <trkpt lat="43.73563" lon="3.5181">
        <ele>-1</ele>
        <time>1970-01-01T00:00:00Z</time>
      </trkpt>
      <trkpt lat="43.73567" lon="3.51777">
        <ele>-1</ele>
        <time>1970-01-01T00:00:00Z</time>
      </trkpt>
      <trkpt lat="43.7358" lon="3.51752">
        <ele>-1</ele>
        <time>1970-01-01T00:00:00Z</time>
      </trkpt>
      <trkpt lat="43.73568" lon="3.51751">
        <ele>-1</ele>
        <time>1970-01-01T00:00:00Z</time>
      </trkpt>
      <trkpt lat="43.7355" lon="3.51775">
        <ele>-1</ele>
        <time>1970-01-01T00:00:00Z</time>
      </trkpt>
      <trkpt lat="43.73533" lon="3.51779">
        <ele>-1</ele>
        <time>1970-01-01T00:00:00Z</time>
      </trkpt>
      <trkpt lat="43.73529" lon="3.51762">
        <ele>-1</ele>
        <time>1970-01-01T00:00:00Z</time>
      </trkpt>
      <trkpt lat="43.73531" lon="3.51731">
        <ele>-1</ele>
        <time>1970-01-01T00:00:00Z</time>
      </trkpt>
      <trkpt lat="43.73515" lon="3.51654">
        <ele>-1</ele>
        <time>1970-01-01T00:00:00Z</time>
      </trkpt>
      <trkpt lat="43.73491" lon="3.51636">
        <ele>-1</ele>
        <time>1970-01-01T00:00:00Z</time>
      </trkpt>
      <trkpt lat="43.73489" lon="3.51609">
        <ele>-1</ele>
        <time>1970-01-01T00:00:00Z</time>
      </trkpt>
      <trkpt lat="43.73521" lon="3.51571">
        <ele>-1</ele>
        <time>1970-01-01T00:00:00Z</time>
      </trkpt>
      <trkpt lat="43.73544" lon="3.51502">
        <ele>-1</ele>
        <time>1970-01-01T00:00:00Z</time>
      </trkpt>
      <trkpt lat="43.73561" lon="3.51479">
        <ele>-1</ele>
        <time>1970-01-01T00:00:00Z</time>
      </trkpt>
      <trkpt lat="43.73559" lon="3.51463">
        <ele>-1</ele>
        <time>1970-01-01T00:00:00Z</time>
      </trkpt>
      <trkpt lat="43.73569" lon="3.51448">
        <ele>-1</ele>
        <time>1970-01-01T00:00:00Z</time>
      </trkpt>
      <trkpt lat="43.73577" lon="3.51442">
        <ele>-1</ele>
        <time>1970-01-01T00:00:00Z</time>
      </trkpt>
      <trkpt lat="43.73583" lon="3.51422">
        <ele>-1</ele>
        <time>1970-01-01T00:00:00Z</time>
      </trkpt>
      <trkpt lat="43.73604" lon="3.51392">
        <ele>-1</ele>
        <time>1970-01-01T00:00:00Z</time>
      </trkpt>
      <trkpt lat="43.73597" lon="3.51321">
        <ele>-1</ele>
        <time>1970-01-01T00:00:00Z</time>
      </trkpt>
      <trkpt lat="43.73607" lon="3.51296">
        <ele>-1</ele>
        <time>1970-01-01T00:00:00Z</time>
      </trkpt>
      <trkpt lat="43.73626" lon="3.51271">
        <ele>-1</ele>
        <time>1970-01-01T00:00:00Z</time>
      </trkpt>
      <trkpt lat="43.73645" lon="3.5125">
        <ele>-1</ele>
        <time>1970-01-01T00:00:00Z</time>
      </trkpt>
      <trkpt lat="43.73653" lon="3.5123">
        <ele>-1</ele>
        <time>1970-01-01T00:00:00Z</time>
      </trkpt>
      <trkpt lat="43.73656" lon="3.51207">
        <ele>-1</ele>
        <time>1970-01-01T00:00:00Z</time>
      </trkpt>
      <trkpt lat="43.7368" lon="3.51165">
        <ele>-1</ele>
        <time>1970-01-01T00:00:00Z</time>
      </trkpt>
      <trkpt lat="43.73701" lon="3.51148">
        <ele>-1</ele>
        <time>1970-01-01T00:00:00Z</time>
      </trkpt>
      <trkpt lat="43.73703" lon="3.51136">
        <ele>-1</ele>
        <time>1970-01-01T00:00:00Z</time>
      </trkpt>
      <trkpt lat="43.73697" lon="3.51115">
        <ele>-1</ele>
        <time>1970-01-01T00:00:00Z</time>
      </trkpt>
      <trkpt lat="43.73749" lon="3.50985">
        <ele>-1</ele>
        <time>1970-01-01T00:00:00Z</time>
      </trkpt>
      <trkpt lat="43.73757" lon="3.50972">
        <ele>-1</ele>
        <time>1970-01-01T00:00:00Z</time>
      </trkpt>
      <trkpt lat="43.73758" lon="3.50964">
        <ele>-1</ele>
        <time>1970-01-01T00:00:00Z</time>
      </trkpt>
      <trkpt lat="43.7378" lon="3.50956">
        <ele>-1</ele>
        <time>1970-01-01T00:00:00Z</time>
      </trkpt>
      <trkpt lat="43.73789" lon="3.50954">
        <ele>-1</ele>
        <time>1970-01-01T00:00:00Z</time>
      </trkpt>
      <trkpt lat="43.73811" lon="3.50917">
        <ele>-1</ele>
        <time>1970-01-01T00:00:00Z</time>
      </trkpt>
      <trkpt lat="43.73842" lon="3.50892">
        <ele>-1</ele>
        <time>1970-01-01T00:00:00Z</time>
      </trkpt>
      <trkpt lat="43.73858" lon="3.50865">
        <ele>-1</ele>
        <time>1970-01-01T00:00:00Z</time>
      </trkpt>
      <trkpt lat="43.73892" lon="3.50868">
        <ele>-1</ele>
        <time>1970-01-01T00:00:00Z</time>
      </trkpt>
      <trkpt lat="43.73929" lon="3.50852">
        <ele>-1</ele>
        <time>1970-01-01T00:00:00Z</time>
      </trkpt>
      <trkpt lat="43.7393" lon="3.50851">
        <ele>-1</ele>
        <time>1970-01-01T00:00:00Z</time>
      </trkpt>
      <trkpt lat="43.73972" lon="3.50839">
        <ele>-1</ele>
        <time>1970-01-01T00:00:00Z</time>
      </trkpt>
      <trkpt lat="43.73994" lon="3.50821">
        <ele>-1</ele>
        <time>1970-01-01T00:00:00Z</time>
      </trkpt>
      <trkpt lat="43.74014" lon="3.50796">
        <ele>-1</ele>
        <time>1970-01-01T00:00:00Z</time>
      </trkpt>
      <trkpt lat="43.74021" lon="3.50778">
        <ele>-1</ele>
        <time>1970-01-01T00:00:00Z</time>
      </trkpt>
      <trkpt lat="43.74013" lon="3.50769">
        <ele>-1</ele>
        <time>1970-01-01T00:00:00Z</time>
      </trkpt>
      <trkpt lat="43.74002" lon="3.50769">
        <ele>-1</ele>
        <time>1970-01-01T00:00:00Z</time>
      </trkpt>
      <trkpt lat="43.73976" lon="3.50745">
        <ele>-1</ele>
        <time>1970-01-01T00:00:00Z</time>
      </trkpt>
      <trkpt lat="43.73973" lon="3.50739">
        <ele>-1</ele>
        <time>1970-01-01T00:00:00Z</time>
      </trkpt>
      <trkpt lat="43.73963" lon="3.50707">
        <ele>-1</ele>
        <time>1970-01-01T00:00:00Z</time>
      </trkpt>
      <trkpt lat="43.73956" lon="3.50692">
        <ele>-1</ele>
        <time>1970-01-01T00:00:00Z</time>
      </trkpt>
      <trkpt lat="43.73957" lon="3.50674">
        <ele>-1</ele>
        <time>1970-01-01T00:00:00Z</time>
      </trkpt>
      <trkpt lat="43.73934" lon="3.50677">
        <ele>-1</ele>
        <time>1970-01-01T00:00:00Z</time>
      </trkpt>
      <trkpt lat="43.7391" lon="3.50688">
        <ele>-1</ele>
        <time>1970-01-01T00:00:00Z</time>
      </trkpt>
      <trkpt lat="43.73895" lon="3.50676">
        <ele>-1</ele>
        <time>1970-01-01T00:00:00Z</time>
      </trkpt>
      <trkpt lat="43.73885" lon="3.5067">
        <ele>-1</ele>
        <time>1970-01-01T00:00:00Z</time>
      </trkpt>
      <trkpt lat="43.73877" lon="3.5066">
        <ele>-1</ele>
        <time>1970-01-01T00:00:00Z</time>
      </trkpt>
      <trkpt lat="43.73865" lon="3.50666">
        <ele>-1</ele>
        <time>1970-01-01T00:00:00Z</time>
      </trkpt>
      <trkpt lat="43.73853" lon="3.50665">
        <ele>-1</ele>
        <time>1970-01-01T00:00:00Z</time>
      </trkpt>
      <trkpt lat="43.73845" lon="3.50655">
        <ele>-1</ele>
        <time>1970-01-01T00:00:00Z</time>
      </trkpt>
      <trkpt lat="43.73833" lon="3.50643">
        <ele>-1</ele>
        <time>1970-01-01T00:00:00Z</time>
      </trkpt>
      <trkpt lat="43.73822" lon="3.50641">
        <ele>-1</ele>
        <time>1970-01-01T00:00:00Z</time>
      </trkpt>
      <trkpt lat="43.73813" lon="3.50631">
        <ele>-1</ele>
        <time>1970-01-01T00:00:00Z</time>
      </trkpt>
      <trkpt lat="43.73801" lon="3.50616">
        <ele>-1</ele>
        <time>1970-01-01T00:00:00Z</time>
      </trkpt>
      <trkpt lat="43.73801" lon="3.50603">
        <ele>-1</ele>
        <time>1970-01-01T00:00:00Z</time>
      </trkpt>
      <trkpt lat="43.73792" lon="3.50585">
        <ele>-1</ele>
        <time>1970-01-01T00:00:00Z</time>
      </trkpt>
      <trkpt lat="43.73782" lon="3.50578">
        <ele>-1</ele>
        <time>1970-01-01T00:00:00Z</time>
      </trkpt>
      <trkpt lat="43.73772" lon="3.50565">
        <ele>-1</ele>
        <time>1970-01-01T00:00:00Z</time>
      </trkpt>
      <trkpt lat="43.73785" lon="3.50464">
        <ele>-1</ele>
        <time>1970-01-01T00:00:00Z</time>
      </trkpt>
      <trkpt lat="43.7378" lon="3.50354">
        <ele>-1</ele>
        <time>1970-01-01T00:00:00Z</time>
      </trkpt>
      <trkpt lat="43.73766" lon="3.50325">
        <ele>-1</ele>
        <time>1970-01-01T00:00:00Z</time>
      </trkpt>
      <trkpt lat="43.73791" lon="3.50156">
        <ele>-1</ele>
        <time>1970-01-01T00:00:00Z</time>
      </trkpt>
      <trkpt lat="43.73802" lon="3.50007">
        <ele>-1</ele>
        <time>1970-01-01T00:00:00Z</time>
      </trkpt>
      <trkpt lat="43.73796" lon="3.49975">
        <ele>-1</ele>
        <time>1970-01-01T00:00:00Z</time>
      </trkpt>
      <trkpt lat="43.73855" lon="3.49883">
        <ele>-1</ele>
        <time>1970-01-01T00:00:00Z</time>
      </trkpt>
      <trkpt lat="43.73867" lon="3.49813">
        <ele>-1</ele>
        <time>1970-01-01T00:00:00Z</time>
      </trkpt>
      <trkpt lat="43.73844" lon="3.49777">
        <ele>-1</ele>
        <time>1970-01-01T00:00:00Z</time>
      </trkpt>
      <trkpt lat="43.7382" lon="3.49723">
        <ele>-1</ele>
        <time>1970-01-01T00:00:00Z</time>
      </trkpt>
      <trkpt lat="43.73803" lon="3.49702">
        <ele>-1</ele>
        <time>1970-01-01T00:00:00Z</time>
      </trkpt>
      <trkpt lat="43.73732" lon="3.49588">
        <ele>-1</ele>
        <time>1970-01-01T00:00:00Z</time>
      </trkpt>
      <trkpt lat="43.73642" lon="3.49484">
        <ele>-1</ele>
        <time>1970-01-01T00:00:00Z</time>
      </trkpt>
      <trkpt lat="43.73631" lon="3.49458">
        <ele>-1</ele>
        <time>1970-01-01T00:00:00Z</time>
      </trkpt>
      <trkpt lat="43.73627" lon="3.49424">
        <ele>-1</ele>
        <time>1970-01-01T00:00:00Z</time>
      </trkpt>
      <trkpt lat="43.73601" lon="3.49382">
        <ele>-1</ele>
        <time>1970-01-01T00:00:00Z</time>
      </trkpt>
      <trkpt lat="43.73577" lon="3.49337">
        <ele>-1</ele>
        <time>1970-01-01T00:00:00Z</time>
      </trkpt>
      <trkpt lat="43.73561" lon="3.49328">
        <ele>-1</ele>
        <time>1970-01-01T00:00:00Z</time>
      </trkpt>
      <trkpt lat="43.7352" lon="3.49273">
        <ele>-1</ele>
        <time>1970-01-01T00:00:00Z</time>
      </trkpt>
      <trkpt lat="43.73498" lon="3.49244">
        <ele>-1</ele>
        <time>1970-01-01T00:00:00Z</time>
      </trkpt>
      <trkpt lat="43.73494" lon="3.49231">
        <ele>-1</ele>
        <time>1970-01-01T00:00:00Z</time>
      </trkpt>
      <trkpt lat="43.73489" lon="3.49208">
        <ele>-1</ele>
        <time>1970-01-01T00:00:00Z</time>
      </trkpt>
      <trkpt lat="43.73482" lon="3.49182">
        <ele>-1</ele>
        <time>1970-01-01T00:00:00Z</time>
      </trkpt>
      <trkpt lat="43.73481" lon="3.49181">
        <ele>-1</ele>
        <time>1970-01-01T00:00:00Z</time>
      </trkpt>
      <trkpt lat="43.73469" lon="3.49145">
        <ele>-1</ele>
        <time>1970-01-01T00:00:00Z</time>
      </trkpt>
      <trkpt lat="43.73468" lon="3.49119">
        <ele>-1</ele>
        <time>1970-01-01T00:00:00Z</time>
      </trkpt>
      <trkpt lat="43.73445" lon="3.49073">
        <ele>-1</ele>
        <time>1970-01-01T00:00:00Z</time>
      </trkpt>
      <trkpt lat="43.7344" lon="3.4905">
        <ele>-1</ele>
        <time>1970-01-01T00:00:00Z</time>
      </trkpt>
      <trkpt lat="43.73438" lon="3.49012">
        <ele>-1</ele>
        <time>1970-01-01T00:00:00Z</time>
      </trkpt>
      <trkpt lat="43.73436" lon="3.48961">
        <ele>-1</ele>
        <time>1970-01-01T00:00:00Z</time>
      </trkpt>
      <trkpt lat="43.73437" lon="3.48933">
        <ele>-1</ele>
        <time>1970-01-01T00:00:00Z</time>
      </trkpt>
      <trkpt lat="43.73442" lon="3.48925">
        <ele>-1</ele>
        <time>1970-01-01T00:00:00Z</time>
      </trkpt>
      <trkpt lat="43.73443" lon="3.48936">
        <ele>-1</ele>
        <time>1970-01-01T00:00:00Z</time>
      </trkpt>
      <trkpt lat="43.73442" lon="3.48957">
        <ele>-1</ele>
        <time>1970-01-01T00:00:00Z</time>
      </trkpt>
      <trkpt lat="43.73447" lon="3.48982">
        <ele>-1</ele>
        <time>1970-01-01T00:00:00Z</time>
      </trkpt>
      <trkpt lat="43.73453" lon="3.49002">
        <ele>-1</ele>
        <time>1970-01-01T00:00:00Z</time>
      </trkpt>
      <trkpt lat="43.73468" lon="3.49032">
        <ele>-1</ele>
        <time>1970-01-01T00:00:00Z</time>
      </trkpt>
      <trkpt lat="43.73468" lon="3.49033">
        <ele>-1</ele>
        <time>1970-01-01T00:00:00Z</time>
      </trkpt>
      <trkpt lat="43.73481" lon="3.49067">
        <ele>-1</ele>
        <time>1970-01-01T00:00:00Z</time>
      </trkpt>
      <trkpt lat="43.73492" lon="3.49093">
        <ele>-1</ele>
        <time>1970-01-01T00:00:00Z</time>
      </trkpt>
      <trkpt lat="43.73493" lon="3.49093">
        <ele>-1</ele>
        <time>1970-01-01T00:00:00Z</time>
      </trkpt>
      <trkpt lat="43.73506" lon="3.49106">
        <ele>-1</ele>
        <time>1970-01-01T00:00:00Z</time>
      </trkpt>
      <trkpt lat="43.73524" lon="3.49136">
        <ele>-1</ele>
        <time>1970-01-01T00:00:00Z</time>
      </trkpt>
      <trkpt lat="43.73524" lon="3.49136">
        <ele>-1</ele>
        <time>1970-01-01T00:00:00Z</time>
      </trkpt>
      <trkpt lat="43.73539" lon="3.49153">
        <ele>-1</ele>
        <time>1970-01-01T00:00:00Z</time>
      </trkpt>
      <trkpt lat="43.73539" lon="3.49154">
        <ele>-1</ele>
        <time>1970-01-01T00:00:00Z</time>
      </trkpt>
      <trkpt lat="43.73557" lon="3.49176">
        <ele>-1</ele>
        <time>1970-01-01T00:00:00Z</time>
      </trkpt>
      <trkpt lat="43.73557" lon="3.49177">
        <ele>-1</ele>
        <time>1970-01-01T00:00:00Z</time>
      </trkpt>
      <trkpt lat="43.73572" lon="3.49195">
        <ele>-1</ele>
        <time>1970-01-01T00:00:00Z</time>
      </trkpt>
      <trkpt lat="43.73584" lon="3.49216">
        <ele>-1</ele>
        <time>1970-01-01T00:00:00Z</time>
      </trkpt>
      <trkpt lat="43.73584" lon="3.49216">
        <ele>-1</ele>
        <time>1970-01-01T00:00:00Z</time>
      </trkpt>
      <trkpt lat="43.73592" lon="3.49229">
        <ele>-1</ele>
        <time>1970-01-01T00:00:00Z</time>
      </trkpt>
      <trkpt lat="43.73604" lon="3.49243">
        <ele>-1</ele>
        <time>1970-01-01T00:00:00Z</time>
      </trkpt>
      <trkpt lat="43.73624" lon="3.49268">
        <ele>-1</ele>
        <time>1970-01-01T00:00:00Z</time>
      </trkpt>
      <trkpt lat="43.73641" lon="3.49286">
        <ele>-1</ele>
        <time>1970-01-01T00:00:00Z</time>
      </trkpt>
      <trkpt lat="43.73641" lon="3.49286">
        <ele>-1</ele>
        <time>1970-01-01T00:00:00Z</time>
      </trkpt>
      <trkpt lat="43.7365" lon="3.49297">
        <ele>-1</ele>
        <time>1970-01-01T00:00:00Z</time>
      </trkpt>
      <trkpt lat="43.7365" lon="3.49299">
        <ele>-1</ele>
        <time>1970-01-01T00:00:00Z</time>
      </trkpt>
      <trkpt lat="43.73677" lon="3.49355">
        <ele>-1</ele>
        <time>1970-01-01T00:00:00Z</time>
      </trkpt>
      <trkpt lat="43.73682" lon="3.49359">
        <ele>-1</ele>
        <time>1970-01-01T00:00:00Z</time>
      </trkpt>
      <trkpt lat="43.73682" lon="3.4936">
        <ele>-1</ele>
        <time>1970-01-01T00:00:00Z</time>
      </trkpt>
      <trkpt lat="43.73688" lon="3.49363">
        <ele>-1</ele>
        <time>1970-01-01T00:00:00Z</time>
      </trkpt>
      <trkpt lat="43.73711" lon="3.49371">
        <ele>-1</ele>
        <time>1970-01-01T00:00:00Z</time>
      </trkpt>
      <trkpt lat="43.73726" lon="3.4938">
        <ele>-1</ele>
        <time>1970-01-01T00:00:00Z</time>
      </trkpt>
      <trkpt lat="43.73738" lon="3.49385">
        <ele>-1</ele>
        <time>1970-01-01T00:00:00Z</time>
      </trkpt>
      <trkpt lat="43.73746" lon="3.49387">
        <ele>-1</ele>
        <time>1970-01-01T00:00:00Z</time>
      </trkpt>
      <trkpt lat="43.73745" lon="3.49382">
        <ele>-1</ele>
        <time>1970-01-01T00:00:00Z</time>
      </trkpt>
      <trkpt lat="43.73738" lon="3.49373">
        <ele>-1</ele>
        <time>1970-01-01T00:00:00Z</time>
      </trkpt>
      <trkpt lat="43.73718" lon="3.49338">
        <ele>-1</ele>
        <time>1970-01-01T00:00:00Z</time>
      </trkpt>
      <trkpt lat="43.73712" lon="3.4933">
        <ele>-1</ele>
        <time>1970-01-01T00:00:00Z</time>
      </trkpt>
      <trkpt lat="43.73703" lon="3.49315">
        <ele>-1</ele>
        <time>1970-01-01T00:00:00Z</time>
      </trkpt>
      <trkpt lat="43.73697" lon="3.49303">
        <ele>-1</ele>
        <time>1970-01-01T00:00:00Z</time>
      </trkpt>
      <trkpt lat="43.73686" lon="3.49263">
        <ele>-1</ele>
        <time>1970-01-01T00:00:00Z</time>
      </trkpt>
      <trkpt lat="43.73676" lon="3.49223">
        <ele>-1</ele>
        <time>1970-01-01T00:00:00Z</time>
      </trkpt>
      <trkpt lat="43.73664" lon="3.49181">
        <ele>-1</ele>
        <time>1970-01-01T00:00:00Z</time>
      </trkpt>
      <trkpt lat="43.73662" lon="3.49158">
        <ele>-1</ele>
        <time>1970-01-01T00:00:00Z</time>
      </trkpt>
      <trkpt lat="43.73645" lon="3.49101">
        <ele>-1</ele>
        <time>1970-01-01T00:00:00Z</time>
      </trkpt>
      <trkpt lat="43.73638" lon="3.49076">
        <ele>-1</ele>
        <time>1970-01-01T00:00:00Z</time>
      </trkpt>
      <trkpt lat="43.73634" lon="3.49039">
        <ele>-1</ele>
        <time>1970-01-01T00:00:00Z</time>
      </trkpt>
      <trkpt lat="43.73634" lon="3.49037">
        <ele>-1</ele>
        <time>1970-01-01T00:00:00Z</time>
      </trkpt>
      <trkpt lat="43.73635" lon="3.48995">
        <ele>-1</ele>
        <time>1970-01-01T00:00:00Z</time>
      </trkpt>
      <trkpt lat="43.73635" lon="3.48973">
        <ele>-1</ele>
        <time>1970-01-01T00:00:00Z</time>
      </trkpt>
      <trkpt lat="43.73641" lon="3.48954">
        <ele>-1</ele>
        <time>1970-01-01T00:00:00Z</time>
      </trkpt>
      <trkpt lat="43.73651" lon="3.48979">
        <ele>-1</ele>
        <time>1970-01-01T00:00:00Z</time>
      </trkpt>
      <trkpt lat="43.73665" lon="3.49003">
        <ele>-1</ele>
        <time>1970-01-01T00:00:00Z</time>
      </trkpt>
      <trkpt lat="43.73689" lon="3.49051">
        <ele>-1</ele>
        <time>1970-01-01T00:00:00Z</time>
      </trkpt>
      <trkpt lat="43.73706" lon="3.49078">
        <ele>-1</ele>
        <time>1970-01-01T00:00:00Z</time>
      </trkpt>
      <trkpt lat="43.73709" lon="3.49081">
        <ele>-1</ele>
        <time>1970-01-01T00:00:00Z</time>
      </trkpt>
      <trkpt lat="43.73709" lon="3.49075">
        <ele>-1</ele>
        <time>1970-01-01T00:00:00Z</time>
      </trkpt>
      <trkpt lat="43.73704" lon="3.49038">
        <ele>-1</ele>
        <time>1970-01-01T00:00:00Z</time>
      </trkpt>
      <trkpt lat="43.73698" lon="3.48986">
        <ele>-1</ele>
        <time>1970-01-01T00:00:00Z</time>
      </trkpt>
      <trkpt lat="43.73697" lon="3.48965">
        <ele>-1</ele>
        <time>1970-01-01T00:00:00Z</time>
      </trkpt>
      <trkpt lat="43.73705" lon="3.48924">
        <ele>-1</ele>
        <time>1970-01-01T00:00:00Z</time>
      </trkpt>
      <trkpt lat="43.73721" lon="3.48896">
        <ele>-1</ele>
        <time>1970-01-01T00:00:00Z</time>
      </trkpt>
      <trkpt lat="43.73751" lon="3.48856">
        <ele>-1</ele>
        <time>1970-01-01T00:00:00Z</time>
      </trkpt>
      <trkpt lat="43.73771" lon="3.48831">
        <ele>-1</ele>
        <time>1970-01-01T00:00:00Z</time>
      </trkpt>
      <trkpt lat="43.73783" lon="3.48819">
        <ele>-1</ele>
        <time>1970-01-01T00:00:00Z</time>
      </trkpt>
      <trkpt lat="43.73787" lon="3.48807">
        <ele>-1</ele>
        <time>1970-01-01T00:00:00Z</time>
      </trkpt>
      <trkpt lat="43.73785" lon="3.48799">
        <ele>-1</ele>
        <time>1970-01-01T00:00:00Z</time>
      </trkpt>
      <trkpt lat="43.73777" lon="3.48774">
        <ele>-1</ele>
        <time>1970-01-01T00:00:00Z</time>
      </trkpt>
      <trkpt lat="43.73773" lon="3.48763">
        <ele>-1</ele>
        <time>1970-01-01T00:00:00Z</time>
      </trkpt>
      <trkpt lat="43.73771" lon="3.48755">
        <ele>-1</ele>
        <time>1970-01-01T00:00:00Z</time>
      </trkpt>
      <trkpt lat="43.73748" lon="3.48719">
        <ele>-1</ele>
        <time>1970-01-01T00:00:00Z</time>
      </trkpt>
      <trkpt lat="43.73746" lon="3.48711">
        <ele>-1</ele>
        <time>1970-01-01T00:00:00Z</time>
      </trkpt>
      <trkpt lat="43.73738" lon="3.48698">
        <ele>-1</ele>
        <time>1970-01-01T00:00:00Z</time>
      </trkpt>
      <trkpt lat="43.73729" lon="3.48672">
        <ele>-1</ele>
        <time>1970-01-01T00:00:00Z</time>
      </trkpt>
      <trkpt lat="43.73725" lon="3.48651">
        <ele>-1</ele>
        <time>1970-01-01T00:00:00Z</time>
      </trkpt>
      <trkpt lat="43.73725" lon="3.4865">
        <ele>-1</ele>
        <time>1970-01-01T00:00:00Z</time>
      </trkpt>
      <trkpt lat="43.73726" lon="3.48626">
        <ele>-1</ele>
        <time>1970-01-01T00:00:00Z</time>
      </trkpt>
      <trkpt lat="43.73727" lon="3.48606">
        <ele>-1</ele>
        <time>1970-01-01T00:00:00Z</time>
      </trkpt>
      <trkpt lat="43.73727" lon="3.48594">
        <ele>-1</ele>
        <time>1970-01-01T00:00:00Z</time>
      </trkpt>
      <trkpt lat="43.7373" lon="3.4859">
        <ele>-1</ele>
        <time>1970-01-01T00:00:00Z</time>
      </trkpt>
      <trkpt lat="43.73735" lon="3.48598">
        <ele>-1</ele>
        <time>1970-01-01T00:00:00Z</time>
      </trkpt>
      <trkpt lat="43.7375" lon="3.48623">
        <ele>-1</ele>
        <time>1970-01-01T00:00:00Z</time>
      </trkpt>
      <trkpt lat="43.73767" lon="3.48648">
        <ele>-1</ele>
        <time>1970-01-01T00:00:00Z</time>
      </trkpt>
      <trkpt lat="43.73778" lon="3.48663">
        <ele>-1</ele>
        <time>1970-01-01T00:00:00Z</time>
      </trkpt>
      <trkpt lat="43.73789" lon="3.48673">
        <ele>-1</ele>
        <time>1970-01-01T00:00:00Z</time>
      </trkpt>
      <trkpt lat="43.738" lon="3.48675">
        <ele>-1</ele>
        <time>1970-01-01T00:00:00Z</time>
      </trkpt>
      <trkpt lat="43.73807" lon="3.48676">
        <ele>-1</ele>
        <time>1970-01-01T00:00:00Z</time>
      </trkpt>
      <trkpt lat="43.73809" lon="3.48673">
        <ele>-1</ele>
        <time>1970-01-01T00:00:00Z</time>
      </trkpt>
      <trkpt lat="43.73804" lon="3.48666">
        <ele>-1</ele>
        <time>1970-01-01T00:00:00Z</time>
      </trkpt>
      <trkpt lat="43.73796" lon="3.4865">
        <ele>-1</ele>
        <time>1970-01-01T00:00:00Z</time>
      </trkpt>
      <trkpt lat="43.73796" lon="3.48649">
        <ele>-1</ele>
        <time>1970-01-01T00:00:00Z</time>
      </trkpt>
      <trkpt lat="43.73787" lon="3.48629">
        <ele>-1</ele>
        <time>1970-01-01T00:00:00Z</time>
      </trkpt>
      <trkpt lat="43.73783" lon="3.48615">
        <ele>-1</ele>
        <time>1970-01-01T00:00:00Z</time>
      </trkpt>
      <trkpt lat="43.73782" lon="3.48598">
        <ele>-1</ele>
        <time>1970-01-01T00:00:00Z</time>
      </trkpt>
      <trkpt lat="43.73778" lon="3.48567">
        <ele>-1</ele>
        <time>1970-01-01T00:00:00Z</time>
      </trkpt>
      <trkpt lat="43.73766" lon="3.48505">
        <ele>-1</ele>
        <time>1970-01-01T00:00:00Z</time>
      </trkpt>
      <trkpt lat="43.7376" lon="3.48456">
        <ele>-1</ele>
        <time>1970-01-01T00:00:00Z</time>
      </trkpt>
      <trkpt lat="43.7375" lon="3.48419">
        <ele>-1</ele>
        <time>1970-01-01T00:00:00Z</time>
      </trkpt>
      <trkpt lat="43.7374" lon="3.48388">
        <ele>-1</ele>
        <time>1970-01-01T00:00:00Z</time>
      </trkpt>
      <trkpt lat="43.7373" lon="3.48359">
        <ele>-1</ele>
        <time>1970-01-01T00:00:00Z</time>
      </trkpt>
      <trkpt lat="43.73716" lon="3.48325">
        <ele>-1</ele>
        <time>1970-01-01T00:00:00Z</time>
      </trkpt>
      <trkpt lat="43.73707" lon="3.48308">
        <ele>-1</ele>
        <time>1970-01-01T00:00:00Z</time>
      </trkpt>
      <trkpt lat="43.73679" lon="3.48278">
        <ele>-1</ele>
        <time>1970-01-01T00:00:00Z</time>
      </trkpt>
      <trkpt lat="43.7367" lon="3.48266">
        <ele>-1</ele>
        <time>1970-01-01T00:00:00Z</time>
      </trkpt>
      <trkpt lat="43.7366" lon="3.4824">
        <ele>-1</ele>
        <time>1970-01-01T00:00:00Z</time>
      </trkpt>
      <trkpt lat="43.73636" lon="3.48161">
        <ele>-1</ele>
        <time>1970-01-01T00:00:00Z</time>
      </trkpt>
      <trkpt lat="43.7363" lon="3.48148">
        <ele>-1</ele>
        <time>1970-01-01T00:00:00Z</time>
      </trkpt>
      <trkpt lat="43.73627" lon="3.48124">
        <ele>-1</ele>
        <time>1970-01-01T00:00:00Z</time>
      </trkpt>
      <trkpt lat="43.73628" lon="3.48111">
        <ele>-1</ele>
        <time>1970-01-01T00:00:00Z</time>
      </trkpt>
      <trkpt lat="43.73632" lon="3.48108">
        <ele>-1</ele>
        <time>1970-01-01T00:00:00Z</time>
      </trkpt>
      <trkpt lat="43.73638" lon="3.48114">
        <ele>-1</ele>
        <time>1970-01-01T00:00:00Z</time>
      </trkpt>
      <trkpt lat="43.73649" lon="3.48125">
        <ele>-1</ele>
        <time>1970-01-01T00:00:00Z</time>
      </trkpt>
      <trkpt lat="43.73666" lon="3.48138">
        <ele>-1</ele>
        <time>1970-01-01T00:00:00Z</time>
      </trkpt>
      <trkpt lat="43.73676" lon="3.48147">
        <ele>-1</ele>
        <time>1970-01-01T00:00:00Z</time>
      </trkpt>
      <trkpt lat="43.73689" lon="3.48153">
        <ele>-1</ele>
        <time>1970-01-01T00:00:00Z</time>
      </trkpt>
      <trkpt lat="43.73705" lon="3.48165">
        <ele>-1</ele>
        <time>1970-01-01T00:00:00Z</time>
      </trkpt>
      <trkpt lat="43.73714" lon="3.48168">
        <ele>-1</ele>
        <time>1970-01-01T00:00:00Z</time>
      </trkpt>
      <trkpt lat="43.73725" lon="3.48175">
        <ele>-1</ele>
        <time>1970-01-01T00:00:00Z</time>
      </trkpt>
      <trkpt lat="43.73734" lon="3.48178">
        <ele>-1</ele>
        <time>1970-01-01T00:00:00Z</time>
      </trkpt>
      <trkpt lat="43.73744" lon="3.48185">
        <ele>-1</ele>
        <time>1970-01-01T00:00:00Z</time>
      </trkpt>
      <trkpt lat="43.73744" lon="3.48187">
        <ele>-1</ele>
        <time>1970-01-01T00:00:00Z</time>
      </trkpt>
      <trkpt lat="43.73759" lon="3.482">
        <ele>-1</ele>
        <time>1970-01-01T00:00:00Z</time>
      </trkpt>
      <trkpt lat="43.73768" lon="3.48208">
        <ele>-1</ele>
        <time>1970-01-01T00:00:00Z</time>
      </trkpt>
      <trkpt lat="43.7382" lon="3.48252">
        <ele>-1</ele>
        <time>1970-01-01T00:00:00Z</time>
      </trkpt>
      <trkpt lat="43.73851" lon="3.48282">
        <ele>-1</ele>
        <time>1970-01-01T00:00:00Z</time>
      </trkpt>
      <trkpt lat="43.73868" lon="3.48305">
        <ele>-1</ele>
        <time>1970-01-01T00:00:00Z</time>
      </trkpt>
      <trkpt lat="43.73901" lon="3.48345">
        <ele>-1</ele>
        <time>1970-01-01T00:00:00Z</time>
      </trkpt>
      <trkpt lat="43.73942" lon="3.48396">
        <ele>-1</ele>
        <time>1970-01-01T00:00:00Z</time>
      </trkpt>
      <trkpt lat="43.73951" lon="3.48409">
        <ele>-1</ele>
        <time>1970-01-01T00:00:00Z</time>
      </trkpt>
      <trkpt lat="43.73972" lon="3.48427">
        <ele>-1</ele>
        <time>1970-01-01T00:00:00Z</time>
      </trkpt>
      <trkpt lat="43.73989" lon="3.4844">
        <ele>-1</ele>
        <time>1970-01-01T00:00:00Z</time>
      </trkpt>
      <trkpt lat="43.74009" lon="3.48454">
        <ele>-1</ele>
        <time>1970-01-01T00:00:00Z</time>
      </trkpt>
      <trkpt lat="43.74043" lon="3.48484">
        <ele>-1</ele>
        <time>1970-01-01T00:00:00Z</time>
      </trkpt>
      <trkpt lat="43.74052" lon="3.48492">
        <ele>-1</ele>
        <time>1970-01-01T00:00:00Z</time>
      </trkpt>
      <trkpt lat="43.74052" lon="3.48492">
        <ele>-1</ele>
        <time>1970-01-01T00:00:00Z</time>
      </trkpt>
      <trkpt lat="43.74055" lon="3.4849">
        <ele>-1</ele>
        <time>1970-01-01T00:00:00Z</time>
      </trkpt>
      <trkpt lat="43.74055" lon="3.48487">
        <ele>-1</ele>
        <time>1970-01-01T00:00:00Z</time>
      </trkpt>
      <trkpt lat="43.74049" lon="3.48471">
        <ele>-1</ele>
        <time>1970-01-01T00:00:00Z</time>
      </trkpt>
      <trkpt lat="43.74006" lon="3.48377">
        <ele>-1</ele>
        <time>1970-01-01T00:00:00Z</time>
      </trkpt>
      <trkpt lat="43.73997" lon="3.48336">
        <ele>-1</ele>
        <time>1970-01-01T00:00:00Z</time>
      </trkpt>
      <trkpt lat="43.73994" lon="3.48312">
        <ele>-1</ele>
        <time>1970-01-01T00:00:00Z</time>
      </trkpt>
      <trkpt lat="43.73994" lon="3.48311">
        <ele>-1</ele>
        <time>1970-01-01T00:00:00Z</time>
      </trkpt>
      <trkpt lat="43.73993" lon="3.48284">
        <ele>-1</ele>
        <time>1970-01-01T00:00:00Z</time>
      </trkpt>
      <trkpt lat="43.73995" lon="3.48258">
        <ele>-1</ele>
        <time>1970-01-01T00:00:00Z</time>
      </trkpt>
      <trkpt lat="43.73997" lon="3.4824">
        <ele>-1</ele>
        <time>1970-01-01T00:00:00Z</time>
      </trkpt>
      <trkpt lat="43.74002" lon="3.48226">
        <ele>-1</ele>
        <time>1970-01-01T00:00:00Z</time>
      </trkpt>
      <trkpt lat="43.74017" lon="3.48216">
        <ele>-1</ele>
        <time>1970-01-01T00:00:00Z</time>
      </trkpt>
      <trkpt lat="43.74028" lon="3.48214">
        <ele>-1</ele>
        <time>1970-01-01T00:00:00Z</time>
      </trkpt>
      <trkpt lat="43.74043" lon="3.48227">
        <ele>-1</ele>
        <time>1970-01-01T00:00:00Z</time>
      </trkpt>
      <trkpt lat="43.74068" lon="3.48248">
        <ele>-1</ele>
        <time>1970-01-01T00:00:00Z</time>
      </trkpt>
      <trkpt lat="43.741" lon="3.48273">
        <ele>-1</ele>
        <time>1970-01-01T00:00:00Z</time>
      </trkpt>
      <trkpt lat="43.74146" lon="3.48294">
        <ele>-1</ele>
        <time>1970-01-01T00:00:00Z</time>
      </trkpt>
      <trkpt lat="43.7419" lon="3.48307">
        <ele>-1</ele>
        <time>1970-01-01T00:00:00Z</time>
      </trkpt>
      <trkpt lat="43.74228" lon="3.48315">
        <ele>-1</ele>
        <time>1970-01-01T00:00:00Z</time>
      </trkpt>
      <trkpt lat="43.74228" lon="3.48316">
        <ele>-1</ele>
        <time>1970-01-01T00:00:00Z</time>
      </trkpt>
      <trkpt lat="43.74254" lon="3.48316">
        <ele>-1</ele>
        <time>1970-01-01T00:00:00Z</time>
      </trkpt>
      <trkpt lat="43.74289" lon="3.48314">
        <ele>-1</ele>
        <time>1970-01-01T00:00:00Z</time>
      </trkpt>
      <trkpt lat="43.74323" lon="3.48325">
        <ele>-1</ele>
        <time>1970-01-01T00:00:00Z</time>
      </trkpt>
      <trkpt lat="43.74341" lon="3.48343">
        <ele>-1</ele>
        <time>1970-01-01T00:00:00Z</time>
      </trkpt>
      <trkpt lat="43.74352" lon="3.4838">
        <ele>-1</ele>
        <time>1970-01-01T00:00:00Z</time>
      </trkpt>
      <trkpt lat="43.74355" lon="3.484">
        <ele>-1</ele>
        <time>1970-01-01T00:00:00Z</time>
      </trkpt>
      <trkpt lat="43.74364" lon="3.48412">
        <ele>-1</ele>
        <time>1970-01-01T00:00:00Z</time>
      </trkpt>
      <trkpt lat="43.74376" lon="3.48411">
        <ele>-1</ele>
        <time>1970-01-01T00:00:00Z</time>
      </trkpt>
      <trkpt lat="43.74391" lon="3.48401">
        <ele>-1</ele>
        <time>1970-01-01T00:00:00Z</time>
      </trkpt>
      <trkpt lat="43.74413" lon="3.48381">
        <ele>-1</ele>
        <time>1970-01-01T00:00:00Z</time>
      </trkpt>
      <trkpt lat="43.74435" lon="3.48346">
        <ele>-1</ele>
        <time>1970-01-01T00:00:00Z</time>
      </trkpt>
      <trkpt lat="43.74436" lon="3.48345">
        <ele>-1</ele>
        <time>1970-01-01T00:00:00Z</time>
      </trkpt>
      <trkpt lat="43.74463" lon="3.48316">
        <ele>-1</ele>
        <time>1970-01-01T00:00:00Z</time>
      </trkpt>
      <trkpt lat="43.74475" lon="3.48302">
        <ele>-1</ele>
        <time>1970-01-01T00:00:00Z</time>
      </trkpt>
      <trkpt lat="43.74482" lon="3.48283">
        <ele>-1</ele>
        <time>1970-01-01T00:00:00Z</time>
      </trkpt>
      <trkpt lat="43.74498" lon="3.48261">
        <ele>-1</ele>
        <time>1970-01-01T00:00:00Z</time>
      </trkpt>
      <trkpt lat="43.74517" lon="3.48243">
        <ele>-1</ele>
        <time>1970-01-01T00:00:00Z</time>
      </trkpt>
      <trkpt lat="43.74532" lon="3.4824">
        <ele>-1</ele>
        <time>1970-01-01T00:00:00Z</time>
      </trkpt>
      <trkpt lat="43.74553" lon="3.48236">
        <ele>-1</ele>
        <time>1970-01-01T00:00:00Z</time>
      </trkpt>
      <trkpt lat="43.74573" lon="3.48244">
        <ele>-1</ele>
        <time>1970-01-01T00:00:00Z</time>
      </trkpt>
      <trkpt lat="43.74586" lon="3.48267">
        <ele>-1</ele>
        <time>1970-01-01T00:00:00Z</time>
      </trkpt>
      <trkpt lat="43.74596" lon="3.483">
        <ele>-1</ele>
        <time>1970-01-01T00:00:00Z</time>
      </trkpt>
      <trkpt lat="43.7461" lon="3.48326">
        <ele>-1</ele>
        <time>1970-01-01T00:00:00Z</time>
      </trkpt>
      <trkpt lat="43.7463" lon="3.48337">
        <ele>-1</ele>
        <time>1970-01-01T00:00:00Z</time>
      </trkpt>
      <trkpt lat="43.74649" lon="3.48336">
        <ele>-1</ele>
        <time>1970-01-01T00:00:00Z</time>
      </trkpt>
      <trkpt lat="43.74679" lon="3.48338">
        <ele>-1</ele>
        <time>1970-01-01T00:00:00Z</time>
      </trkpt>
      <trkpt lat="43.74692" lon="3.48342">
        <ele>-1</ele>
        <time>1970-01-01T00:00:00Z</time>
      </trkpt>
      <trkpt lat="43.74701" lon="3.48354">
        <ele>-1</ele>
        <time>1970-01-01T00:00:00Z</time>
      </trkpt>
      <trkpt lat="43.74702" lon="3.48354">
        <ele>-1</ele>
        <time>1970-01-01T00:00:00Z</time>
      </trkpt>
      <trkpt lat="43.74714" lon="3.48354">
        <ele>-1</ele>
        <time>1970-01-01T00:00:00Z</time>
      </trkpt>
      <trkpt lat="43.74733" lon="3.48346">
        <ele>-1</ele>
        <time>1970-01-01T00:00:00Z</time>
      </trkpt>
      <trkpt lat="43.74748" lon="3.48338">
        <ele>-1</ele>
        <time>1970-01-01T00:00:00Z</time>
      </trkpt>
      <trkpt lat="43.74847" lon="3.48234">
        <ele>-1</ele>
        <time>1970-01-01T00:00:00Z</time>
      </trkpt>
      <trkpt lat="43.74865" lon="3.48224">
        <ele>-1</ele>
        <time>1970-01-01T00:00:00Z</time>
      </trkpt>
      <trkpt lat="43.74866" lon="3.48224">
        <ele>-1</ele>
        <time>1970-01-01T00:00:00Z</time>
      </trkpt>
      <trkpt lat="43.74905" lon="3.48222">
        <ele>-1</ele>
        <time>1970-01-01T00:00:00Z</time>
      </trkpt>
      <trkpt lat="43.74919" lon="3.48211">
        <ele>-1</ele>
        <time>1970-01-01T00:00:00Z</time>
      </trkpt>
      <trkpt lat="43.7496" lon="3.48192">
        <ele>-1</ele>
        <time>1970-01-01T00:00:00Z</time>
      </trkpt>
      <trkpt lat="43.74972" lon="3.48182">
        <ele>-1</ele>
        <time>1970-01-01T00:00:00Z</time>
      </trkpt>
      <trkpt lat="43.7501" lon="3.48176">
        <ele>-1</ele>
        <time>1970-01-01T00:00:00Z</time>
      </trkpt>
      <trkpt lat="43.75018" lon="3.4818">
        <ele>-1</ele>
        <time>1970-01-01T00:00:00Z</time>
      </trkpt>
      <trkpt lat="43.75032" lon="3.48172">
        <ele>-1</ele>
        <time>1970-01-01T00:00:00Z</time>
      </trkpt>
      <trkpt lat="43.7508" lon="3.48107">
        <ele>-1</ele>
        <time>1970-01-01T00:00:00Z</time>
      </trkpt>
      <trkpt lat="43.75089" lon="3.48098">
        <ele>-1</ele>
        <time>1970-01-01T00:00:00Z</time>
      </trkpt>
      <trkpt lat="43.75097" lon="3.48083">
        <ele>-1</ele>
        <time>1970-01-01T00:00:00Z</time>
      </trkpt>
      <trkpt lat="43.75105" lon="3.48068">
        <ele>-1</ele>
        <time>1970-01-01T00:00:00Z</time>
      </trkpt>
      <trkpt lat="43.75122" lon="3.48052">
        <ele>-1</ele>
        <time>1970-01-01T00:00:00Z</time>
      </trkpt>
      <trkpt lat="43.75135" lon="3.48033">
        <ele>-1</ele>
        <time>1970-01-01T00:00:00Z</time>
      </trkpt>
      <trkpt lat="43.75151" lon="3.48027">
        <ele>-1</ele>
        <time>1970-01-01T00:00:00Z</time>
      </trkpt>
      <trkpt lat="43.75175" lon="3.4803">
        <ele>-1</ele>
        <time>1970-01-01T00:00:00Z</time>
      </trkpt>
      <trkpt lat="43.75232" lon="3.47982">
        <ele>-1</ele>
        <time>1970-01-01T00:00:00Z</time>
      </trkpt>
      <trkpt lat="43.75233" lon="3.47982">
        <ele>-1</ele>
        <time>1970-01-01T00:00:00Z</time>
      </trkpt>
      <trkpt lat="43.75263" lon="3.47986">
        <ele>-1</ele>
        <time>1970-01-01T00:00:00Z</time>
      </trkpt>
      <trkpt lat="43.75283" lon="3.47969">
        <ele>-1</ele>
        <time>1970-01-01T00:00:00Z</time>
      </trkpt>
      <trkpt lat="43.75304" lon="3.47949">
        <ele>-1</ele>
        <time>1970-01-01T00:00:00Z</time>
      </trkpt>
      <trkpt lat="43.7533" lon="3.47943">
        <ele>-1</ele>
        <time>1970-01-01T00:00:00Z</time>
      </trkpt>
      <trkpt lat="43.75325" lon="3.47934">
        <ele>-1</ele>
        <time>1970-01-01T00:00:00Z</time>
      </trkpt>
      <trkpt lat="43.75301" lon="3.47896">
        <ele>-1</ele>
        <time>1970-01-01T00:00:00Z</time>
      </trkpt>
      <trkpt lat="43.75292" lon="3.47863">
        <ele>-1</ele>
        <time>1970-01-01T00:00:00Z</time>
      </trkpt>
      <trkpt lat="43.753" lon="3.47836">
        <ele>-1</ele>
        <time>1970-01-01T00:00:00Z</time>
      </trkpt>
      <trkpt lat="43.75274" lon="3.47712">
        <ele>-1</ele>
        <time>1970-01-01T00:00:00Z</time>
      </trkpt>
      <trkpt lat="43.75267" lon="3.47638">
        <ele>-1</ele>
        <time>1970-01-01T00:00:00Z</time>
      </trkpt>
      <trkpt lat="43.75271" lon="3.47545">
        <ele>-1</ele>
        <time>1970-01-01T00:00:00Z</time>
      </trkpt>
      <trkpt lat="43.75259" lon="3.47425">
        <ele>-1</ele>
        <time>1970-01-01T00:00:00Z</time>
      </trkpt>
      <trkpt lat="43.75262" lon="3.47342">
        <ele>-1</ele>
        <time>1970-01-01T00:00:00Z</time>
      </trkpt>
      <trkpt lat="43.75264" lon="3.47267">
        <ele>-1</ele>
        <time>1970-01-01T00:00:00Z</time>
      </trkpt>
      <trkpt lat="43.75271" lon="3.47112">
        <ele>-1</ele>
        <time>1970-01-01T00:00:00Z</time>
      </trkpt>
      <trkpt lat="43.7527" lon="3.46979">
        <ele>-1</ele>
        <time>1970-01-01T00:00:00Z</time>
      </trkpt>
      <trkpt lat="43.75308" lon="3.46934">
        <ele>-1</ele>
        <time>1970-01-01T00:00:00Z</time>
      </trkpt>
      <trkpt lat="43.75378" lon="3.46817">
        <ele>-1</ele>
        <time>1970-01-01T00:00:00Z</time>
      </trkpt>
      <trkpt lat="43.75408" lon="3.46785">
        <ele>-1</ele>
        <time>1970-01-01T00:00:00Z</time>
      </trkpt>
      <trkpt lat="43.75425" lon="3.46718">
        <ele>-1</ele>
        <time>1970-01-01T00:00:00Z</time>
      </trkpt>
      <trkpt lat="43.75448" lon="3.46698">
        <ele>-1</ele>
        <time>1970-01-01T00:00:00Z</time>
      </trkpt>
      <trkpt lat="43.75445" lon="3.46684">
        <ele>-1</ele>
        <time>1970-01-01T00:00:00Z</time>
      </trkpt>
      <trkpt lat="43.75477" lon="3.46615">
        <ele>-1</ele>
        <time>1970-01-01T00:00:00Z</time>
      </trkpt>
      <trkpt lat="43.75498" lon="3.46592">
        <ele>-1</ele>
        <time>1970-01-01T00:00:00Z</time>
      </trkpt>
      <trkpt lat="43.75512" lon="3.46572">
        <ele>-1</ele>
        <time>1970-01-01T00:00:00Z</time>
      </trkpt>
      <trkpt lat="43.75545" lon="3.46565">
        <ele>-1</ele>
        <time>1970-01-01T00:00:00Z</time>
      </trkpt>
      <trkpt lat="43.75593" lon="3.46567">
        <ele>-1</ele>
        <time>1970-01-01T00:00:00Z</time>
      </trkpt>
      <trkpt lat="43.75675" lon="3.46603">
        <ele>-1</ele>
        <time>1970-01-01T00:00:00Z</time>
      </trkpt>
      <trkpt lat="43.75721" lon="3.46598">
        <ele>-1</ele>
        <time>1970-01-01T00:00:00Z</time>
      </trkpt>
      <trkpt lat="43.75769" lon="3.465">
        <ele>-1</ele>
        <time>1970-01-01T00:00:00Z</time>
      </trkpt>
      <trkpt lat="43.7579" lon="3.46494">
        <ele>-1</ele>
        <time>1970-01-01T00:00:00Z</time>
      </trkpt>
      <trkpt lat="43.75886" lon="3.46361">
        <ele>-1</ele>
        <time>1970-01-01T00:00:00Z</time>
      </trkpt>
      <trkpt lat="43.75895" lon="3.46338">
        <ele>-1</ele>
        <time>1970-01-01T00:00:00Z</time>
      </trkpt>
      <trkpt lat="43.75889" lon="3.46316">
        <ele>-1</ele>
        <time>1970-01-01T00:00:00Z</time>
      </trkpt>
      <trkpt lat="43.75858" lon="3.4628">
        <ele>-1</ele>
        <time>1970-01-01T00:00:00Z</time>
      </trkpt>
      <trkpt lat="43.75805" lon="3.46229">
        <ele>-1</ele>
        <time>1970-01-01T00:00:00Z</time>
      </trkpt>
      <trkpt lat="43.75786" lon="3.46172">
        <ele>-1</ele>
        <time>1970-01-01T00:00:00Z</time>
      </trkpt>
      <trkpt lat="43.75788" lon="3.46143">
        <ele>-1</ele>
        <time>1970-01-01T00:00:00Z</time>
      </trkpt>
      <trkpt lat="43.75813" lon="3.46103">
        <ele>-1</ele>
        <time>1970-01-01T00:00:00Z</time>
      </trkpt>
      <trkpt lat="43.75842" lon="3.46051">
        <ele>-1</ele>
        <time>1970-01-01T00:00:00Z</time>
      </trkpt>
      <trkpt lat="43.75867" lon="3.4602">
        <ele>-1</ele>
        <time>1970-01-01T00:00:00Z</time>
      </trkpt>
      <trkpt lat="43.7588" lon="3.46015">
        <ele>-1</ele>
        <time>1970-01-01T00:00:00Z</time>
      </trkpt>
      <trkpt lat="43.7592" lon="3.45969">
        <ele>-1</ele>
        <time>1970-01-01T00:00:00Z</time>
      </trkpt>
      <trkpt lat="43.75949" lon="3.45951">
        <ele>-1</ele>
        <time>1970-01-01T00:00:00Z</time>
      </trkpt>
      <trkpt lat="43.75953" lon="3.45917">
        <ele>-1</ele>
        <time>1970-01-01T00:00:00Z</time>
      </trkpt>
      <trkpt lat="43.75927" lon="3.45904">
        <ele>-1</ele>
        <time>1970-01-01T00:00:00Z</time>
      </trkpt>
      <trkpt lat="43.75914" lon="3.45889">
        <ele>-1</ele>
        <time>1970-01-01T00:00:00Z</time>
      </trkpt>
      <trkpt lat="43.75915" lon="3.4587">
        <ele>-1</ele>
        <time>1970-01-01T00:00:00Z</time>
      </trkpt>
      <trkpt lat="43.75942" lon="3.45839">
        <ele>-1</ele>
        <time>1970-01-01T00:00:00Z</time>
      </trkpt>
      <trkpt lat="43.75941" lon="3.45787">
        <ele>-1</ele>
        <time>1970-01-01T00:00:00Z</time>
      </trkpt>
      <trkpt lat="43.75966" lon="3.45733">
        <ele>-1</ele>
        <time>1970-01-01T00:00:00Z</time>
      </trkpt>
      <trkpt lat="43.75974" lon="3.45699">
        <ele>-1</ele>
        <time>1970-01-01T00:00:00Z</time>
      </trkpt>
      <trkpt lat="43.76032" lon="3.45626">
        <ele>-1</ele>
        <time>1970-01-01T00:00:00Z</time>
      </trkpt>
      <trkpt lat="43.76078" lon="3.45584">
        <ele>-1</ele>
        <time>1970-01-01T00:00:00Z</time>
      </trkpt>
      <trkpt lat="43.76132" lon="3.45562">
        <ele>-1</ele>
        <time>1970-01-01T00:00:00Z</time>
      </trkpt>
      <trkpt lat="43.76163" lon="3.45534">
        <ele>-1</ele>
        <time>1970-01-01T00:00:00Z</time>
      </trkpt>
      <trkpt lat="43.7626" lon="3.45544">
        <ele>-1</ele>
        <time>1970-01-01T00:00:00Z</time>
      </trkpt>
      <trkpt lat="43.76285" lon="3.45552">
        <ele>-1</ele>
        <time>1970-01-01T00:00:00Z</time>
      </trkpt>
      <trkpt lat="43.76321" lon="3.45576">
        <ele>-1</ele>
        <time>1970-01-01T00:00:00Z</time>
      </trkpt>
      <trkpt lat="43.76365" lon="3.45583">
        <ele>-1</ele>
        <time>1970-01-01T00:00:00Z</time>
      </trkpt>
      <trkpt lat="43.76372" lon="3.45583">
        <ele>-1</ele>
        <time>1970-01-01T00:00:00Z</time>
      </trkpt>
      <trkpt lat="43.76457" lon="3.456">
        <ele>-1</ele>
        <time>1970-01-01T00:00:00Z</time>
      </trkpt>
      <trkpt lat="43.7648" lon="3.45603">
        <ele>-1</ele>
        <time>1970-01-01T00:00:00Z</time>
      </trkpt>
      <trkpt lat="43.76503" lon="3.45601">
        <ele>-1</ele>
        <time>1970-01-01T00:00:00Z</time>
      </trkpt>
      <trkpt lat="43.76509" lon="3.45603">
        <ele>-1</ele>
        <time>1970-01-01T00:00:00Z</time>
      </trkpt>
      <trkpt lat="43.76534" lon="3.45613">
        <ele>-1</ele>
        <time>1970-01-01T00:00:00Z</time>
      </trkpt>
      <trkpt lat="43.76546" lon="3.45615">
        <ele>-1</ele>
        <time>1970-01-01T00:00:00Z</time>
      </trkpt>
      <trkpt lat="43.76571" lon="3.45615">
        <ele>-1</ele>
        <time>1970-01-01T00:00:00Z</time>
      </trkpt>
      <trkpt lat="43.76601" lon="3.45613">
        <ele>-1</ele>
        <time>1970-01-01T00:00:00Z</time>
      </trkpt>
      <trkpt lat="43.7662" lon="3.45606">
        <ele>-1</ele>
        <time>1970-01-01T00:00:00Z</time>
      </trkpt>
      <trkpt lat="43.76679" lon="3.45595">
        <ele>-1</ele>
        <time>1970-01-01T00:00:00Z</time>
      </trkpt>
      <trkpt lat="43.76756" lon="3.45625">
        <ele>-1</ele>
        <time>1970-01-01T00:00:00Z</time>
      </trkpt>
      <trkpt lat="43.76813" lon="3.45622">
        <ele>-1</ele>
        <time>1970-01-01T00:00:00Z</time>
      </trkpt>
      <trkpt lat="43.76845" lon="3.45589">
        <ele>-1</ele>
        <time>1970-01-01T00:00:00Z</time>
      </trkpt>
      <trkpt lat="43.7688" lon="3.45588">
        <ele>-1</ele>
        <time>1970-01-01T00:00:00Z</time>
      </trkpt>
      <trkpt lat="43.76888" lon="3.45601">
        <ele>-1</ele>
        <time>1970-01-01T00:00:00Z</time>
      </trkpt>
      <trkpt lat="43.76907" lon="3.45615">
        <ele>-1</ele>
        <time>1970-01-01T00:00:00Z</time>
      </trkpt>
      <trkpt lat="43.76912" lon="3.45637">
        <ele>-1</ele>
        <time>1970-01-01T00:00:00Z</time>
      </trkpt>
      <trkpt lat="43.76926" lon="3.45645">
        <ele>-1</ele>
        <time>1970-01-01T00:00:00Z</time>
      </trkpt>
      <trkpt lat="43.76948" lon="3.45645">
        <ele>-1</ele>
        <time>1970-01-01T00:00:00Z</time>
      </trkpt>
      <trkpt lat="43.76987" lon="3.4567">
        <ele>-1</ele>
        <time>1970-01-01T00:00:00Z</time>
      </trkpt>
      <trkpt lat="43.7701" lon="3.45667">
        <ele>-1</ele>
        <time>1970-01-01T00:00:00Z</time>
      </trkpt>
      <trkpt lat="43.77042" lon="3.45653">
        <ele>-1</ele>
        <time>1970-01-01T00:00:00Z</time>
      </trkpt>
      <trkpt lat="43.77061" lon="3.45628">
        <ele>-1</ele>
        <time>1970-01-01T00:00:00Z</time>
      </trkpt>
      <trkpt lat="43.77066" lon="3.45603">
        <ele>-1</ele>
        <time>1970-01-01T00:00:00Z</time>
      </trkpt>
      <trkpt lat="43.77088" lon="3.4559">
        <ele>-1</ele>
        <time>1970-01-01T00:00:00Z</time>
      </trkpt>
      <trkpt lat="43.77119" lon="3.4559">
        <ele>-1</ele>
        <time>1970-01-01T00:00:00Z</time>
      </trkpt>
      <trkpt lat="43.77154" lon="3.4559">
        <ele>-1</ele>
        <time>1970-01-01T00:00:00Z</time>
      </trkpt>
      <trkpt lat="43.77184" lon="3.45573">
        <ele>-1</ele>
        <time>1970-01-01T00:00:00Z</time>
      </trkpt>
      <trkpt lat="43.77218" lon="3.45527">
        <ele>-1</ele>
        <time>1970-01-01T00:00:00Z</time>
      </trkpt>
      <trkpt lat="43.77255" lon="3.45489">
        <ele>-1</ele>
        <time>1970-01-01T00:00:00Z</time>
      </trkpt>
      <trkpt lat="43.7727" lon="3.45475">
        <ele>-1</ele>
        <time>1970-01-01T00:00:00Z</time>
      </trkpt>
      <trkpt lat="43.77279" lon="3.45454">
        <ele>-1</ele>
        <time>1970-01-01T00:00:00Z</time>
      </trkpt>
      <trkpt lat="43.77295" lon="3.45454">
        <ele>-1</ele>
        <time>1970-01-01T00:00:00Z</time>
      </trkpt>
      <trkpt lat="43.7732" lon="3.45422">
        <ele>-1</ele>
        <time>1970-01-01T00:00:00Z</time>
      </trkpt>
      <trkpt lat="43.77354" lon="3.45358">
        <ele>-1</ele>
        <time>1970-01-01T00:00:00Z</time>
      </trkpt>
      <trkpt lat="43.77355" lon="3.45355">
        <ele>-1</ele>
        <time>1970-01-01T00:00:00Z</time>
      </trkpt>
      <trkpt lat="43.7738" lon="3.45318">
        <ele>-1</ele>
        <time>1970-01-01T00:00:00Z</time>
      </trkpt>
      <trkpt lat="43.77375" lon="3.45292">
        <ele>-1</ele>
        <time>1970-01-01T00:00:00Z</time>
      </trkpt>
      <trkpt lat="43.77378" lon="3.45291">
        <ele>-1</ele>
        <time>1970-01-01T00:00:00Z</time>
      </trkpt>
      <trkpt lat="43.77395" lon="3.45271">
        <ele>-1</ele>
        <time>1970-01-01T00:00:00Z</time>
      </trkpt>
      <trkpt lat="43.77389" lon="3.45206">
        <ele>-1</ele>
        <time>1970-01-01T00:00:00Z</time>
      </trkpt>
      <trkpt lat="43.77388" lon="3.45184">
        <ele>-1</ele>
        <time>1970-01-01T00:00:00Z</time>
      </trkpt>
      <trkpt lat="43.77408" lon="3.45136">
        <ele>-1</ele>
        <time>1970-01-01T00:00:00Z</time>
      </trkpt>
      <trkpt lat="43.77418" lon="3.45088">
        <ele>-1</ele>
        <time>1970-01-01T00:00:00Z</time>
      </trkpt>
      <trkpt lat="43.77437" lon="3.4504">
        <ele>-1</ele>
        <time>1970-01-01T00:00:00Z</time>
      </trkpt>
      <trkpt lat="43.77444" lon="3.44995">
        <ele>-1</ele>
        <time>1970-01-01T00:00:00Z</time>
      </trkpt>
      <trkpt lat="43.77457" lon="3.44924">
        <ele>-1</ele>
        <time>1970-01-01T00:00:00Z</time>
      </trkpt>
      <trkpt lat="43.77474" lon="3.44892">
        <ele>-1</ele>
        <time>1970-01-01T00:00:00Z</time>
      </trkpt>
      <trkpt lat="43.77455" lon="3.44811">
        <ele>-1</ele>
        <time>1970-01-01T00:00:00Z</time>
      </trkpt>
      <trkpt lat="43.77483" lon="3.4471">
        <ele>-1</ele>
        <time>1970-01-01T00:00:00Z</time>
      </trkpt>
      <trkpt lat="43.77508" lon="3.44634">
        <ele>-1</ele>
        <time>1970-01-01T00:00:00Z</time>
      </trkpt>
      <trkpt lat="43.77511" lon="3.44581">
        <ele>-1</ele>
        <time>1970-01-01T00:00:00Z</time>
      </trkpt>
      <trkpt lat="43.77518" lon="3.44526">
        <ele>-1</ele>
        <time>1970-01-01T00:00:00Z</time>
      </trkpt>
      <trkpt lat="43.77521" lon="3.44518">
        <ele>-1</ele>
        <time>1970-01-01T00:00:00Z</time>
      </trkpt>
      <trkpt lat="43.77519" lon="3.44457">
        <ele>-1</ele>
        <time>1970-01-01T00:00:00Z</time>
      </trkpt>
      <trkpt lat="43.7754" lon="3.44382">
        <ele>-1</ele>
        <time>1970-01-01T00:00:00Z</time>
      </trkpt>
      <trkpt lat="43.7755" lon="3.44345">
        <ele>-1</ele>
        <time>1970-01-01T00:00:00Z</time>
      </trkpt>
      <trkpt lat="43.77558" lon="3.44268">
        <ele>-1</ele>
        <time>1970-01-01T00:00:00Z</time>
      </trkpt>
      <trkpt lat="43.77575" lon="3.44206">
        <ele>-1</ele>
        <time>1970-01-01T00:00:00Z</time>
      </trkpt>
      <trkpt lat="43.7758" lon="3.44203">
        <ele>-1</ele>
        <time>1970-01-01T00:00:00Z</time>
      </trkpt>
      <trkpt lat="43.77619" lon="3.44158">
        <ele>-1</ele>
        <time>1970-01-01T00:00:00Z</time>
      </trkpt>
      <trkpt lat="43.77706" lon="3.44103">
        <ele>-1</ele>
        <time>1970-01-01T00:00:00Z</time>
      </trkpt>
      <trkpt lat="43.77707" lon="3.44103">
        <ele>-1</ele>
        <time>1970-01-01T00:00:00Z</time>
      </trkpt>
      <trkpt lat="43.77756" lon="3.44091">
        <ele>-1</ele>
        <time>1970-01-01T00:00:00Z</time>
      </trkpt>
      <trkpt lat="43.77762" lon="3.44091">
        <ele>-1</ele>
        <time>1970-01-01T00:00:00Z</time>
      </trkpt>
      <trkpt lat="43.77766" lon="3.44091">
        <ele>-1</ele>
        <time>1970-01-01T00:00:00Z</time>
      </trkpt>
      <trkpt lat="43.77824" lon="3.44107">
        <ele>-1</ele>
        <time>1970-01-01T00:00:00Z</time>
      </trkpt>
      <trkpt lat="43.77849" lon="3.44115">
        <ele>-1</ele>
        <time>1970-01-01T00:00:00Z</time>
      </trkpt>
      <trkpt lat="43.77855" lon="3.44115">
        <ele>-1</ele>
        <time>1970-01-01T00:00:00Z</time>
      </trkpt>
      <trkpt lat="43.77917" lon="3.44096">
        <ele>-1</ele>
        <time>1970-01-01T00:00:00Z</time>
      </trkpt>
      <trkpt lat="43.77945" lon="3.44068">
        <ele>-1</ele>
        <time>1970-01-01T00:00:00Z</time>
      </trkpt>
      <trkpt lat="43.77967" lon="3.44066">
        <ele>-1</ele>
        <time>1970-01-01T00:00:00Z</time>
      </trkpt>
      <trkpt lat="43.77981" lon="3.44066">
        <ele>-1</ele>
        <time>1970-01-01T00:00:00Z</time>
      </trkpt>
      <trkpt lat="43.77977" lon="3.44047">
        <ele>-1</ele>
        <time>1970-01-01T00:00:00Z</time>
      </trkpt>
      <trkpt lat="43.77959" lon="3.44036">
        <ele>-1</ele>
        <time>1970-01-01T00:00:00Z</time>
      </trkpt>
      <trkpt lat="43.77941" lon="3.44014">
        <ele>-1</ele>
        <time>1970-01-01T00:00:00Z</time>
      </trkpt>
      <trkpt lat="43.77975" lon="3.4399">
        <ele>-1</ele>
        <time>1970-01-01T00:00:00Z</time>
      </trkpt>
      <trkpt lat="43.77978" lon="3.43988">
        <ele>-1</ele>
        <time>1970-01-01T00:00:00Z</time>
      </trkpt>
      <trkpt lat="43.78022" lon="3.43978">
        <ele>-1</ele>
        <time>1970-01-01T00:00:00Z</time>
      </trkpt>
      <trkpt lat="43.78037" lon="3.43977">
        <ele>-1</ele>
        <time>1970-01-01T00:00:00Z</time>
      </trkpt>
      <trkpt lat="43.78055" lon="3.43971">
        <ele>-1</ele>
        <time>1970-01-01T00:00:00Z</time>
      </trkpt>
      <trkpt lat="43.7808" lon="3.43971">
        <ele>-1</ele>
        <time>1970-01-01T00:00:00Z</time>
      </trkpt>
      <trkpt lat="43.78092" lon="3.43973">
        <ele>-1</ele>
        <time>1970-01-01T00:00:00Z</time>
      </trkpt>
      <trkpt lat="43.78113" lon="3.4396">
        <ele>-1</ele>
        <time>1970-01-01T00:00:00Z</time>
      </trkpt>
      <trkpt lat="43.78131" lon="3.4396">
        <ele>-1</ele>
        <time>1970-01-01T00:00:00Z</time>
      </trkpt>
      <trkpt lat="43.78154" lon="3.43982">
        <ele>-1</ele>
        <time>1970-01-01T00:00:00Z</time>
      </trkpt>
      <trkpt lat="43.78184" lon="3.43954">
        <ele>-1</ele>
        <time>1970-01-01T00:00:00Z</time>
      </trkpt>
      <trkpt lat="43.78195" lon="3.43933">
        <ele>-1</ele>
        <time>1970-01-01T00:00:00Z</time>
      </trkpt>
      <trkpt lat="43.78202" lon="3.439">
        <ele>-1</ele>
        <time>1970-01-01T00:00:00Z</time>
      </trkpt>
      <trkpt lat="43.78222" lon="3.43899">
        <ele>-1</ele>
        <time>1970-01-01T00:00:00Z</time>
      </trkpt>
      <trkpt lat="43.78255" lon="3.43885">
        <ele>-1</ele>
        <time>1970-01-01T00:00:00Z</time>
      </trkpt>
      <trkpt lat="43.78256" lon="3.43885">
        <ele>-1</ele>
        <time>1970-01-01T00:00:00Z</time>
      </trkpt>
      <trkpt lat="43.78294" lon="3.43862">
        <ele>-1</ele>
        <time>1970-01-01T00:00:00Z</time>
      </trkpt>
      <trkpt lat="43.78346" lon="3.43815">
        <ele>-1</ele>
        <time>1970-01-01T00:00:00Z</time>
      </trkpt>
      <trkpt lat="43.7839" lon="3.43782">
        <ele>-1</ele>
        <time>1970-01-01T00:00:00Z</time>
      </trkpt>
      <trkpt lat="43.78449" lon="3.43755">
        <ele>-1</ele>
        <time>1970-01-01T00:00:00Z</time>
      </trkpt>
      <trkpt lat="43.7849" lon="3.43739">
        <ele>-1</ele>
        <time>1970-01-01T00:00:00Z</time>
      </trkpt>
      <trkpt lat="43.78532" lon="3.43732">
        <ele>-1</ele>
        <time>1970-01-01T00:00:00Z</time>
      </trkpt>
      <trkpt lat="43.78535" lon="3.4373">
        <ele>-1</ele>
        <time>1970-01-01T00:00:00Z</time>
      </trkpt>
      <trkpt lat="43.78583" lon="3.43704">
        <ele>-1</ele>
        <time>1970-01-01T00:00:00Z</time>
      </trkpt>
      <trkpt lat="43.78623" lon="3.43631">
        <ele>-1</ele>
        <time>1970-01-01T00:00:00Z</time>
      </trkpt>
      <trkpt lat="43.78676" lon="3.43541">
        <ele>-1</ele>
        <time>1970-01-01T00:00:00Z</time>
      </trkpt>
      <trkpt lat="43.78714" lon="3.43471">
        <ele>-1</ele>
        <time>1970-01-01T00:00:00Z</time>
      </trkpt>
      <trkpt lat="43.78791" lon="3.43346">
        <ele>-1</ele>
        <time>1970-01-01T00:00:00Z</time>
      </trkpt>
      <trkpt lat="43.78869" lon="3.43187">
        <ele>-1</ele>
        <time>1970-01-01T00:00:00Z</time>
      </trkpt>
      <trkpt lat="43.78917" lon="3.43094">
        <ele>-1</ele>
        <time>1970-01-01T00:00:00Z</time>
      </trkpt>
      <trkpt lat="43.78925" lon="3.43045">
        <ele>-1</ele>
        <time>1970-01-01T00:00:00Z</time>
      </trkpt>
      <trkpt lat="43.79018" lon="3.42941">
        <ele>-1</ele>
        <time>1970-01-01T00:00:00Z</time>
      </trkpt>
      <trkpt lat="43.79024" lon="3.4294">
        <ele>-1</ele>
        <time>1970-01-01T00:00:00Z</time>
      </trkpt>
      <trkpt lat="43.79111" lon="3.42905">
        <ele>-1</ele>
        <time>1970-01-01T00:00:00Z</time>
      </trkpt>
      <trkpt lat="43.79269" lon="3.42732">
        <ele>-1</ele>
        <time>1970-01-01T00:00:00Z</time>
      </trkpt>
      <trkpt lat="43.79357" lon="3.42654">
        <ele>-1</ele>
        <time>1970-01-01T00:00:00Z</time>
      </trkpt>
      <trkpt lat="43.79371" lon="3.42616">
        <ele>-1</ele>
        <time>1970-01-01T00:00:00Z</time>
      </trkpt>
      <trkpt lat="43.79499" lon="3.42445">
        <ele>-1</ele>
        <time>1970-01-01T00:00:00Z</time>
      </trkpt>
      <trkpt lat="43.79545" lon="3.42461">
        <ele>-1</ele>
        <time>1970-01-01T00:00:00Z</time>
      </trkpt>
      <trkpt lat="43.79577" lon="3.4249">
        <ele>-1</ele>
        <time>1970-01-01T00:00:00Z</time>
      </trkpt>
      <trkpt lat="43.79597" lon="3.42511">
        <ele>-1</ele>
        <time>1970-01-01T00:00:00Z</time>
      </trkpt>
      <trkpt lat="43.7963" lon="3.42507">
        <ele>-1</ele>
        <time>1970-01-01T00:00:00Z</time>
      </trkpt>
      <trkpt lat="43.79661" lon="3.42479">
        <ele>-1</ele>
        <time>1970-01-01T00:00:00Z</time>
      </trkpt>
      <trkpt lat="43.79699" lon="3.4241">
        <ele>-1</ele>
        <time>1970-01-01T00:00:00Z</time>
      </trkpt>
      <trkpt lat="43.79704" lon="3.42388">
        <ele>-1</ele>
        <time>1970-01-01T00:00:00Z</time>
      </trkpt>
      <trkpt lat="43.79735" lon="3.42367">
        <ele>-1</ele>
        <time>1970-01-01T00:00:00Z</time>
      </trkpt>
      <trkpt lat="43.79814" lon="3.42386">
        <ele>-1</ele>
        <time>1970-01-01T00:00:00Z</time>
      </trkpt>
      <trkpt lat="43.79845" lon="3.42386">
        <ele>-1</ele>
        <time>1970-01-01T00:00:00Z</time>
      </trkpt>
      <trkpt lat="43.79872" lon="3.42362">
        <ele>-1</ele>
        <time>1970-01-01T00:00:00Z</time>
      </trkpt>
      <trkpt lat="43.79891" lon="3.42342">
        <ele>-1</ele>
        <time>1970-01-01T00:00:00Z</time>
      </trkpt>
      <trkpt lat="43.79942" lon="3.42326">
        <ele>-1</ele>
        <time>1970-01-01T00:00:00Z</time>
      </trkpt>
      <trkpt lat="43.79983" lon="3.42297">
        <ele>-1</ele>
        <time>1970-01-01T00:00:00Z</time>
      </trkpt>
      <trkpt lat="43.80023" lon="3.42285">
        <ele>-1</ele>
        <time>1970-01-01T00:00:00Z</time>
      </trkpt>
      <trkpt lat="43.80092" lon="3.4223">
        <ele>-1</ele>
        <time>1970-01-01T00:00:00Z</time>
      </trkpt>
      <trkpt lat="43.80162" lon="3.42254">
        <ele>-1</ele>
        <time>1970-01-01T00:00:00Z</time>
      </trkpt>
      <trkpt lat="43.80182" lon="3.42245">
        <ele>-1</ele>
        <time>1970-01-01T00:00:00Z</time>
      </trkpt>
      <trkpt lat="43.80229" lon="3.42222">
        <ele>-1</ele>
        <time>1970-01-01T00:00:00Z</time>
      </trkpt>
      <trkpt lat="43.80319" lon="3.42227">
        <ele>-1</ele>
        <time>1970-01-01T00:00:00Z</time>
      </trkpt>
      <trkpt lat="43.80388" lon="3.4221">
        <ele>-1</ele>
        <time>1970-01-01T00:00:00Z</time>
      </trkpt>
      <trkpt lat="43.80412" lon="3.42218">
        <ele>-1</ele>
        <time>1970-01-01T00:00:00Z</time>
      </trkpt>
      <trkpt lat="43.8044" lon="3.42231">
        <ele>-1</ele>
        <time>1970-01-01T00:00:00Z</time>
      </trkpt>
      <trkpt lat="43.80467" lon="3.42269">
        <ele>-1</ele>
        <time>1970-01-01T00:00:00Z</time>
      </trkpt>
      <trkpt lat="43.80487" lon="3.42269">
        <ele>-1</ele>
        <time>1970-01-01T00:00:00Z</time>
      </trkpt>
      <trkpt lat="43.80494" lon="3.42269">
        <ele>-1</ele>
        <time>1970-01-01T00:00:00Z</time>
      </trkpt>
      <trkpt lat="43.80588" lon="3.42237">
        <ele>-1</ele>
        <time>1970-01-01T00:00:00Z</time>
      </trkpt>
      <trkpt lat="43.80592" lon="3.42235">
        <ele>-1</ele>
        <time>1970-01-01T00:00:00Z</time>
      </trkpt>
      <trkpt lat="43.80742" lon="3.42207">
        <ele>-1</ele>
        <time>1970-01-01T00:00:00Z</time>
      </trkpt>
      <trkpt lat="43.80842" lon="3.42184">
        <ele>-1</ele>
        <time>1970-01-01T00:00:00Z</time>
      </trkpt>
      <trkpt lat="43.80864" lon="3.42198">
        <ele>-1</ele>
        <time>1970-01-01T00:00:00Z</time>
      </trkpt>
      <trkpt lat="43.80892" lon="3.42294">
        <ele>-1</ele>
        <time>1970-01-01T00:00:00Z</time>
      </trkpt>
      <trkpt lat="43.8094" lon="3.42386">
        <ele>-1</ele>
        <time>1970-01-01T00:00:00Z</time>
      </trkpt>
      <trkpt lat="43.80959" lon="3.42424">
        <ele>-1</ele>
        <time>1970-01-01T00:00:00Z</time>
      </trkpt>
      <trkpt lat="43.80993" lon="3.42483">
        <ele>-1</ele>
        <time>1970-01-01T00:00:00Z</time>
      </trkpt>
      <trkpt lat="43.81025" lon="3.42523">
        <ele>-1</ele>
        <time>1970-01-01T00:00:00Z</time>
      </trkpt>
      <trkpt lat="43.81138" lon="3.42777">
        <ele>-1</ele>
        <time>1970-01-01T00:00:00Z</time>
      </trkpt>
      <trkpt lat="43.8128" lon="3.42863">
        <ele>-1</ele>
        <time>1970-01-01T00:00:00Z</time>
      </trkpt>
      <trkpt lat="43.81321" lon="3.42873">
        <ele>-1</ele>
        <time>1970-01-01T00:00:00Z</time>
      </trkpt>
      <trkpt lat="43.81376" lon="3.42913">
        <ele>-1</ele>
        <time>1970-01-01T00:00:00Z</time>
      </trkpt>
      <trkpt lat="43.81494" lon="3.42973">
        <ele>-1</ele>
        <time>1970-01-01T00:00:00Z</time>
      </trkpt>
      <trkpt lat="43.81573" lon="3.42993">
        <ele>-1</ele>
        <time>1970-01-01T00:00:00Z</time>
      </trkpt>
      <trkpt lat="43.81643" lon="3.43021">
        <ele>-1</ele>
        <time>1970-01-01T00:00:00Z</time>
      </trkpt>
      <trkpt lat="43.81738" lon="3.43094">
        <ele>-1</ele>
        <time>1970-01-01T00:00:00Z</time>
      </trkpt>
      <trkpt lat="43.81776" lon="3.43104">
        <ele>-1</ele>
        <time>1970-01-01T00:00:00Z</time>
      </trkpt>
      <trkpt lat="43.81833" lon="3.43126">
        <ele>-1</ele>
        <time>1970-01-01T00:00:00Z</time>
      </trkpt>
      <trkpt lat="43.81918" lon="3.43202">
        <ele>-1</ele>
        <time>1970-01-01T00:00:00Z</time>
      </trkpt>
      <trkpt lat="43.82002" lon="3.43254">
        <ele>-1</ele>
        <time>1970-01-01T00:00:00Z</time>
      </trkpt>
      <trkpt lat="43.82069" lon="3.43291">
        <ele>-1</ele>
        <time>1970-01-01T00:00:00Z</time>
      </trkpt>
      <trkpt lat="43.82136" lon="3.43304">
        <ele>-1</ele>
        <time>1970-01-01T00:00:00Z</time>
      </trkpt>
      <trkpt lat="43.82224" lon="3.43277">
        <ele>-1</ele>
        <time>1970-01-01T00:00:00Z</time>
      </trkpt>
      <trkpt lat="43.82227" lon="3.43277">
        <ele>-1</ele>
        <time>1970-01-01T00:00:00Z</time>
      </trkpt>
      <trkpt lat="43.82293" lon="3.43274">
        <ele>-1</ele>
        <time>1970-01-01T00:00:00Z</time>
      </trkpt>
      <trkpt lat="43.82295" lon="3.43272">
        <ele>-1</ele>
        <time>1970-01-01T00:00:00Z</time>
      </trkpt>
      <trkpt lat="43.82303" lon="3.43271">
        <ele>-1</ele>
        <time>1970-01-01T00:00:00Z</time>
      </trkpt>
      <trkpt lat="43.82306" lon="3.43269">
        <ele>-1</ele>
        <time>1970-01-01T00:00:00Z</time>
      </trkpt>
      <trkpt lat="43.82371" lon="3.43269">
        <ele>-1</ele>
        <time>1970-01-01T00:00:00Z</time>
      </trkpt>
      <trkpt lat="43.82398" lon="3.4327">
        <ele>-1</ele>
        <time>1970-01-01T00:00:00Z</time>
      </trkpt>
      <trkpt lat="43.82449" lon="3.43264">
        <ele>-1</ele>
        <time>1970-01-01T00:00:00Z</time>
      </trkpt>
      <trkpt lat="43.82499" lon="3.43219">
        <ele>-1</ele>
        <time>1970-01-01T00:00:00Z</time>
      </trkpt>
      <trkpt lat="43.82583" lon="3.43197">
        <ele>-1</ele>
        <time>1970-01-01T00:00:00Z</time>
      </trkpt>
      <trkpt lat="43.82651" lon="3.43208">
        <ele>-1</ele>
        <time>1970-01-01T00:00:00Z</time>
      </trkpt>
      <trkpt lat="43.82658" lon="3.43207">
        <ele>-1</ele>
        <time>1970-01-01T00:00:00Z</time>
      </trkpt>
      <trkpt lat="43.82735" lon="3.43199">
        <ele>-1</ele>
        <time>1970-01-01T00:00:00Z</time>
      </trkpt>
      <trkpt lat="43.82823" lon="3.43177">
        <ele>-1</ele>
        <time>1970-01-01T00:00:00Z</time>
      </trkpt>
      <trkpt lat="43.82891" lon="3.43199">
        <ele>-1</ele>
        <time>1970-01-01T00:00:00Z</time>
      </trkpt>
      <trkpt lat="43.82975" lon="3.43201">
        <ele>-1</ele>
        <time>1970-01-01T00:00:00Z</time>
      </trkpt>
      <trkpt lat="43.83016" lon="3.43176">
        <ele>-1</ele>
        <time>1970-01-01T00:00:00Z</time>
      </trkpt>
      <trkpt lat="43.83093" lon="3.43141">
        <ele>-1</ele>
        <time>1970-01-01T00:00:00Z</time>
      </trkpt>
      <trkpt lat="43.8313" lon="3.4313">
        <ele>-1</ele>
        <time>1970-01-01T00:00:00Z</time>
      </trkpt>
      <trkpt lat="43.83217" lon="3.43139">
        <ele>-1</ele>
        <time>1970-01-01T00:00:00Z</time>
      </trkpt>
      <trkpt lat="43.83255" lon="3.4317">
        <ele>-1</ele>
        <time>1970-01-01T00:00:00Z</time>
      </trkpt>
      <trkpt lat="43.83288" lon="3.43202">
        <ele>-1</ele>
        <time>1970-01-01T00:00:00Z</time>
      </trkpt>
      <trkpt lat="43.83306" lon="3.43234">
        <ele>-1</ele>
        <time>1970-01-01T00:00:00Z</time>
      </trkpt>
      <trkpt lat="43.8336" lon="3.43246">
        <ele>-1</ele>
        <time>1970-01-01T00:00:00Z</time>
      </trkpt>
      <trkpt lat="43.83435" lon="3.43255">
        <ele>-1</ele>
        <time>1970-01-01T00:00:00Z</time>
      </trkpt>
      <trkpt lat="43.83511" lon="3.43223">
        <ele>-1</ele>
        <time>1970-01-01T00:00:00Z</time>
      </trkpt>
      <trkpt lat="43.83596" lon="3.43126">
        <ele>-1</ele>
        <time>1970-01-01T00:00:00Z</time>
      </trkpt>
      <trkpt lat="43.83615" lon="3.43099">
        <ele>-1</ele>
        <time>1970-01-01T00:00:00Z</time>
      </trkpt>
      <trkpt lat="43.83617" lon="3.43024">
        <ele>-1</ele>
        <time>1970-01-01T00:00:00Z</time>
      </trkpt>
      <trkpt lat="43.83602" lon="3.42989">
        <ele>-1</ele>
        <time>1970-01-01T00:00:00Z</time>
      </trkpt>
      <trkpt lat="43.83598" lon="3.42956">
        <ele>-1</ele>
        <time>1970-01-01T00:00:00Z</time>
      </trkpt>
      <trkpt lat="43.83597" lon="3.42952">
        <ele>-1</ele>
        <time>1970-01-01T00:00:00Z</time>
      </trkpt>
      <trkpt lat="43.83582" lon="3.429">
        <ele>-1</ele>
        <time>1970-01-01T00:00:00Z</time>
      </trkpt>
      <trkpt lat="43.83584" lon="3.42898">
        <ele>-1</ele>
        <time>1970-01-01T00:00:00Z</time>
      </trkpt>
      <trkpt lat="43.83592" lon="3.42823">
        <ele>-1</ele>
        <time>1970-01-01T00:00:00Z</time>
      </trkpt>
      <trkpt lat="43.83616" lon="3.42771">
        <ele>-1</ele>
        <time>1970-01-01T00:00:00Z</time>
      </trkpt>
      <trkpt lat="43.83643" lon="3.4275">
        <ele>-1</ele>
        <time>1970-01-01T00:00:00Z</time>
      </trkpt>
      <trkpt lat="43.83653" lon="3.4271">
        <ele>-1</ele>
        <time>1970-01-01T00:00:00Z</time>
      </trkpt>
      <trkpt lat="43.83665" lon="3.42553">
        <ele>-1</ele>
        <time>1970-01-01T00:00:00Z</time>
      </trkpt>
      <trkpt lat="43.83673" lon="3.42489">
        <ele>-1</ele>
        <time>1970-01-01T00:00:00Z</time>
      </trkpt>
      <trkpt lat="43.83722" lon="3.42354">
        <ele>-1</ele>
        <time>1970-01-01T00:00:00Z</time>
      </trkpt>
      <trkpt lat="43.83743" lon="3.42287">
        <ele>-1</ele>
        <time>1970-01-01T00:00:00Z</time>
      </trkpt>
      <trkpt lat="43.83801" lon="3.4222">
        <ele>-1</ele>
        <time>1970-01-01T00:00:00Z</time>
      </trkpt>
      <trkpt lat="43.83866" lon="3.42155">
        <ele>-1</ele>
        <time>1970-01-01T00:00:00Z</time>
      </trkpt>
      <trkpt lat="43.83892" lon="3.42071">
        <ele>-1</ele>
        <time>1970-01-01T00:00:00Z</time>
      </trkpt>
      <trkpt lat="43.83918" lon="3.4194">
        <ele>-1</ele>
        <time>1970-01-01T00:00:00Z</time>
      </trkpt>
      <trkpt lat="43.83946" lon="3.41912">
        <ele>-1</ele>
        <time>1970-01-01T00:00:00Z</time>
      </trkpt>
      <trkpt lat="43.83976" lon="3.41849">
        <ele>-1</ele>
        <time>1970-01-01T00:00:00Z</time>
      </trkpt>
      <trkpt lat="43.84042" lon="3.41775">
        <ele>-1</ele>
        <time>1970-01-01T00:00:00Z</time>
      </trkpt>
      <trkpt lat="43.84133" lon="3.41589">
        <ele>-1</ele>
        <time>1970-01-01T00:00:00Z</time>
      </trkpt>
      <trkpt lat="43.84163" lon="3.41545">
        <ele>-1</ele>
        <time>1970-01-01T00:00:00Z</time>
      </trkpt>
      <trkpt lat="43.84173" lon="3.41503">
        <ele>-1</ele>
        <time>1970-01-01T00:00:00Z</time>
      </trkpt>
      <trkpt lat="43.8432" lon="3.4138">
        <ele>-1</ele>
        <time>1970-01-01T00:00:00Z</time>
      </trkpt>
      <trkpt lat="43.84393" lon="3.41273">
        <ele>-1</ele>
        <time>1970-01-01T00:00:00Z</time>
      </trkpt>
      <trkpt lat="43.84418" lon="3.41241">
        <ele>-1</ele>
        <time>1970-01-01T00:00:00Z</time>
      </trkpt>
      <trkpt lat="43.84444" lon="3.41191">
        <ele>-1</ele>
        <time>1970-01-01T00:00:00Z</time>
      </trkpt>
      <trkpt lat="43.84467" lon="3.41164">
        <ele>-1</ele>
        <time>1970-01-01T00:00:00Z</time>
      </trkpt>
      <trkpt lat="43.84472" lon="3.41162">
        <ele>-1</ele>
        <time>1970-01-01T00:00:00Z</time>
      </trkpt>
      <trkpt lat="43.84546" lon="3.41116">
        <ele>-1</ele>
        <time>1970-01-01T00:00:00Z</time>
      </trkpt>
      <trkpt lat="43.84566" lon="3.41063">
        <ele>-1</ele>
        <time>1970-01-01T00:00:00Z</time>
      </trkpt>
      <trkpt lat="43.8459" lon="3.41025">
        <ele>-1</ele>
        <time>1970-01-01T00:00:00Z</time>
      </trkpt>
      <trkpt lat="43.84618" lon="3.40969">
        <ele>-1</ele>
        <time>1970-01-01T00:00:00Z</time>
      </trkpt>
      <trkpt lat="43.84618" lon="3.4096">
        <ele>-1</ele>
        <time>1970-01-01T00:00:00Z</time>
      </trkpt>
      <trkpt lat="43.8462" lon="3.4087">
        <ele>-1</ele>
        <time>1970-01-01T00:00:00Z</time>
      </trkpt>
      <trkpt lat="43.84624" lon="3.4075">
        <ele>-1</ele>
        <time>1970-01-01T00:00:00Z</time>
      </trkpt>
      <trkpt lat="43.84613" lon="3.40711">
        <ele>-1</ele>
        <time>1970-01-01T00:00:00Z</time>
      </trkpt>
      <trkpt lat="43.84614" lon="3.40666">
        <ele>-1</ele>
        <time>1970-01-01T00:00:00Z</time>
      </trkpt>
      <trkpt lat="43.84611" lon="3.40645">
        <ele>-1</ele>
        <time>1970-01-01T00:00:00Z</time>
      </trkpt>
      <trkpt lat="43.84633" lon="3.40612">
        <ele>-1</ele>
        <time>1970-01-01T00:00:00Z</time>
      </trkpt>
      <trkpt lat="43.84655" lon="3.40582">
        <ele>-1</ele>
        <time>1970-01-01T00:00:00Z</time>
      </trkpt>
      <trkpt lat="43.8466" lon="3.40536">
        <ele>-1</ele>
        <time>1970-01-01T00:00:00Z</time>
      </trkpt>
      <trkpt lat="43.8468" lon="3.40487">
        <ele>-1</ele>
        <time>1970-01-01T00:00:00Z</time>
      </trkpt>
      <trkpt lat="43.84708" lon="3.40471">
        <ele>-1</ele>
        <time>1970-01-01T00:00:00Z</time>
      </trkpt>
      <trkpt lat="43.84724" lon="3.40426">
        <ele>-1</ele>
        <time>1970-01-01T00:00:00Z</time>
      </trkpt>
      <trkpt lat="43.84737" lon="3.40355">
        <ele>-1</ele>
        <time>1970-01-01T00:00:00Z</time>
      </trkpt>
      <trkpt lat="43.84735" lon="3.40306">
        <ele>-1</ele>
        <time>1970-01-01T00:00:00Z</time>
      </trkpt>
      <trkpt lat="43.84758" lon="3.40258">
        <ele>-1</ele>
        <time>1970-01-01T00:00:00Z</time>
      </trkpt>
      <trkpt lat="43.8478" lon="3.40228">
        <ele>-1</ele>
        <time>1970-01-01T00:00:00Z</time>
      </trkpt>
      <trkpt lat="43.84804" lon="3.40214">
        <ele>-1</ele>
        <time>1970-01-01T00:00:00Z</time>
      </trkpt>
      <trkpt lat="43.84815" lon="3.40195">
        <ele>-1</ele>
        <time>1970-01-01T00:00:00Z</time>
      </trkpt>
      <trkpt lat="43.84821" lon="3.40169">
        <ele>-1</ele>
        <time>1970-01-01T00:00:00Z</time>
      </trkpt>
      <trkpt lat="43.84877" lon="3.40098">
        <ele>-1</ele>
        <time>1970-01-01T00:00:00Z</time>
      </trkpt>
      <trkpt lat="43.84881" lon="3.40092">
        <ele>-1</ele>
        <time>1970-01-01T00:00:00Z</time>
      </trkpt>
      <trkpt lat="43.84908" lon="3.40031">
        <ele>-1</ele>
        <time>1970-01-01T00:00:00Z</time>
      </trkpt>
      <trkpt lat="43.84911" lon="3.39985">
        <ele>-1</ele>
        <time>1970-01-01T00:00:00Z</time>
      </trkpt>
      <trkpt lat="43.8493" lon="3.39902">
        <ele>-1</ele>
        <time>1970-01-01T00:00:00Z</time>
      </trkpt>
      <trkpt lat="43.84978" lon="3.39853">
        <ele>-1</ele>
        <time>1970-01-01T00:00:00Z</time>
      </trkpt>
      <trkpt lat="43.84988" lon="3.39766">
        <ele>-1</ele>
        <time>1970-01-01T00:00:00Z</time>
      </trkpt>
      <trkpt lat="43.85" lon="3.39695">
        <ele>-1</ele>
        <time>1970-01-01T00:00:00Z</time>
      </trkpt>
      <trkpt lat="43.85049" lon="3.39626">
        <ele>-1</ele>
        <time>1970-01-01T00:00:00Z</time>
      </trkpt>
      <trkpt lat="43.85054" lon="3.39624">
        <ele>-1</ele>
        <time>1970-01-01T00:00:00Z</time>
      </trkpt>
      <trkpt lat="43.85116" lon="3.39555">
        <ele>-1</ele>
        <time>1970-01-01T00:00:00Z</time>
      </trkpt>
      <trkpt lat="43.85147" lon="3.39509">
        <ele>-1</ele>
        <time>1970-01-01T00:00:00Z</time>
      </trkpt>
      <trkpt lat="43.85194" lon="3.39447">
        <ele>-1</ele>
        <time>1970-01-01T00:00:00Z</time>
      </trkpt>
      <trkpt lat="43.85224" lon="3.39358">
        <ele>-1</ele>
        <time>1970-01-01T00:00:00Z</time>
      </trkpt>
      <trkpt lat="43.85257" lon="3.39305">
        <ele>-1</ele>
        <time>1970-01-01T00:00:00Z</time>
      </trkpt>
      <trkpt lat="43.85286" lon="3.39237">
        <ele>-1</ele>
        <time>1970-01-01T00:00:00Z</time>
      </trkpt>
      <trkpt lat="43.85297" lon="3.3914">
        <ele>-1</ele>
        <time>1970-01-01T00:00:00Z</time>
      </trkpt>
      <trkpt lat="43.85326" lon="3.391">
        <ele>-1</ele>
        <time>1970-01-01T00:00:00Z</time>
      </trkpt>
      <trkpt lat="43.85341" lon="3.39029">
        <ele>-1</ele>
        <time>1970-01-01T00:00:00Z</time>
      </trkpt>
      <trkpt lat="43.8532" lon="3.38969">
        <ele>-1</ele>
        <time>1970-01-01T00:00:00Z</time>
      </trkpt>
      <trkpt lat="43.85336" lon="3.38961">
        <ele>-1</ele>
        <time>1970-01-01T00:00:00Z</time>
      </trkpt>
      <trkpt lat="43.85367" lon="3.38966">
        <ele>-1</ele>
        <time>1970-01-01T00:00:00Z</time>
      </trkpt>
      <trkpt lat="43.85479" lon="3.38867">
        <ele>-1</ele>
        <time>1970-01-01T00:00:00Z</time>
      </trkpt>
      <trkpt lat="43.85527" lon="3.38818">
        <ele>-1</ele>
        <time>1970-01-01T00:00:00Z</time>
      </trkpt>
      <trkpt lat="43.85572" lon="3.38775">
        <ele>-1</ele>
        <time>1970-01-01T00:00:00Z</time>
      </trkpt>
      <trkpt lat="43.85659" lon="3.38717">
        <ele>-1</ele>
        <time>1970-01-01T00:00:00Z</time>
      </trkpt>
      <trkpt lat="43.85763" lon="3.38645">
        <ele>-1</ele>
        <time>1970-01-01T00:00:00Z</time>
      </trkpt>
      <trkpt lat="43.8576" lon="3.38567">
        <ele>-1</ele>
        <time>1970-01-01T00:00:00Z</time>
      </trkpt>
      <trkpt lat="43.85718" lon="3.38521">
        <ele>-1</ele>
        <time>1970-01-01T00:00:00Z</time>
      </trkpt>
      <trkpt lat="43.85666" lon="3.38459">
        <ele>-1</ele>
        <time>1970-01-01T00:00:00Z</time>
      </trkpt>
      <trkpt lat="43.85629" lon="3.38446">
        <ele>-1</ele>
        <time>1970-01-01T00:00:00Z</time>
      </trkpt>
      <trkpt lat="43.85615" lon="3.3843">
        <ele>-1</ele>
        <time>1970-01-01T00:00:00Z</time>
      </trkpt>
      <trkpt lat="43.85631" lon="3.38372">
        <ele>-1</ele>
        <time>1970-01-01T00:00:00Z</time>
      </trkpt>
      <trkpt lat="43.85643" lon="3.38309">
        <ele>-1</ele>
        <time>1970-01-01T00:00:00Z</time>
      </trkpt>
      <trkpt lat="43.85671" lon="3.38263">
        <ele>-1</ele>
        <time>1970-01-01T00:00:00Z</time>
      </trkpt>
      <trkpt lat="43.8568" lon="3.3821">
        <ele>-1</ele>
        <time>1970-01-01T00:00:00Z</time>
      </trkpt>
      <trkpt lat="43.85682" lon="3.38167">
        <ele>-1</ele>
        <time>1970-01-01T00:00:00Z</time>
      </trkpt>
      <trkpt lat="43.85712" lon="3.38204">
        <ele>-1</ele>
        <time>1970-01-01T00:00:00Z</time>
      </trkpt>
      <trkpt lat="43.85734" lon="3.38183">
        <ele>-1</ele>
        <time>1970-01-01T00:00:00Z</time>
      </trkpt>
      <trkpt lat="43.85738" lon="3.38163">
        <ele>-1</ele>
        <time>1970-01-01T00:00:00Z</time>
      </trkpt>
      <trkpt lat="43.85726" lon="3.38114">
        <ele>-1</ele>
        <time>1970-01-01T00:00:00Z</time>
      </trkpt>
      <trkpt lat="43.85749" lon="3.38082">
        <ele>-1</ele>
        <time>1970-01-01T00:00:00Z</time>
      </trkpt>
      <trkpt lat="43.85769" lon="3.38088">
        <ele>-1</ele>
        <time>1970-01-01T00:00:00Z</time>
      </trkpt>
      <trkpt lat="43.85771" lon="3.38087">
        <ele>-1</ele>
        <time>1970-01-01T00:00:00Z</time>
      </trkpt>
      <trkpt lat="43.85801" lon="3.38093">
        <ele>-1</ele>
        <time>1970-01-01T00:00:00Z</time>
      </trkpt>
      <trkpt lat="43.85804" lon="3.38094">
        <ele>-1</ele>
        <time>1970-01-01T00:00:00Z</time>
      </trkpt>
      <trkpt lat="43.85823" lon="3.3811">
        <ele>-1</ele>
        <time>1970-01-01T00:00:00Z</time>
      </trkpt>
      <trkpt lat="43.85825" lon="3.38111">
        <ele>-1</ele>
        <time>1970-01-01T00:00:00Z</time>
      </trkpt>
      <trkpt lat="43.85853" lon="3.3811">
        <ele>-1</ele>
        <time>1970-01-01T00:00:00Z</time>
      </trkpt>
      <trkpt lat="43.85874" lon="3.38109">
        <ele>-1</ele>
        <time>1970-01-01T00:00:00Z</time>
      </trkpt>
      <trkpt lat="43.85876" lon="3.38109">
        <ele>-1</ele>
        <time>1970-01-01T00:00:00Z</time>
      </trkpt>
      <trkpt lat="43.85898" lon="3.38116">
        <ele>-1</ele>
        <time>1970-01-01T00:00:00Z</time>
      </trkpt>
      <trkpt lat="43.859" lon="3.38117">
        <ele>-1</ele>
        <time>1970-01-01T00:00:00Z</time>
      </trkpt>
      <trkpt lat="43.85912" lon="3.38119">
        <ele>-1</ele>
        <time>1970-01-01T00:00:00Z</time>
      </trkpt>
      <trkpt lat="43.85937" lon="3.38117">
        <ele>-1</ele>
        <time>1970-01-01T00:00:00Z</time>
      </trkpt>
      <trkpt lat="43.85937" lon="3.38117">
        <ele>-1</ele>
        <time>1970-01-01T00:00:00Z</time>
      </trkpt>
      <trkpt lat="43.85975" lon="3.38132">
        <ele>-1</ele>
        <time>1970-01-01T00:00:00Z</time>
      </trkpt>
      <trkpt lat="43.85994" lon="3.3813">
        <ele>-1</ele>
        <time>1970-01-01T00:00:00Z</time>
      </trkpt>
      <trkpt lat="43.86007" lon="3.38124">
        <ele>-1</ele>
        <time>1970-01-01T00:00:00Z</time>
      </trkpt>
      <trkpt lat="43.86011" lon="3.38124">
        <ele>-1</ele>
        <time>1970-01-01T00:00:00Z</time>
      </trkpt>
      <trkpt lat="43.86013" lon="3.38124">
        <ele>-1</ele>
        <time>1970-01-01T00:00:00Z</time>
      </trkpt>
      <trkpt lat="43.86027" lon="3.38117">
        <ele>-1</ele>
        <time>1970-01-01T00:00:00Z</time>
      </trkpt>
      <trkpt lat="43.86018" lon="3.3808">
        <ele>-1</ele>
        <time>1970-01-01T00:00:00Z</time>
      </trkpt>
      <trkpt lat="43.86014" lon="3.38064">
        <ele>-1</ele>
        <time>1970-01-01T00:00:00Z</time>
      </trkpt>
      <trkpt lat="43.86027" lon="3.38032">
        <ele>-1</ele>
        <time>1970-01-01T00:00:00Z</time>
      </trkpt>
      <trkpt lat="43.86045" lon="3.38003">
        <ele>-1</ele>
        <time>1970-01-01T00:00:00Z</time>
      </trkpt>
      <trkpt lat="43.86047" lon="3.38002">
        <ele>-1</ele>
        <time>1970-01-01T00:00:00Z</time>
      </trkpt>
      <trkpt lat="43.86074" lon="3.3798">
        <ele>-1</ele>
        <time>1970-01-01T00:00:00Z</time>
      </trkpt>
      <trkpt lat="43.86076" lon="3.37977">
        <ele>-1</ele>
        <time>1970-01-01T00:00:00Z</time>
      </trkpt>
      <trkpt lat="43.86079" lon="3.37979">
        <ele>-1</ele>
        <time>1970-01-01T00:00:00Z</time>
      </trkpt>
      <trkpt lat="43.86092" lon="3.37973">
        <ele>-1</ele>
        <time>1970-01-01T00:00:00Z</time>
      </trkpt>
      <trkpt lat="43.86147" lon="3.37907">
        <ele>-1</ele>
        <time>1970-01-01T00:00:00Z</time>
      </trkpt>
      <trkpt lat="43.86178" lon="3.37876">
        <ele>-1</ele>
        <time>1970-01-01T00:00:00Z</time>
      </trkpt>
      <trkpt lat="43.86179" lon="3.37876">
        <ele>-1</ele>
        <time>1970-01-01T00:00:00Z</time>
      </trkpt>
      <trkpt lat="43.86235" lon="3.37859">
        <ele>-1</ele>
        <time>1970-01-01T00:00:00Z</time>
      </trkpt>
      <trkpt lat="43.86245" lon="3.37853">
        <ele>-1</ele>
        <time>1970-01-01T00:00:00Z</time>
      </trkpt>
      <trkpt lat="43.86271" lon="3.37823">
        <ele>-1</ele>
        <time>1970-01-01T00:00:00Z</time>
      </trkpt>
      <trkpt lat="43.86272" lon="3.37823">
        <ele>-1</ele>
        <time>1970-01-01T00:00:00Z</time>
      </trkpt>
      <trkpt lat="43.86321" lon="3.37795">
        <ele>-1</ele>
        <time>1970-01-01T00:00:00Z</time>
      </trkpt>
      <trkpt lat="43.86391" lon="3.37577">
        <ele>-1</ele>
        <time>1970-01-01T00:00:00Z</time>
      </trkpt>
      <trkpt lat="43.86394" lon="3.37541">
        <ele>-1</ele>
        <time>1970-01-01T00:00:00Z</time>
      </trkpt>
      <trkpt lat="43.864" lon="3.37516">
        <ele>-1</ele>
        <time>1970-01-01T00:00:00Z</time>
      </trkpt>
      <trkpt lat="43.86389" lon="3.37461">
        <ele>-1</ele>
        <time>1970-01-01T00:00:00Z</time>
      </trkpt>
      <trkpt lat="43.86394" lon="3.37419">
        <ele>-1</ele>
        <time>1970-01-01T00:00:00Z</time>
      </trkpt>
      <trkpt lat="43.86414" lon="3.37381">
        <ele>-1</ele>
        <time>1970-01-01T00:00:00Z</time>
      </trkpt>
      <trkpt lat="43.86452" lon="3.37338">
        <ele>-1</ele>
        <time>1970-01-01T00:00:00Z</time>
      </trkpt>
      <trkpt lat="43.86458" lon="3.37327">
        <ele>-1</ele>
        <time>1970-01-01T00:00:00Z</time>
      </trkpt>
      <trkpt lat="43.86455" lon="3.37305">
        <ele>-1</ele>
        <time>1970-01-01T00:00:00Z</time>
      </trkpt>
      <trkpt lat="43.86481" lon="3.37153">
        <ele>-1</ele>
        <time>1970-01-01T00:00:00Z</time>
      </trkpt>
      <trkpt lat="43.8649" lon="3.37102">
        <ele>-1</ele>
        <time>1970-01-01T00:00:00Z</time>
      </trkpt>
      <trkpt lat="43.86491" lon="3.37101">
        <ele>-1</ele>
        <time>1970-01-01T00:00:00Z</time>
      </trkpt>
      <trkpt lat="43.86506" lon="3.37055">
        <ele>-1</ele>
        <time>1970-01-01T00:00:00Z</time>
      </trkpt>
      <trkpt lat="43.86513" lon="3.37008">
        <ele>-1</ele>
        <time>1970-01-01T00:00:00Z</time>
      </trkpt>
      <trkpt lat="43.86542" lon="3.3696">
        <ele>-1</ele>
        <time>1970-01-01T00:00:00Z</time>
      </trkpt>
      <trkpt lat="43.86544" lon="3.36896">
        <ele>-1</ele>
        <time>1970-01-01T00:00:00Z</time>
      </trkpt>
      <trkpt lat="43.86546" lon="3.36827">
        <ele>-1</ele>
        <time>1970-01-01T00:00:00Z</time>
      </trkpt>
      <trkpt lat="43.86564" lon="3.36778">
        <ele>-1</ele>
        <time>1970-01-01T00:00:00Z</time>
      </trkpt>
      <trkpt lat="43.86596" lon="3.3675">
        <ele>-1</ele>
        <time>1970-01-01T00:00:00Z</time>
      </trkpt>
      <trkpt lat="43.86616" lon="3.3673">
        <ele>-1</ele>
        <time>1970-01-01T00:00:00Z</time>
      </trkpt>
      <trkpt lat="43.86642" lon="3.36684">
        <ele>-1</ele>
        <time>1970-01-01T00:00:00Z</time>
      </trkpt>
      <trkpt lat="43.86688" lon="3.36612">
        <ele>-1</ele>
        <time>1970-01-01T00:00:00Z</time>
      </trkpt>
      <trkpt lat="43.86718" lon="3.3656">
        <ele>-1</ele>
        <time>1970-01-01T00:00:00Z</time>
      </trkpt>
      <trkpt lat="43.86739" lon="3.36514">
        <ele>-1</ele>
        <time>1970-01-01T00:00:00Z</time>
      </trkpt>
      <trkpt lat="43.86778" lon="3.36455">
        <ele>-1</ele>
        <time>1970-01-01T00:00:00Z</time>
      </trkpt>
      <trkpt lat="43.86779" lon="3.36455">
        <ele>-1</ele>
        <time>1970-01-01T00:00:00Z</time>
      </trkpt>
      <trkpt lat="43.86811" lon="3.36441">
        <ele>-1</ele>
        <time>1970-01-01T00:00:00Z</time>
      </trkpt>
      <trkpt lat="43.86831" lon="3.36433">
        <ele>-1</ele>
        <time>1970-01-01T00:00:00Z</time>
      </trkpt>
      <trkpt lat="43.86885" lon="3.36429">
        <ele>-1</ele>
        <time>1970-01-01T00:00:00Z</time>
      </trkpt>
      <trkpt lat="43.86887" lon="3.36429">
        <ele>-1</ele>
        <time>1970-01-01T00:00:00Z</time>
      </trkpt>
      <trkpt lat="43.86927" lon="3.36428">
        <ele>-1</ele>
        <time>1970-01-01T00:00:00Z</time>
      </trkpt>
      <trkpt lat="43.86928" lon="3.36429">
        <ele>-1</ele>
        <time>1970-01-01T00:00:00Z</time>
      </trkpt>
      <trkpt lat="43.86965" lon="3.36421">
        <ele>-1</ele>
        <time>1970-01-01T00:00:00Z</time>
      </trkpt>
      <trkpt lat="43.87001" lon="3.36465">
        <ele>-1</ele>
        <time>1970-01-01T00:00:00Z</time>
      </trkpt>
      <trkpt lat="43.87037" lon="3.36468">
        <ele>-1</ele>
        <time>1970-01-01T00:00:00Z</time>
      </trkpt>
      <trkpt lat="43.87058" lon="3.36419">
        <ele>-1</ele>
        <time>1970-01-01T00:00:00Z</time>
      </trkpt>
      <trkpt lat="43.87091" lon="3.3637">
        <ele>-1</ele>
        <time>1970-01-01T00:00:00Z</time>
      </trkpt>
      <trkpt lat="43.87194" lon="3.36274">
        <ele>-1</ele>
        <time>1970-01-01T00:00:00Z</time>
      </trkpt>
      <trkpt lat="43.8731" lon="3.36032">
        <ele>-1</ele>
        <time>1970-01-01T00:00:00Z</time>
      </trkpt>
      <trkpt lat="43.87401" lon="3.35952">
        <ele>-1</ele>
        <time>1970-01-01T00:00:00Z</time>
      </trkpt>
      <trkpt lat="43.87431" lon="3.35856">
        <ele>-1</ele>
        <time>1970-01-01T00:00:00Z</time>
      </trkpt>
      <trkpt lat="43.87589" lon="3.35662">
        <ele>-1</ele>
        <time>1970-01-01T00:00:00Z</time>
      </trkpt>
      <trkpt lat="43.87662" lon="3.35496">
        <ele>-1</ele>
        <time>1970-01-01T00:00:00Z</time>
      </trkpt>
      <trkpt lat="43.87732" lon="3.35301">
        <ele>-1</ele>
        <time>1970-01-01T00:00:00Z</time>
      </trkpt>
      <trkpt lat="43.87778" lon="3.35218">
        <ele>-1</ele>
        <time>1970-01-01T00:00:00Z</time>
      </trkpt>
      <trkpt lat="43.8797" lon="3.35062">
        <ele>-1</ele>
        <time>1970-01-01T00:00:00Z</time>
      </trkpt>
      <trkpt lat="43.8797" lon="3.35042">
        <ele>-1</ele>
        <time>1970-01-01T00:00:00Z</time>
      </trkpt>
      <trkpt lat="43.88024" lon="3.35001">
        <ele>-1</ele>
        <time>1970-01-01T00:00:00Z</time>
      </trkpt>
      <trkpt lat="43.88073" lon="3.34984">
        <ele>-1</ele>
        <time>1970-01-01T00:00:00Z</time>
      </trkpt>
      <trkpt lat="43.88091" lon="3.3496">
        <ele>-1</ele>
        <time>1970-01-01T00:00:00Z</time>
      </trkpt>
      <trkpt lat="43.88124" lon="3.34942">
        <ele>-1</ele>
        <time>1970-01-01T00:00:00Z</time>
      </trkpt>
      <trkpt lat="43.88184" lon="3.34944">
        <ele>-1</ele>
        <time>1970-01-01T00:00:00Z</time>
      </trkpt>
      <trkpt lat="43.88246" lon="3.34915">
        <ele>-1</ele>
        <time>1970-01-01T00:00:00Z</time>
      </trkpt>
      <trkpt lat="43.88277" lon="3.34875">
        <ele>-1</ele>
        <time>1970-01-01T00:00:00Z</time>
      </trkpt>
      <trkpt lat="43.8831" lon="3.34847">
        <ele>-1</ele>
        <time>1970-01-01T00:00:00Z</time>
      </trkpt>
      <trkpt lat="43.88344" lon="3.34811">
        <ele>-1</ele>
        <time>1970-01-01T00:00:00Z</time>
      </trkpt>
      <trkpt lat="43.88408" lon="3.34776">
        <ele>-1</ele>
        <time>1970-01-01T00:00:00Z</time>
      </trkpt>
      <trkpt lat="43.88486" lon="3.3474">
        <ele>-1</ele>
        <time>1970-01-01T00:00:00Z</time>
      </trkpt>
      <trkpt lat="43.88507" lon="3.34713">
        <ele>-1</ele>
        <time>1970-01-01T00:00:00Z</time>
      </trkpt>
      <trkpt lat="43.88528" lon="3.34711">
        <ele>-1</ele>
        <time>1970-01-01T00:00:00Z</time>
      </trkpt>
      <trkpt lat="43.88557" lon="3.34692">
        <ele>-1</ele>
        <time>1970-01-01T00:00:00Z</time>
      </trkpt>
      <trkpt lat="43.88575" lon="3.34646">
        <ele>-1</ele>
        <time>1970-01-01T00:00:00Z</time>
      </trkpt>
      <trkpt lat="43.88608" lon="3.34617">
        <ele>-1</ele>
        <time>1970-01-01T00:00:00Z</time>
      </trkpt>
      <trkpt lat="43.88612" lon="3.34617">
        <ele>-1</ele>
        <time>1970-01-01T00:00:00Z</time>
      </trkpt>
      <trkpt lat="43.88676" lon="3.34562">
        <ele>-1</ele>
        <time>1970-01-01T00:00:00Z</time>
      </trkpt>
      <trkpt lat="43.88768" lon="3.34414">
        <ele>-1</ele>
        <time>1970-01-01T00:00:00Z</time>
      </trkpt>
      <trkpt lat="43.88808" lon="3.34383">
        <ele>-1</ele>
        <time>1970-01-01T00:00:00Z</time>
      </trkpt>
      <trkpt lat="43.88883" lon="3.34317">
        <ele>-1</ele>
        <time>1970-01-01T00:00:00Z</time>
      </trkpt>
      <trkpt lat="43.8893" lon="3.34268">
        <ele>-1</ele>
        <time>1970-01-01T00:00:00Z</time>
      </trkpt>
      <trkpt lat="43.88921" lon="3.3419">
        <ele>-1</ele>
        <time>1970-01-01T00:00:00Z</time>
      </trkpt>
      <trkpt lat="43.88925" lon="3.34184">
        <ele>-1</ele>
        <time>1970-01-01T00:00:00Z</time>
      </trkpt>
      <trkpt lat="43.88945" lon="3.34122">
        <ele>-1</ele>
        <time>1970-01-01T00:00:00Z</time>
      </trkpt>
      <trkpt lat="43.88997" lon="3.34044">
        <ele>-1</ele>
        <time>1970-01-01T00:00:00Z</time>
      </trkpt>
      <trkpt lat="43.89029" lon="3.33988">
        <ele>-1</ele>
        <time>1970-01-01T00:00:00Z</time>
      </trkpt>
      <trkpt lat="43.89064" lon="3.33945">
        <ele>-1</ele>
        <time>1970-01-01T00:00:00Z</time>
      </trkpt>
      <trkpt lat="43.89087" lon="3.33886">
        <ele>-1</ele>
        <time>1970-01-01T00:00:00Z</time>
      </trkpt>
      <trkpt lat="43.89162" lon="3.33784">
        <ele>-1</ele>
        <time>1970-01-01T00:00:00Z</time>
      </trkpt>
      <trkpt lat="43.8921" lon="3.33682">
        <ele>-1</ele>
        <time>1970-01-01T00:00:00Z</time>
      </trkpt>
      <trkpt lat="43.89258" lon="3.33623">
        <ele>-1</ele>
        <time>1970-01-01T00:00:00Z</time>
      </trkpt>
      <trkpt lat="43.89308" lon="3.33569">
        <ele>-1</ele>
        <time>1970-01-01T00:00:00Z</time>
      </trkpt>
      <trkpt lat="43.89347" lon="3.33551">
        <ele>-1</ele>
        <time>1970-01-01T00:00:00Z</time>
      </trkpt>
      <trkpt lat="43.89351" lon="3.33549">
        <ele>-1</ele>
        <time>1970-01-01T00:00:00Z</time>
      </trkpt>
      <trkpt lat="43.89395" lon="3.3351">
        <ele>-1</ele>
        <time>1970-01-01T00:00:00Z</time>
      </trkpt>
      <trkpt lat="43.89434" lon="3.33436">
        <ele>-1</ele>
        <time>1970-01-01T00:00:00Z</time>
      </trkpt>
      <trkpt lat="43.89486" lon="3.33393">
        <ele>-1</ele>
        <time>1970-01-01T00:00:00Z</time>
      </trkpt>
      <trkpt lat="43.89491" lon="3.33385">
        <ele>-1</ele>
        <time>1970-01-01T00:00:00Z</time>
      </trkpt>
      <trkpt lat="43.89553" lon="3.33312">
        <ele>-1</ele>
        <time>1970-01-01T00:00:00Z</time>
      </trkpt>
      <trkpt lat="43.89576" lon="3.33277">
        <ele>-1</ele>
        <time>1970-01-01T00:00:00Z</time>
      </trkpt>
      <trkpt lat="43.89651" lon="3.33064">
        <ele>-1</ele>
        <time>1970-01-01T00:00:00Z</time>
      </trkpt>
      <trkpt lat="43.89844" lon="3.32814">
        <ele>-1</ele>
        <time>1970-01-01T00:00:00Z</time>
      </trkpt>
      <trkpt lat="43.89917" lon="3.32734">
        <ele>-1</ele>
        <time>1970-01-01T00:00:00Z</time>
      </trkpt>
      <trkpt lat="43.89977" lon="3.32671">
        <ele>-1</ele>
        <time>1970-01-01T00:00:00Z</time>
      </trkpt>
      <trkpt lat="43.90027" lon="3.32637">
        <ele>-1</ele>
        <time>1970-01-01T00:00:00Z</time>
      </trkpt>
      <trkpt lat="43.90119" lon="3.32624">
        <ele>-1</ele>
        <time>1970-01-01T00:00:00Z</time>
      </trkpt>
      <trkpt lat="43.90214" lon="3.326">
        <ele>-1</ele>
        <time>1970-01-01T00:00:00Z</time>
      </trkpt>
      <trkpt lat="43.90281" lon="3.32604">
        <ele>-1</ele>
        <time>1970-01-01T00:00:00Z</time>
      </trkpt>
      <trkpt lat="43.90342" lon="3.3261">
        <ele>-1</ele>
        <time>1970-01-01T00:00:00Z</time>
      </trkpt>
      <trkpt lat="43.90381" lon="3.32606">
        <ele>-1</ele>
        <time>1970-01-01T00:00:00Z</time>
      </trkpt>
      <trkpt lat="43.90435" lon="3.32546">
        <ele>-1</ele>
        <time>1970-01-01T00:00:00Z</time>
      </trkpt>
      <trkpt lat="43.90483" lon="3.32529">
        <ele>-1</ele>
        <time>1970-01-01T00:00:00Z</time>
      </trkpt>
      <trkpt lat="43.90485" lon="3.32529">
        <ele>-1</ele>
        <time>1970-01-01T00:00:00Z</time>
      </trkpt>
      <trkpt lat="43.90527" lon="3.32534">
        <ele>-1</ele>
        <time>1970-01-01T00:00:00Z</time>
      </trkpt>
      <trkpt lat="43.90557" lon="3.32497">
        <ele>-1</ele>
        <time>1970-01-01T00:00:00Z</time>
      </trkpt>
      <trkpt lat="43.90592" lon="3.32499">
        <ele>-1</ele>
        <time>1970-01-01T00:00:00Z</time>
      </trkpt>
      <trkpt lat="43.90622" lon="3.32531">
        <ele>-1</ele>
        <time>1970-01-01T00:00:00Z</time>
      </trkpt>
      <trkpt lat="43.90642" lon="3.32531">
        <ele>-1</ele>
        <time>1970-01-01T00:00:00Z</time>
      </trkpt>
      <trkpt lat="43.90665" lon="3.32523">
        <ele>-1</ele>
        <time>1970-01-01T00:00:00Z</time>
      </trkpt>
      <trkpt lat="43.90683" lon="3.32482">
        <ele>-1</ele>
        <time>1970-01-01T00:00:00Z</time>
      </trkpt>
      <trkpt lat="43.90719" lon="3.32428">
        <ele>-1</ele>
        <time>1970-01-01T00:00:00Z</time>
      </trkpt>
      <trkpt lat="43.90721" lon="3.32402">
        <ele>-1</ele>
        <time>1970-01-01T00:00:00Z</time>
      </trkpt>
      <trkpt lat="43.90713" lon="3.3237">
        <ele>-1</ele>
        <time>1970-01-01T00:00:00Z</time>
      </trkpt>
      <trkpt lat="43.90723" lon="3.32325">
        <ele>-1</ele>
        <time>1970-01-01T00:00:00Z</time>
      </trkpt>
      <trkpt lat="43.90823" lon="3.32088">
        <ele>-1</ele>
        <time>1970-01-01T00:00:00Z</time>
      </trkpt>
      <trkpt lat="43.90873" lon="3.31993">
        <ele>-1</ele>
        <time>1970-01-01T00:00:00Z</time>
      </trkpt>
      <trkpt lat="43.90925" lon="3.31942">
        <ele>-1</ele>
        <time>1970-01-01T00:00:00Z</time>
      </trkpt>
      <trkpt lat="43.90969" lon="3.31964">
        <ele>-1</ele>
        <time>1970-01-01T00:00:00Z</time>
      </trkpt>
      <trkpt lat="43.91023" lon="3.31983">
        <ele>-1</ele>
        <time>1970-01-01T00:00:00Z</time>
      </trkpt>
      <trkpt lat="43.91045" lon="3.31973">
        <ele>-1</ele>
        <time>1970-01-01T00:00:00Z</time>
      </trkpt>
      <trkpt lat="43.91181" lon="3.3171">
        <ele>-1</ele>
        <time>1970-01-01T00:00:00Z</time>
      </trkpt>
      <trkpt lat="43.91199" lon="3.31709">
        <ele>-1</ele>
        <time>1970-01-01T00:00:00Z</time>
      </trkpt>
    </trkseg>
  </trk>
</gpx>